[[{"header":{"parameterUnit":"m.s-1","parameterCategory":1,"la1":31.0,"la2":29.5877,"lo1":-88.7671,"lo2":-86.6584,"dx":0.0162,"dy":0.0185,"nx":115,"ny":88,"refTime":"2022-11-21T18:00:00:Z","depth":0,"parameterNumber":2,"parameterNumberName":"U-component_of_WINDS"},"data":[0.0,0.0,0.0,0.0,0.0,0.0,0.0,0.0,0.0,0.0,0.0,0.0,0.0,0.0,0.0,0.0,0.0,0.0,0.0,0.0,0.0,0.0,0.0,0.0,0.0,0.0,0.0,0.0,0.0,0.0,0.0,0.0,0.0,0.0,0.0,0.0,0.0,0.0,0.0,0.0,0.0,0.0,0.0,0.0,0.0,0.0,0.0,0.0,0.0,0.0,0.0,0.0,0.0,0.0,0.0,0.0,0.0,0.0,0.0,0.0,0.0,0.0,0.0,0.0,0.0,0.0,0.0,0.0,0.0,0.0,0.0,0.0,0.0,0.0,0.0,0.0,0.0,0.0,0.0,0.0,0.0,0.0,0.0,0.0,0.0,0.0,0.0,0.0,0.0,0.0,0.0,0.0,0.0,0.0,0.0,0.0,0.0,0.0,0.0,0.0,0.0,0.0,0.0,0.0,0.0,0.0,0.0,0.0,0.0,0.0,0.0,0.0,0.0,0.0,0.0,0.0,0.0,0.0,0.0,0.0,0.0,0.0,0.0,0.0,0.0,0.0,0.0,0.0,0.0,0.0,0.0,0.0,0.0,0.0,0.0,0.0,0.0,0.0,0.0,0.0,0.0,0.0,0.0,0.0,0.0,0.0,0.0,0.0,0.0,0.0,0.0,0.0,0.0,0.0,0.0,0.0,0.0,0.0,0.0,0.0,0.0,0.0,0.0,0.0,0.0,0.0,0.0,0.0,0.0,0.0,0.0,0.0,0.0,0.0,0.0,0.0,0.0,0.0,0.0,0.0,0.0,0.0,0.0,0.0,0.0,0.0,0.0,0.0,0.0,0.0,0.0,0.0,0.0,0.0,0.0,0.0,0.0,0.0,0.0,0.0,0.0,0.0,0.0,0.0,0.0,0.0,0.0,0.0,0.0,0.0,0.0,0.0,0.0,0.0,0.0,0.0,0.0,0.0,0.0,0.0,0.0,0.0,0.0,0.0,0.0,0.0,0.0,0.0,0.0,0.0,0.0,0.0,0.0,0.0,0.0,0.0,0.0,0.0,0.0,0.0,0.0,0.0,0.0,0.0,0.0,0.0,0.0,0.0,0.0,0.0,0.0,0.0,0.0,0.0,0.0,0.0,0.0,0.0,0.0,0.0,0.0,0.0,0.0,0.0,0.0,0.0,0.0,0.0,0.0,0.0,0.0,0.0,0.0,0.0,0.0,0.0,0.0,0.0,0.0,0.0,0.0,0.0,0.0,0.0,0.0,0.0,0.0,0.0,0.0,0.0,0.0,0.0,0.0,0.0,0.0,0.0,0.0,0.0,0.0,0.0,0.0,0.0,0.0,0.0,0.0,0.0,0.0,0.0,0.0,0.0,0.0,0.0,0.0,0.0,0.0,0.0,0.0,0.0,0.0,0.0,0.0,0.0,0.0,0.0,0.0,0.0,0.0,0.0,0.0,0.0,0.0,0.0,0.0,0.0,0.0,0.0,0.0,0.0,0.0,0.0,0.0,0.0,0.0,0.0,0.0,0.0,0.0,0.0,0.0,0.0,0.0,0.0,0.0,0.0,0.0,0.0,0.0,0.0,0.0,0.0,0.0,0.0,0.0,0.0,0.0,0.0,0.0,0.0,0.0,0.0,0.0,0.0,0.0,0.0,0.0,0.0,0.0,0.0,0.0,0.0,0.0,0.0,0.0,0.0,0.0,0.0,0.0,0.0,0.0,0.0,0.0,0.0,0.0,0.0,0.0,0.0,0.0,0.0,0.0,0.0,0.0,0.0,0.0,0.0,0.0,0.0,0.0,0.0,0.0,0.0,0.0,0.0,0.0,0.0,0.0,0.0,0.0,0.0,0.0,0.0,0.0,0.0,0.0,0.0,0.0,0.0,0.0,0.0,0.0,0.0,0.0,0.0,0.0,0.0,0.0,0.0,0.0,0.0,0.0,0.0,0.0,0.0,0.0,0.0,0.0,0.0,0.0,0.0,0.0,0.0,0.0,0.0,0.0,0.0,0.0,0.0,0.0,0.0,0.0,0.0,0.0,0.0,0.0,0.0,0.0,0.0,0.0,0.0,0.0,0.0,0.0,0.0,0.0,0.0,0.0,0.0,0.0,0.0,0.0,0.0,0.0,0.0,0.0,0.0,0.0,0.0,0.0,0.0,0.0,0.0,0.0,0.0,0.0,0.0,0.0,0.0,0.0,0.0,0.0,0.0,0.0,0.0,0.0,0.0,0.0,0.0,0.0,0.0,0.0,0.0,0.0,0.0,0.0,0.0,0.0,0.0,0.0,0.0,0.0,0.0,0.0,0.0,0.0,0.0,0.0,0.0,0.0,0.0,0.0,0.0,0.0,0.0,0.0,0.0,0.0,0.0,0.0,0.0,0.0,0.0,0.0,0.0,0.0,0.0,0.0,0.0,0.0,0.0,0.0,0.0,0.0,0.0,0.0,0.0,0.0,0.0,0.0,0.0,0.0,0.0,0.0,0.0,0.0,0.0,0.0,0.0,0.0,0.0,0.0,0.0,0.0,0.0,0.0,0.0,0.0,0.0,0.0,0.0,0.0,0.0,0.0,0.0,0.0,0.0,0.0,0.0,0.0,0.0,0.0,0.0,0.0,0.0,0.0,0.0,0.0,0.0,0.0,0.0,0.0,0.0,0.0,0.0,0.0,0.0,0.0,0.0,0.0,0.0,0.0,0.0,0.0,0.0,0.0,0.0,0.0,0.0,0.0,0.0,0.0,0.0,0.0,0.0,0.0,0.0,0.0,0.0,0.0,0.0,0.0,0.0,0.0,0.0,0.0,0.0,0.0,0.0,0.0,0.0,0.0,0.0,0.0,0.0,0.0,0.0,0.0,0.0,0.0,0.0,0.0,0.0,0.0,0.0,0.0,0.0,0.0,0.0,0.0,0.0,0.0,0.0,0.0,0.0,0.0,0.0,0.0,0.0,0.0,0.0,0.0,0.0,0.0,0.0,0.0,0.0,0.0,0.0,0.0,0.0,0.0,0.0,0.0,0.0,0.0,0.0,0.0,0.0,0.0,0.0,0.0,0.0,0.0,0.0,0.0,0.0,0.0,0.0,0.0,0.0,0.0,0.0,0.0,0.0,0.0,0.0,0.0,0.0,0.0,0.0,0.0,0.0,0.0,0.0,0.0,0.0,0.0,0.0,0.0,0.0,0.0,0.0,0.0,0.0,0.0,0.0,0.0,0.0,0.0,0.0,0.0,0.0,0.0,0.0,0.0,0.0,0.0,0.0,0.0,0.0,0.0,0.0,0.0,0.0,0.0,0.0,0.0,0.0,0.0,0.0,0.0,0.0,0.0,0.0,0.0,0.0,0.0,0.0,0.0,0.0,0.0,0.0,0.0,0.0,0.0,0.0,0.0,0.0,0.0,0.0,0.0,0.0,0.0,0.0,0.0,0.0,0.0,0.0,0.0,0.0,0.0,0.0,0.0,0.0,0.0,0.0,0.0,0.0,0.0,0.0,0.0,0.0,0.0,0.0,0.0,0.0,0.0,0.0,0.0,0.0,0.0,0.0,0.0,0.0,0.0,0.0,0.0,0.0,0.0,0.0,0.0,0.0,0.0,0.0,0.0,0.0,0.0,0.0,0.0,0.0,0.0,0.0,0.0,0.0,0.0,0.0,0.0,0.0,0.0,0.0,0.0,0.0,0.0,0.0,0.0,0.0,0.0,0.0,0.0,0.0,0.0,0.0,0.0,0.0,0.0,0.0,0.0,0.0,0.0,0.0,0.0,0.0,0.0,0.0,0.0,0.0,0.0,0.0,0.0,0.0,0.0,0.0,0.0,0.0,0.0,0.0,0.0,0.0,0.0,0.0,0.0,0.0,0.0,0.0,0.0,0.0,0.0,0.0,0.0,0.0,0.0,0.0,0.0,0.0,0.0,0.0,0.0,0.0,0.0,0.0,0.0,0.0,0.0,0.0,0.0,0.0,0.0,0.0,0.0,0.0,0.0,0.0,0.0,0.0,0.0,0.0,0.0,0.0,0.0,0.0,0.0,0.0,0.0,0.0,0.0,0.0,0.0,0.0,0.0,0.0,0.0,0.0,0.0,0.0,0.0,0.0,0.0,0.0,0.0,0.0,0.0,0.0,0.0,0.0,0.0,0.0,0.0,0.0,0.0,0.0,0.0,0.0,0.0,0.0,0.0,0.0,0.0,0.0,0.0,0.0,0.0,0.0,0.0,0.0,0.0,0.0,0.0,0.0,0.0,0.0,0.0,0.0,0.0,0.0,-1.4494,0.0,0.0,0.0,-1.4494,0.0,0.0,0.0,0.0,0.0,0.0,0.0,0.0,0.0,0.0,0.0,0.0,0.0,0.0,0.0,0.0,0.0,0.0,0.0,0.0,0.0,0.0,0.0,0.0,0.0,0.0,0.0,0.0,0.0,0.0,0.0,0.0,0.0,0.0,0.0,0.0,0.0,0.0,0.0,0.0,0.0,0.0,0.0,0.0,0.0,0.0,0.0,0.0,0.0,0.0,0.0,0.0,0.0,0.0,0.0,0.0,0.0,0.0,0.0,0.0,0.0,0.0,0.0,0.0,0.0,0.0,0.0,0.0,0.0,0.0,0.0,0.0,0.0,0.0,0.0,0.0,0.0,0.0,0.0,0.0,0.0,0.0,0.0,0.0,0.0,0.0,0.0,0.0,0.0,0.0,0.0,0.0,0.0,0.0,0.0,0.0,0.0,0.0,0.0,0.0,0.0,0.0,0.0,0.0,0.0,0.0,0.0,0.0,0.0,0.0,-1.4494,-1.4494,-1.4494,-1.4494,-1.4494,0.0,0.0,0.0,0.0,0.0,0.0,0.0,0.0,0.0,0.0,0.0,0.0,0.0,0.0,0.0,0.0,0.0,0.0,0.0,0.0,0.0,0.0,0.0,0.0,0.0,0.0,0.0,0.0,0.0,0.0,0.0,0.0,0.0,0.0,0.0,0.0,0.0,0.0,0.0,0.0,0.0,0.0,0.0,0.0,0.0,0.0,0.0,0.0,0.0,0.0,0.0,0.0,0.0,0.0,0.0,0.0,0.0,0.0,0.0,0.0,0.0,0.0,0.0,0.0,0.0,0.0,0.0,0.0,0.0,0.0,0.0,0.0,0.0,0.0,0.0,0.0,0.0,0.0,0.0,0.0,0.0,0.0,0.0,0.0,0.0,0.0,0.0,0.0,0.0,0.0,0.0,0.0,0.0,0.0,0.0,0.0,0.0,0.0,0.0,0.0,0.0,0.0,0.0,0.0,0.0,0.0,0.0,0.0,0.0,0.0,0.0,0.0,-1.4494,-1.4494,-1.4494,0.0,0.0,0.0,0.0,0.0,0.0,0.0,0.0,0.0,0.0,0.0,0.0,0.0,0.0,0.0,0.0,0.0,0.0,0.0,0.0,0.0,0.0,0.0,0.0,0.0,0.0,0.0,0.0,0.0,0.0,0.0,0.0,0.0,0.0,0.0,0.0,0.0,0.0,0.0,0.0,0.0,0.0,0.0,0.0,0.0,0.0,0.0,0.0,0.0,0.0,0.0,0.0,0.0,0.0,0.0,0.0,0.0,0.0,0.0,0.0,0.0,0.0,0.0,0.0,0.0,0.0,0.0,0.0,0.0,0.0,0.0,0.0,0.0,0.0,0.0,0.0,0.0,0.0,0.0,0.0,0.0,0.0,0.0,0.0,0.0,0.0,0.0,0.0,0.0,0.0,0.0,0.0,0.0,0.0,0.0,0.0,0.0,0.0,0.0,0.0,0.0,0.0,0.0,0.0,0.0,0.0,0.0,0.0,0.0,0.0,-1.4494,-1.4494,-1.4494,0.0,-1.4513,0.0,0.0,0.0,0.0,0.0,0.0,0.0,0.0,0.0,0.0,0.0,0.0,0.0,0.0,0.0,0.0,0.0,0.0,0.0,0.0,0.0,0.0,0.0,0.0,0.0,0.0,0.0,0.0,0.0,0.0,0.0,0.0,0.0,0.0,0.0,0.0,0.0,0.0,0.0,0.0,0.0,0.0,0.0,0.0,0.0,0.0,0.0,0.0,0.0,0.0,0.0,0.0,0.0,0.0,0.0,0.0,0.0,0.0,0.0,0.0,0.0,0.0,0.0,0.0,0.0,0.0,0.0,0.0,0.0,0.0,0.0,0.0,0.0,0.0,0.0,0.0,0.0,0.0,0.0,0.0,0.0,0.0,0.0,0.0,0.0,0.0,0.0,0.0,0.0,0.0,0.0,0.0,0.0,0.0,0.0,0.0,0.0,0.0,0.0,0.0,0.0,0.0,0.0,0.0,0.0,0.0,0.0,0.0,0.0,0.0,-1.4744,-1.4494,-1.4494,-1.4586,0.0,0.0,0.0,0.0,0.0,0.0,0.0,0.0,0.0,0.0,0.0,0.0,0.0,0.0,0.0,0.0,0.0,0.0,0.0,0.0,0.0,0.0,0.0,0.0,0.0,0.0,0.0,0.0,0.0,0.0,0.0,0.0,0.0,0.0,0.0,0.0,0.0,0.0,0.0,0.0,0.0,0.0,0.0,0.0,0.0,0.0,0.0,0.0,0.0,0.0,0.0,0.0,0.0,0.0,0.0,0.0,0.0,0.0,0.0,0.0,0.0,0.0,0.0,0.0,0.0,0.0,0.0,0.0,0.0,0.0,0.0,0.0,0.0,0.0,0.0,0.0,0.0,0.0,0.0,0.0,0.0,0.0,0.0,0.0,0.0,0.0,0.0,0.0,0.0,0.0,0.0,0.0,0.0,0.0,0.0,0.0,0.0,0.0,0.0,0.0,0.0,0.0,0.0,0.0,0.0,0.0,0.0,0.0,0.0,0.0,-1.5111,-1.5129,-1.4854,-1.4946,-1.5038,-1.5111,0.0,0.0,0.0,0.0,0.0,0.0,0.0,0.0,0.0,0.0,0.0,0.0,0.0,0.0,0.0,0.0,0.0,0.0,0.0,0.0,0.0,0.0,0.0,0.0,0.0,0.0,0.0,0.0,0.0,0.0,0.0,0.0,0.0,0.0,0.0,0.0,0.0,0.0,0.0,0.0,0.0,0.0,0.0,0.0,0.0,0.0,0.0,0.0,0.0,0.0,0.0,0.0,0.0,0.0,0.0,0.0,0.0,0.0,0.0,0.0,0.0,0.0,0.0,0.0,0.0,0.0,0.0,0.0,0.0,0.0,0.0,0.0,0.0,0.0,0.0,0.0,0.0,0.0,0.0,0.0,0.0,0.0,0.0,0.0,0.0,0.0,0.0,0.0,0.0,0.0,0.0,0.0,0.0,0.0,0.0,0.0,0.0,0.0,0.0,0.0,0.0,0.0,0.0,0.0,0.0,0.0,0.0,0.0,-1.5606,-1.5643,-1.5693,-1.5643,-1.6028,-1.5881,0.0,0.0,0.0,0.0,0.0,0.0,0.0,0.0,0.0,0.0,0.0,0.0,0.0,0.0,0.0,0.0,0.0,0.0,0.0,0.0,0.0,0.0,0.0,0.0,0.0,0.0,0.0,0.0,0.0,0.0,0.0,0.0,0.0,0.0,0.0,0.0,0.0,0.0,0.0,0.0,0.0,0.0,0.0,0.0,0.0,0.0,0.0,0.0,0.0,0.0,0.0,0.0,0.0,0.0,0.0,0.0,0.0,0.0,0.0,0.0,0.0,0.0,0.0,0.0,0.0,0.0,0.0,0.0,0.0,0.0,0.0,0.0,0.0,0.0,0.0,0.0,0.0,0.0,0.0,0.0,0.0,0.0,0.0,0.0,0.0,0.0,0.0,0.0,0.0,0.0,0.0,0.0,0.0,0.0,0.0,0.0,0.0,0.0,0.0,0.0,0.0,0.0,0.0,0.0,0.0,0.0,0.0,0.0,0.0,-1.5661,-1.5698,-1.5936,-1.6431,-1.612,-1.5771,0.0,0.0,0.0,0.0,0.0,0.0,0.0,0.0,0.0,0.0,0.0,0.0,0.0,0.0,0.0,0.0,0.0,0.0,0.0,0.0,0.0,0.0,0.0,0.0,0.0,0.0,0.0,0.0,0.0,0.0,0.0,0.0,0.0,0.0,0.0,0.0,0.0,0.0,0.0,0.0,0.0,0.0,0.0,0.0,0.0,0.0,0.0,0.0,0.0,0.0,0.0,0.0,0.0,0.0,0.0,0.0,0.0,0.0,0.0,0.0,0.0,0.0,0.0,0.0,0.0,0.0,0.0,0.0,0.0,0.0,0.0,0.0,0.0,0.0,0.0,0.0,0.0,0.0,0.0,0.0,0.0,0.0,0.0,0.0,0.0,0.0,0.0,0.0,0.0,0.0,0.0,0.0,0.0,0.0,0.0,0.0,0.0,0.0,0.0,0.0,0.0,0.0,0.0,0.0,0.0,0.0,0.0,0.0,0.0,-1.6248,-1.6523,-1.6817,-1.7055,-1.656,-1.6101,0.0,0.0,0.0,0.0,0.0,0.0,0.0,0.0,0.0,0.0,0.0,0.0,0.0,0.0,0.0,0.0,0.0,0.0,0.0,0.0,0.0,0.0,0.0,0.0,0.0,0.0,0.0,0.0,0.0,0.0,0.0,0.0,0.0,0.0,0.0,0.0,0.0,0.0,0.0,0.0,0.0,0.0,0.0,0.0,0.0,0.0,0.0,0.0,0.0,0.0,0.0,0.0,0.0,0.0,0.0,0.0,0.0,0.0,0.0,0.0,0.0,0.0,0.0,0.0,0.0,0.0,0.0,0.0,0.0,0.0,0.0,0.0,0.0,0.0,0.0,0.0,0.0,0.0,0.0,0.0,0.0,0.0,0.0,0.0,0.0,0.0,0.0,0.0,0.0,0.0,0.0,0.0,0.0,0.0,0.0,0.0,0.0,0.0,0.0,0.0,0.0,0.0,0.0,0.0,0.0,0.0,0.0,0.0,-1.6725,-1.7477,-1.8229,-1.821,-1.7532,-1.7458,-1.6908,0.0,0.0,0.0,0.0,0.0,0.0,0.0,0.0,0.0,0.0,0.0,0.0,0.0,0.0,0.0,0.0,0.0,0.0,0.0,0.0,0.0,0.0,0.0,0.0,0.0,0.0,0.0,0.0,0.0,0.0,0.0,0.0,0.0,0.0,0.0,0.0,0.0,0.0,0.0,0.0,0.0,0.0,0.0,0.0,0.0,0.0,0.0,0.0,0.0,0.0,0.0,0.0,0.0,0.0,0.0,0.0,0.0,0.0,0.0,0.0,0.0,0.0,0.0,0.0,0.0,0.0,0.0,0.0,0.0,0.0,0.0,0.0,0.0,0.0,0.0,0.0,0.0,0.0,0.0,0.0,0.0,0.0,0.0,0.0,0.0,0.0,0.0,0.0,0.0,0.0,0.0,0.0,0.0,0.0,0.0,0.0,0.0,0.0,0.0,0.0,0.0,0.0,0.0,0.0,0.0,0.0,0.0,0.0,0.0,-1.7935,-1.8174,-1.8155,-1.7935,-1.7642,-1.7183,0.0,0.0,0.0,0.0,0.0,0.0,0.0,0.0,0.0,0.0,0.0,0.0,0.0,0.0,0.0,0.0,0.0,0.0,0.0,0.0,0.0,0.0,0.0,0.0,0.0,0.0,0.0,0.0,0.0,0.0,0.0,0.0,0.0,0.0,0.0,0.0,0.0,0.0,0.0,0.0,0.0,0.0,0.0,0.0,0.0,0.0,0.0,0.0,0.0,0.0,0.0,0.0,0.0,0.0,0.0,0.0,0.0,0.0,0.0,0.0,0.0,0.0,0.0,0.0,0.0,0.0,0.0,0.0,0.0,0.0,0.0,0.0,0.0,0.0,0.0,0.0,0.0,0.0,0.0,0.0,0.0,0.0,0.0,0.0,0.0,0.0,0.0,0.0,0.0,0.0,0.0,0.0,0.0,0.0,0.0,0.0,0.0,0.0,0.0,0.0,0.0,0.0,0.0,0.0,0.0,0.0,0.0,0.0,0.0,-1.8978,-1.8978,-1.8832,-1.8577,-1.8174,-1.7623,-1.6927,0.0,0.0,0.0,0.0,0.0,0.0,0.0,0.0,0.0,0.0,0.0,0.0,0.0,0.0,0.0,0.0,0.0,0.0,0.0,0.0,0.0,0.0,0.0,0.0,0.0,0.0,0.0,0.0,0.0,0.0,0.0,0.0,0.0,0.0,0.0,0.0,0.0,0.0,0.0,0.0,0.0,0.0,0.0,0.0,0.0,0.0,0.0,0.0,0.0,0.0,0.0,0.0,0.0,0.0,0.0,0.0,0.0,0.0,0.0,0.0,0.0,0.0,0.0,0.0,0.0,0.0,0.0,0.0,0.0,0.0,0.0,0.0,0.0,0.0,0.0,0.0,0.0,0.0,0.0,0.0,0.0,0.0,0.0,0.0,0.0,0.0,0.0,0.0,0.0,0.0,0.0,0.0,0.0,0.0,0.0,0.0,0.0,0.0,0.0,0.0,0.0,0.0,0.0,0.0,0.0,0.0,0.0,0.0,-2.0497,-2.0576,-2.0149,-1.9384,-1.8944,-1.8192,0.0,0.0,0.0,0.0,0.0,0.0,0.0,0.0,0.0,0.0,0.0,0.0,0.0,0.0,0.0,0.0,0.0,0.0,0.0,0.0,0.0,0.0,0.0,0.0,0.0,0.0,0.0,0.0,0.0,0.0,0.0,0.0,0.0,0.0,0.0,0.0,0.0,0.0,0.0,0.0,0.0,0.0,0.0,0.0,0.0,0.0,0.0,0.0,0.0,0.0,0.0,0.0,0.0,0.0,0.0,0.0,0.0,0.0,0.0,0.0,0.0,0.0,0.0,0.0,0.0,0.0,0.0,0.0,0.0,0.0,0.0,0.0,0.0,0.0,0.0,0.0,0.0,0.0,0.0,0.0,0.0,0.0,0.0,0.0,0.0,0.0,0.0,0.0,0.0,0.0,0.0,0.0,0.0,0.0,0.0,0.0,0.0,0.0,0.0,0.0,0.0,0.0,0.0,0.0,0.0,0.0,0.0,0.0,0.0,-2.0924,-2.1211,-2.0991,-2.0209,-1.9237,-1.8705,0.0,0.0,0.0,0.0,0.0,0.0,0.0,0.0,0.0,0.0,0.0,0.0,0.0,0.0,0.0,0.0,0.0,0.0,0.0,0.0,0.0,0.0,0.0,0.0,0.0,0.0,0.0,0.0,0.0,0.0,0.0,0.0,0.0,0.0,0.0,0.0,0.0,0.0,0.0,0.0,0.0,0.0,0.0,0.0,0.0,0.0,0.0,0.0,0.0,0.0,0.0,0.0,0.0,0.0,0.0,0.0,0.0,0.0,0.0,0.0,0.0,0.0,0.0,0.0,0.0,0.0,0.0,0.0,0.0,0.0,0.0,0.0,0.0,0.0,0.0,0.0,0.0,0.0,0.0,0.0,0.0,0.0,0.0,0.0,0.0,0.0,0.0,0.0,0.0,0.0,0.0,0.0,0.0,0.0,0.0,0.0,0.0,0.0,0.0,0.0,0.0,0.0,0.0,0.0,0.0,0.0,0.0,0.0,-2.0698,-2.1365,-2.1559,-2.1467,-2.1034,-2.0026,-1.9329,0.0,0.0,0.0,0.0,0.0,0.0,0.0,0.0,0.0,0.0,0.0,0.0,0.0,0.0,0.0,0.0,0.0,0.0,0.0,0.0,0.0,0.0,0.0,0.0,0.0,0.0,0.0,0.0,0.0,0.0,0.0,0.0,0.0,0.0,0.0,0.0,0.0,0.0,0.0,0.0,0.0,0.0,0.0,0.0,0.0,0.0,0.0,0.0,0.0,0.0,0.0,0.0,0.0,0.0,0.0,0.0,0.0,0.0,0.0,0.0,0.0,0.0,0.0,0.0,0.0,0.0,0.0,0.0,0.0,0.0,0.0,0.0,0.0,0.0,0.0,0.0,0.0,0.0,0.0,0.0,0.0,0.0,0.0,0.0,0.0,0.0,0.0,0.0,0.0,0.0,0.0,0.0,0.0,0.0,0.0,0.0,0.0,0.0,0.0,0.0,0.0,0.0,0.0,0.0,0.0,0.0,0.0,0.0,-2.1401,-2.1815,-2.1815,-2.1797,-2.1723,-2.0918,-1.9989,0.0,0.0,0.0,0.0,0.0,0.0,0.0,0.0,0.0,0.0,0.0,0.0,0.0,0.0,0.0,0.0,0.0,0.0,0.0,0.0,0.0,0.0,0.0,0.0,0.0,0.0,0.0,0.0,0.0,0.0,0.0,0.0,0.0,0.0,0.0,0.0,0.0,0.0,0.0,0.0,0.0,0.0,0.0,0.0,0.0,0.0,0.0,0.0,0.0,0.0,0.0,0.0,0.0,0.0,0.0,0.0,0.0,0.0,0.0,0.0,0.0,0.0,0.0,0.0,0.0,0.0,0.0,0.0,0.0,0.0,0.0,0.0,0.0,0.0,0.0,0.0,0.0,0.0,0.0,0.0,0.0,0.0,0.0,0.0,0.0,0.0,0.0,0.0,0.0,0.0,0.0,0.0,0.0,0.0,0.0,0.0,0.0,0.0,0.0,0.0,0.0,0.0,0.0,0.0,0.0,0.0,0.0,0.0,-2.1925,-2.262,-2.2638,-2.2492,-2.2163,-2.1065,-2.0246,0.0,0.0,0.0,0.0,0.0,0.0,0.0,0.0,0.0,0.0,0.0,0.0,0.0,0.0,0.0,0.0,0.0,0.0,0.0,0.0,0.0,0.0,0.0,0.0,0.0,0.0,0.0,0.0,0.0,0.0,0.0,0.0,0.0,0.0,0.0,0.0,0.0,0.0,0.0,0.0,0.0,0.0,0.0,0.0,0.0,0.0,0.0,0.0,-0.9612,0.0,0.0,0.0,0.0,0.0,0.0,0.0,0.0,0.0,0.0,0.0,0.0,0.0,0.0,0.0,0.0,0.0,0.0,0.0,0.0,0.0,0.0,0.0,0.0,0.0,0.0,0.0,0.0,0.0,0.0,0.0,0.0,0.0,0.0,0.0,0.0,0.0,0.0,0.0,0.0,0.0,0.0,0.0,0.0,0.0,0.0,0.0,0.0,0.0,0.0,0.0,0.0,0.0,0.0,0.0,0.0,0.0,0.0,0.0,-2.2272,-2.2876,-2.2913,-2.2803,-2.2547,-2.1805,-2.0772,0.0,0.0,0.0,0.0,0.0,0.0,0.0,0.0,0.0,0.0,0.0,0.0,0.0,0.0,0.0,0.0,0.0,0.0,0.0,0.0,0.0,0.0,0.0,0.0,0.0,0.0,0.0,0.0,0.0,0.0,0.0,0.0,0.0,0.0,0.0,0.0,0.0,0.0,0.0,0.0,0.0,0.0,0.0,0.0,0.0,0.0,0.0,0.0,0.0,0.0,0.0,0.0,0.0,0.0,0.0,0.0,0.0,0.0,0.0,0.0,0.0,0.0,0.0,0.0,0.0,0.0,0.0,0.0,0.0,0.0,0.0,0.0,0.0,0.0,0.0,0.0,0.0,0.0,0.0,0.0,0.0,0.0,0.0,0.0,0.0,0.0,0.0,0.0,0.0,0.0,0.0,0.0,0.0,0.0,0.0,0.0,0.0,0.0,0.0,0.0,0.0,0.0,0.0,0.0,0.0,0.0,0.0,-2.187,-2.2492,-2.3059,-2.2968,-2.2931,-2.2986,-2.2584,-2.1467,-1.9586,0.0,0.0,0.0,0.0,0.0,0.0,0.0,0.0,0.0,0.0,0.0,0.0,0.0,0.0,0.0,0.0,0.0,0.0,0.0,0.0,0.0,0.0,0.0,0.0,0.0,0.0,0.0,0.0,0.0,0.0,0.0,0.0,0.0,0.0,0.0,0.0,0.0,0.0,-1.4854,-1.4868,0.0,0.0,0.0,0.0,0.0,0.0,0.0,0.0,-1.0506,0.0,0.0,0.0,0.0,0.0,0.0,0.0,0.0,0.0,0.0,0.0,0.0,0.0,0.0,0.0,0.0,0.0,0.0,0.0,0.0,0.0,0.0,0.0,0.0,0.0,0.0,0.0,0.0,0.0,0.0,0.0,0.0,0.0,0.0,0.0,0.0,0.0,0.0,0.0,0.0,0.0,0.0,0.0,0.0,0.0,0.0,0.0,0.0,0.0,0.0,0.0,0.0,0.0,0.0,0.0,0.0,-2.2098,-2.1888,-2.252,-2.3944,-2.3242,-2.3059,-2.337,-2.3023,-2.2016,-2.0411,0.0,0.0,0.0,0.0,0.0,0.0,0.0,0.0,0.0,0.0,0.0,0.0,0.0,0.0,0.0,0.0,0.0,0.0,0.0,0.0,0.0,0.0,0.0,0.0,0.0,0.0,0.0,0.0,0.0,0.0,0.0,0.0,0.0,0.0,0.0,0.0,0.0,0.0,0.0,-1.6049,-1.551,0.0,0.0,0.0,0.0,0.0,0.0,0.0,0.0,-1.1997,0.0,0.0,0.0,0.0,0.0,0.0,0.0,0.0,0.0,0.0,0.0,0.0,0.0,0.0,0.0,0.0,0.0,0.0,0.0,0.0,0.0,0.0,0.0,0.0,0.0,0.0,0.0,0.0,0.0,0.0,0.0,0.0,0.0,0.0,0.0,0.0,0.0,0.0,0.0,0.0,0.0,0.0,0.0,0.0,0.0,0.0,0.0,0.0,0.0,0.0,0.0,0.0,0.0,0.0,0.0,-2.1943,-2.2648,-2.3363,-2.4165,-2.3767,-2.3675,-2.384,-2.3425,-2.2455,0.0,0.0,0.0,0.0,0.0,0.0,0.0,0.0,0.0,0.0,0.0,0.0,0.0,0.0,0.0,0.0,0.0,0.0,0.0,0.0,0.0,0.0,0.0,0.0,0.0,0.0,0.0,0.0,0.0,0.0,0.0,0.0,0.0,0.0,0.0,0.0,0.0,0.0,0.0,0.0,-1.7135,-1.7142,-1.6543,0.0,0.0,0.0,0.0,0.0,0.0,-1.2763,-1.224,0.0,0.0,0.0,0.0,0.0,0.0,0.0,0.0,0.0,0.0,0.0,0.0,0.0,0.0,0.0,0.0,0.0,0.0,0.0,0.0,0.0,0.0,0.0,0.0,0.0,0.0,0.0,0.0,0.0,0.0,0.0,0.0,0.0,0.0,0.0,0.0,0.0,0.0,0.0,0.0,0.0,0.0,0.0,0.0,0.0,0.0,0.0,0.0,0.0,0.0,0.0,0.0,0.0,0.0,0.0,-2.1723,-2.2881,-2.3748,-2.4183,-2.4055,-2.4036,-2.4183,-2.3767,-2.2767,0.0,0.0,0.0,0.0,0.0,0.0,0.0,0.0,0.0,0.0,0.0,0.0,0.0,0.0,0.0,0.0,0.0,0.0,0.0,0.0,0.0,0.0,0.0,0.0,0.0,0.0,0.0,0.0,0.0,0.0,0.0,0.0,0.0,0.0,0.0,0.0,0.0,0.0,0.0,0.0,0.0,-1.8798,-1.803,-1.8538,0.0,0.0,0.0,0.0,-1.49,-1.392,0.0,0.0,0.0,0.0,0.0,0.0,0.0,0.0,0.0,0.0,0.0,0.0,0.0,0.0,0.0,0.0,0.0,0.0,0.0,0.0,0.0,0.0,0.0,0.0,0.0,0.0,0.0,0.0,0.0,0.0,0.0,0.0,0.0,0.0,0.0,0.0,0.0,0.0,0.0,0.0,0.0,0.0,0.0,0.0,0.0,0.0,0.0,0.0,0.0,0.0,0.0,0.0,0.0,0.0,0.0,0.0,-2.1624,-2.1309,-2.2131,-2.406,-2.3455,-2.3437,-2.4165,-2.3767,-2.2895,0.0,0.0,0.0,0.0,0.0,0.0,0.0,0.0,0.0,0.0,0.0,0.0,0.0,0.0,0.0,0.0,0.0,0.0,0.0,0.0,0.0,0.0,0.0,0.0,0.0,0.0,0.0,0.0,0.0,0.0,0.0,0.0,0.0,0.0,0.0,0.0,0.0,0.0,0.0,0.0,0.0,-1.9967,-1.915,-1.9342,-1.9394,0.0,0.0,-1.8589,-1.6907,-1.6985,0.0,0.0,0.0,0.0,0.0,0.0,0.0,0.0,0.0,0.0,0.0,0.0,0.0,0.0,0.0,0.0,0.0,0.0,0.0,0.0,0.0,0.0,0.0,0.0,0.0,0.0,0.0,0.0,0.0,0.0,0.0,0.0,0.0,0.0,0.0,0.0,0.0,0.0,0.0,0.0,0.0,0.0,0.0,0.0,0.0,0.0,0.0,0.0,0.0,0.0,0.0,0.0,0.0,0.0,0.0,-2.0773,-2.1376,-2.22,-2.3165,-2.4115,-2.3822,-2.3914,-2.4551,-2.4115,-2.3217,0.0,0.0,0.0,0.0,0.0,0.0,0.0,0.0,0.0,0.0,0.0,0.0,0.0,0.0,0.0,0.0,0.0,0.0,0.0,0.0,0.0,0.0,0.0,0.0,0.0,0.0,0.0,0.0,0.0,0.0,0.0,0.0,0.0,0.0,0.0,0.0,0.0,0.0,0.0,0.0,0.0,0.0,-2.0944,-2.1247,0.0,0.0,0.0,-2.0268,-1.9138,0.0,0.0,0.0,0.0,0.0,0.0,0.0,0.0,0.0,0.0,0.0,0.0,0.0,0.0,0.0,0.0,0.0,0.0,0.0,0.0,0.0,0.0,0.0,0.0,0.0,0.0,0.0,0.0,0.0,0.0,0.0,0.0,0.0,0.0,0.0,0.0,0.0,0.0,0.0,0.0,0.0,0.0,0.0,0.0,0.0,0.0,0.0,0.0,0.0,0.0,0.0,0.0,0.0,0.0,0.0,0.0,0.0,-2.1266,-2.2924,-2.3904,-2.4202,-2.4312,-2.4514,-2.4757,-2.4514,0.0,0.0,0.0,0.0,0.0,0.0,0.0,0.0,0.0,0.0,0.0,0.0,0.0,0.0,0.0,0.0,0.0,0.0,0.0,0.0,0.0,0.0,0.0,0.0,0.0,0.0,0.0,-1.4433,0.0,0.0,0.0,0.0,0.0,0.0,0.0,0.0,0.0,0.0,0.0,0.0,0.0,0.0,-2.1676,-2.2346,-2.267,-2.2858,0.0,0.0,-2.1583,-2.0928,-2.0298,-1.9366,0.0,0.0,0.0,0.0,0.0,0.0,0.0,0.0,0.0,0.0,0.0,0.0,0.0,0.0,0.0,0.0,0.0,0.0,0.0,0.0,0.0,0.0,0.0,0.0,0.0,0.0,0.0,0.0,0.0,0.0,0.0,0.0,0.0,0.0,0.0,0.0,0.0,0.0,0.0,0.0,0.0,0.0,0.0,0.0,0.0,0.0,0.0,0.0,0.0,0.0,0.0,0.0,0.0,0.0,-2.0709,-2.166,-2.2281,-2.3138,-2.417,-2.4587,-2.4757,-2.4845,-2.4808,-2.3969,0.0,0.0,0.0,0.0,0.0,0.0,0.0,0.0,0.0,0.0,0.0,0.0,0.0,0.0,0.0,0.0,0.0,0.0,0.0,0.0,0.0,0.0,0.0,0.0,0.0,0.0,0.0,0.0,0.0,0.0,0.0,0.0,0.0,0.0,0.0,0.0,0.0,0.0,0.0,0.0,0.0,-2.2364,-2.2803,-2.2788,-2.305,0.0,-2.3231,-2.2462,-2.2031,-2.1962,-2.0793,-1.7599,0.0,0.0,0.0,0.0,0.0,0.0,0.0,0.0,0.0,0.0,0.0,0.0,0.0,0.0,0.0,0.0,0.0,0.0,0.0,0.0,0.0,0.0,0.0,0.0,0.0,0.0,0.0,0.0,0.0,0.0,0.0,0.0,0.0,0.0,0.0,0.0,0.0,0.0,0.0,0.0,0.0,0.0,0.0,0.0,0.0,0.0,0.0,0.0,0.0,0.0,0.0,0.0,0.0,-2.1266,-2.1705,-2.3196,-2.4007,-2.4189,-2.4863,-2.5084,-2.4794,-2.4845,-2.4244,0.0,0.0,0.0,0.0,0.0,0.0,0.0,0.0,0.0,0.0,0.0,0.0,0.0,0.0,0.0,0.0,0.0,0.0,0.0,0.0,0.0,0.0,0.0,0.0,0.0,0.0,0.0,0.0,-1.5863,-1.5845,-1.6376,0.0,0.0,0.0,0.0,0.0,0.0,0.0,0.0,0.0,0.0,-2.2895,-2.3602,-2.3872,0.0,0.0,-2.4235,-2.405,-2.414,-2.3943,-2.3246,-2.1672,-2.0893,0.0,0.0,0.0,0.0,0.0,0.0,0.0,0.0,0.0,0.0,0.0,0.0,0.0,0.0,0.0,0.0,0.0,0.0,0.0,0.0,0.0,0.0,0.0,0.0,0.0,0.0,0.0,0.0,0.0,0.0,0.0,0.0,0.0,0.0,0.0,0.0,0.0,0.0,0.0,0.0,0.0,0.0,0.0,0.0,0.0,0.0,0.0,0.0,0.0,0.0,0.0,0.0,-2.1662,-2.187,-2.351,-2.438,-2.4569,-2.5249,-2.5472,-2.5326,-2.5197,-2.4739,0.0,0.0,0.0,0.0,0.0,0.0,0.0,0.0,0.0,0.0,0.0,0.0,0.0,0.0,0.0,0.0,0.0,0.0,0.0,0.0,0.0,0.0,0.0,0.0,0.0,0.0,0.0,0.0,-1.689,-1.6963,-1.7238,0.0,0.0,0.0,0.0,0.0,0.0,0.0,0.0,0.0,0.0,-2.3639,-2.4606,-2.5051,-2.5326,-2.5326,-2.5326,-2.5417,-2.5745,-2.5289,-2.4747,-2.4202,0.0,0.0,0.0,0.0,0.0,0.0,0.0,0.0,0.0,0.0,0.0,0.0,0.0,0.0,0.0,0.0,0.0,0.0,0.0,0.0,0.0,0.0,0.0,0.0,0.0,0.0,0.0,-1.3462,0.0,0.0,-1.5771,0.0,0.0,0.0,0.0,0.0,0.0,0.0,0.0,0.0,0.0,0.0,0.0,0.0,0.0,0.0,0.0,0.0,0.0,0.0,0.0,0.0,0.0,-2.1672,-2.2309,-2.2962,-2.3911,-2.5326,-2.58,-2.6186,-2.6463,-2.6151,-2.5617,-2.4757,0.0,0.0,0.0,0.0,0.0,0.0,0.0,0.0,0.0,0.0,0.0,0.0,0.0,0.0,0.0,0.0,0.0,0.0,0.0,0.0,0.0,0.0,0.0,0.0,0.0,0.0,-1.6927,-1.7587,-1.8045,0.0,0.0,0.0,0.0,0.0,0.0,0.0,0.0,0.0,-2.3316,-2.3877,-2.4624,-2.58,-2.6333,-2.6536,-2.6536,-2.6536,-2.6554,-2.6573,-2.5894,-2.5032,0.0,0.0,0.0,0.0,0.0,0.0,0.0,0.0,0.0,0.0,0.0,0.0,0.0,0.0,0.0,0.0,0.0,0.0,0.0,0.0,0.0,0.0,0.0,0.0,0.0,0.0,0.0,-1.6519,-1.7115,0.0,0.0,0.0,0.0,0.0,0.0,0.0,0.0,0.0,0.0,0.0,-2.3096,-2.3694,0.0,0.0,0.0,0.0,0.0,0.0,0.0,0.0,0.0,0.0,0.0,0.0,-2.3015,-2.3602,-2.4781,-2.5395,-2.5399,-2.6591,-2.6774,-2.5855,-2.6169,-2.5929,-2.4812,0.0,0.0,0.0,0.0,0.0,0.0,0.0,0.0,0.0,0.0,0.0,0.0,0.0,0.0,0.0,0.0,0.0,0.0,0.0,0.0,0.0,0.0,0.0,0.0,0.0,-1.7678,0.0,0.0,0.0,0.0,0.0,0.0,0.0,0.0,0.0,0.0,-2.2053,-2.3242,-2.4244,-2.4941,-2.5745,-2.6682,-2.7179,-2.7436,0.0,0.0,0.0,0.0,0.0,0.0,0.0,0.0,0.0,0.0,0.0,0.0,0.0,-2.206,-2.0687,-1.8926,-1.7533,-1.6765,-1.7023,0.0,0.0,0.0,0.0,0.0,0.0,0.0,0.0,0.0,0.0,0.0,0.0,0.0,0.0,-1.8338,-1.8596,-1.9229,0.0,0.0,0.0,0.0,0.0,0.0,0.0,0.0,-2.3859,-2.4244,-2.4409,-2.4941,-2.4977,-2.4542,-2.3741,-2.3178,0.0,0.0,0.0,0.0,0.0,0.0,0.0,0.0,-2.3899,-2.4629,-2.5702,-2.619,-2.6261,-2.7289,-2.7399,-2.6463,-2.6664,-2.6353,-2.5436,-2.4482,-2.3663,0.0,0.0,0.0,0.0,0.0,0.0,0.0,0.0,0.0,0.0,0.0,0.0,0.0,0.0,0.0,0.0,0.0,0.0,0.0,0.0,0.0,0.0,0.0,-1.9125,0.0,0.0,0.0,0.0,0.0,0.0,0.0,0.0,0.0,-2.24,-2.337,-2.4537,-2.5491,-2.6113,-2.6829,-2.7914,0.0,0.0,0.0,0.0,0.0,0.0,0.0,-2.7856,-2.7985,-2.7893,-2.7581,-2.6976,-2.6535,-2.6186,-2.5876,0.0,0.0,-2.1695,-2.0081,-1.9296,-1.9689,-1.8775,-1.7928,-1.8025,-1.7698,-1.7477,0.0,0.0,0.0,0.0,-1.5986,0.0,0.0,0.0,-1.8675,-1.8722,0.0,-1.8676,0.0,0.0,0.0,0.0,-2.2474,-2.3724,0.0,0.0,-2.5286,-2.5672,-2.6021,-2.6058,-2.6278,-2.6537,-2.5054,-2.4897,-2.5803,-2.3235,-2.2016,0.0,0.0,0.0,0.0,0.0,-2.4333,-2.5368,-2.5586,-2.6328,-2.771,-2.784,-2.7985,-2.8315,-2.7581,-2.6976,-2.6591,-2.5454,-2.4445,-2.359,-2.2016,0.0,0.0,0.0,0.0,0.0,0.0,0.0,0.0,0.0,0.0,0.0,0.0,0.0,0.0,0.0,0.0,0.0,0.0,0.0,0.0,-2.0278,0.0,0.0,0.0,0.0,0.0,0.0,0.0,0.0,0.0,-2.4941,-2.3828,-2.4739,-2.5947,-2.705,0.0,0.0,0.0,0.0,-2.9324,-3.0075,-2.9874,-2.9745,-3.0112,-2.9525,-2.914,-2.9567,0.0,0.0,-2.848,-2.8077,-2.7765,-2.7858,-2.7746,-2.7153,-2.4905,-2.3311,-2.2543,-2.3157,-2.1958,-2.1047,-2.1158,-2.0129,-1.9345,-1.7258,0.0,0.0,0.0,0.0,-1.7994,-1.8206,-1.8298,-1.936,-1.9665,-1.9544,-2.0133,0.0,0.0,0.0,0.0,0.0,0.0,-2.5949,-2.6096,-2.6535,-2.6774,-2.6885,-2.7105,-2.7325,-2.7416,-2.668,-2.6536,-2.6774,-2.5729,-2.4404,-2.2885,0.0,0.0,0.0,0.0,-2.5915,-2.5415,-2.675,-2.7643,-2.7783,-2.8391,-2.8553,-2.8407,-2.76,-2.7123,-2.7013,-2.6168,-2.5433,-2.4849,-2.3565,0.0,0.0,0.0,0.0,0.0,0.0,0.0,0.0,0.0,0.0,0.0,0.0,0.0,0.0,0.0,0.0,0.0,0.0,0.0,-2.0644,-2.1101,-2.1668,0.0,0.0,0.0,0.0,0.0,0.0,0.0,0.0,0.0,-2.6499,-2.6866,-2.7325,0.0,0.0,-2.9269,-3.0296,-3.0332,-3.0351,-3.0589,-3.0516,0.0,-3.0222,-3.0002,-2.9892,-3.0002,-2.9672,-2.942,-2.925,-2.8902,-2.8685,-2.8645,-2.8627,-2.8473,-2.8106,-2.6376,-2.515,-2.5114,-2.3552,-2.2112,-2.223,-2.125,-2.0422,-1.92,-1.8764,-1.866,-1.8599,-1.8655,-1.9275,-1.9555,-1.9779,-2.1435,-2.1886,-2.1601,-2.248,-2.2987,-2.3257,-2.3166,0.0,0.0,0.0,-2.6783,-2.7325,-2.771,-2.7801,-2.7691,-2.7911,-2.8187,-2.8443,-2.7452,-2.7344,-2.8113,-2.6822,-2.5708,-2.4731,0.0,-2.5296,-2.4288,-2.5961,-2.6765,-2.6571,-2.8034,-2.8722,-2.826,-2.8737,-2.8865,-2.8627,-2.8003,-2.7655,-2.7655,-2.694,-2.6315,-2.5858,-2.4831,-2.3993,0.0,0.0,0.0,0.0,0.0,0.0,0.0,0.0,0.0,0.0,0.0,-1.7513,-1.7844,0.0,0.0,0.0,-2.1475,-2.2043,-2.252,-2.307,0.0,0.0,0.0,0.0,0.0,0.0,0.0,-2.6683,-2.7031,-2.7546,-2.8428,-2.8814,-2.8993,-2.9104,-2.9525,-3.0112,-3.0919,0.0,-3.0846,-3.0992,-3.1029,-3.0937,-3.0699,-3.0662,-3.0681,-3.0662,-3.0461,-3.0296,-3.0277,-3.0075,-2.9947,-2.9929,-2.9929,-3.0002,-3.0241,-2.9105,-2.8091,-2.7765,-2.6104,-2.4852,-2.4934,-2.3865,-2.2797,-2.1112,-2.1019,-2.0027,-1.9559,-1.9623,-2.057,-2.1133,-2.1583,-2.3956,-2.4498,-2.37,-2.4779,-2.4687,-2.3652,-2.3699,0.0,-2.774,-2.6759,-2.7127,-2.8553,-2.8783,-2.8765,-2.8553,-2.8553,-2.892,-2.9599,-2.7776,-2.7811,-2.9459,-2.7109,-2.6401,-2.7427,-2.5639,-2.5579,-2.704,-2.6854,-2.7281,-2.8414,-2.9125,-2.9289,-2.8786,-2.8768,-2.8828,-2.8888,-2.8541,-2.84,-2.8425,-2.7728,-2.7123,-2.6683,-2.5984,-2.4996,-2.3865,0.0,0.0,0.0,0.0,0.0,0.0,0.0,0.0,0.0,0.0,0.0,0.0,0.0,0.0,0.0,-2.3987,0.0,-2.4886,-2.5617,0.0,0.0,0.0,-2.6168,-2.6278,-2.6866,-2.7306,-2.7454,0.0,0.0,-2.9678,-3.0314,-3.0681,-3.0332,-3.0296,-3.0552,-3.1267,-3.1084,-3.0974,-3.1304,-3.1359,-3.1377,-3.1304,-3.1304,-3.1304,-3.1304,-3.1377,-3.1304,-3.1304,-3.1304,-3.1341,-3.1267,-3.1359,-3.1341,-3.1359,-3.1231,-3.1157,-3.0307,-2.91,-2.822,-2.8031,-2.6982,-2.5703,-2.1123,-2.1437,-2.1419,-2.1109,-2.0695,-2.0991,-2.1094,-2.1348,-2.2924,-2.2968,-2.188,-2.3137,-2.352,-2.323,-2.5509,-2.6908,-2.7574,-2.7631,-2.8421,-2.9642,-2.8774,-2.8835,-2.9782,-2.9764,-2.9874,-3.002,-2.961,-2.961,-2.9977,-2.8327,-2.8369,-2.9753,-2.7411,-2.6333,-2.6699,-2.8694,-2.9377,-2.8689,-2.8863,-2.8191,-2.6687,-2.6671,-2.7173,-2.8313,-2.8226,-2.8402,-2.8806,-2.8663,-2.8223,-2.7508,-2.7013,-2.6609,-2.6316,-2.5142,0.0,0.0,0.0,0.0,0.0,0.0,0.0,0.0,0.0,-2.1229,-2.1119,0.0,-2.3151,0.0,-2.5381,-2.6023,-2.5764,-2.6151,0.0,0.0,-2.7179,-2.738,-2.8572,-2.8352,-2.8462,-2.9379,-2.9452,-2.9709,-3.0406,-3.0662,-3.0864,-3.1066,-3.1084,-3.1157,-3.1359,-3.1304,-3.1267,-3.1359,-3.146,-3.1377,-3.146,-3.1377,-3.1396,-3.1377,-3.1377,-3.1377,-3.1377,-3.1377,-3.1377,-3.1377,-3.1377,-3.1377,-3.1396,-3.1377,-3.1341,-3.1075,-2.9977,-2.9073,-2.9008,-2.7916,-2.6867,-2.1908,-2.211,-2.2311,-2.2191,-2.1871,-2.1617,-2.1577,-2.1813,-2.3221,-2.335,-2.2641,-2.3892,-2.4701,-2.5282,-2.6514,-2.7373,-2.8072,-2.8648,-2.9252,-2.9768,-2.98,-3.0183,-3.0717,-3.0552,-3.0552,-3.0717,-3.0552,-3.0644,-3.0929,-2.9614,-2.9807,-3.1514,-2.8776,-2.7696,-2.8395,-2.9068,-2.8847,-2.7733,-2.7733,-2.7696,-2.7773,-2.7187,-2.7567,-2.8967,-2.9047,-2.9225,-2.9544,-2.9342,-2.903,-2.8649,-2.8263,-2.7893,-2.7728,-2.705,-2.6481,0.0,0.0,0.0,0.0,0.0,0.0,0.0,0.0,0.0,0.0,0.0,-2.4959,-2.5784,-2.6793,-2.7361,-2.7362,-2.7838,-2.837,-2.8792,-2.8663,-2.8865,-2.9764,-2.947,-2.9525,-3.0369,-3.0259,-3.0351,-3.0956,-3.1047,-3.1194,-3.1598,-3.1671,-3.1598,-3.1433,-3.1524,-3.1653,-3.1653,-3.2366,-3.2868,-3.2868,-3.2301,-3.1928,-3.1928,-3.1909,-3.1928,-3.1928,-3.1909,-3.1928,-3.1928,-3.1928,-3.1909,-3.1928,-3.1909,-3.1909,-3.1844,-3.1319,-3.0715,-3.0266,-2.9591,-2.8903,-2.2859,-2.2859,-2.2899,-2.2913,-2.2954,-2.2405,-2.2311,-2.2539,-2.3999,-2.4627,-2.4575,-2.5267,-2.6327,-2.7485,-2.6807,-2.7147,-2.8389,-2.9259,-2.9577,-2.9502,-3.1103,-3.1695,-3.1524,-3.1176,-3.1194,-3.1506,-3.1194,-3.1377,-3.199,-3.0649,-3.0775,-3.2173,-2.9626,-2.8964,-3.0215,-2.8688,-2.7451,-2.6638,-2.6543,-2.7457,-2.9457,-2.8386,-2.842,-2.978,-3.0085,-3.0291,-3.0424,-3.0075,-2.9837,-2.9727,-2.9397,-2.9012,-2.8572,-2.8865,-2.87,0.0,-2.7471,0.0,0.0,0.0,0.0,0.0,0.0,0.0,0.0,-2.5782,-2.6774,-2.7416,-2.8168,-2.8773,-2.9104,-2.9782,-3.0222,-3.0277,-3.0277,-3.0296,-3.0332,-3.0351,-3.0479,-3.0827,-3.0919,-3.1084,-3.1396,-3.1488,-3.1689,-3.2019,-3.2074,-3.1964,-3.1671,-3.1873,-3.2074,-3.2074,-3.3387,-3.4027,-3.4309,-3.3577,-3.2999,-3.3151,-3.3312,-3.3055,-3.2933,-3.2885,-3.2903,-3.2885,-3.2733,-3.2618,-3.2788,-3.277,-3.257,-3.2533,-3.2466,-3.2198,-3.1697,-3.1468,-3.1135,-2.2585,-2.2886,-2.314,-2.3233,-2.3247,-2.338,-2.318,-2.2916,-2.4313,-2.4999,-2.5164,-2.4176,-2.4094,-2.4665,-2.5597,-2.6166,-2.6526,-2.7889,-2.9069,-3.0172,-3.0596,-3.1354,-3.2349,-3.2294,-3.2294,-3.2349,-3.2276,-3.2331,-3.2478,-3.1053,-3.0685,-3.1184,-2.9523,-2.8209,-2.7423,0.0,0.0,0.0,-2.7245,-2.6663,-2.6034,-2.6078,-2.6755,-2.8178,-2.9612,0.0,-3.1606,-3.1598,-3.1231,-3.0607,-3.0479,0.0,0.0,0.0,0.0,0.0,0.0,0.0,0.0,0.0,0.0,0.0,-2.771,-2.771,-2.7234,-2.8187,-2.8957,-2.9122,-2.9562,-2.9892,-2.9965,-3.0094,-3.0332,-3.0626,-3.0681,-3.0809,-3.1102,-3.1157,-3.1194,-3.1249,-3.1561,-3.1799,-3.1873,-3.2166,-3.2386,-3.2459,-3.2478,-3.2459,-3.2386,-3.2441,-3.2478,-3.2563,-3.3121,-3.352,-3.4517,-3.4556,-3.4812,-3.5711,-3.6099,-3.5581,-3.4576,-3.4379,-3.4293,-3.4293,-3.3369,-3.3073,-3.4096,-3.3435,-3.271,-3.2606,-3.2606,-3.2551,-3.2404,-3.2368,-3.2301,-2.316,-2.3327,-2.3474,-2.3554,0.0,-2.3701,-2.3594,-2.3383,-2.4136,-2.4484,-2.4568,-2.3893,-2.4045,-2.4876,-2.5552,-2.5903,-2.6044,-2.843,-2.955,-2.9603,-3.1165,-3.1797,-3.1779,-3.2344,-3.2186,-3.1478,-3.2253,-3.2716,-3.2832,-3.137,-3.1288,-3.2295,-3.0095,-2.8593,-2.788,-2.8522,-2.9142,-2.9498,-2.8257,-2.755,-2.7407,-2.7391,-2.7391,-2.7458,-2.9727,0.0,0.0,0.0,0.0,0.0,0.0,0.0,0.0,-3.0461,-3.0277,-2.9892,-2.9489,-2.9177,-2.8975,-2.8773,-2.8755,-2.8957,-2.9525,-2.9617,-2.9012,-2.9342,-2.9806,-3.013,-3.0369,-3.0571,-3.0754,-3.0772,-3.0864,-3.1066,-3.1267,-3.1469,-3.1671,-3.1873,-3.1964,-3.1983,-3.2166,-3.2294,-3.2294,-3.2459,-3.268,-3.2863,-3.29,-3.2973,-3.3138,-3.3028,-3.336,-3.492,-3.4643,-3.5045,-3.6861,-3.6729,-3.6532,-3.7339,-3.747,-3.7209,-3.6532,-3.64,-3.64,-3.6334,-3.5739,-3.5606,-3.6004,-3.5226,-3.424,-3.4105,-3.365,-3.3193,-3.3175,-3.2881,-3.2606,-2.3781,-2.3781,-2.3834,-2.3848,-2.3848,-2.3901,-2.3915,-2.3915,-2.3808,0.0,0.0,-2.3848,-2.4575,-2.5654,-2.564,-2.5654,-2.5881,-2.9083,-2.9843,-2.8648,-3.1548,-3.2256,-3.1115,-3.1986,-3.1894,-3.0993,-3.1894,-3.2566,-3.2824,-3.134,-3.1426,-3.263,-3.043,-2.9218,-2.9186,-2.8846,-2.9352,-3.0472,-2.9017,-2.8523,-2.9177,-2.8943,-2.8344,-2.7391,-3.0021,-3.0978,-3.0035,-3.1103,-3.1634,-3.1488,-3.1488,-3.1451,-3.1377,-3.1377,-3.1377,-3.1359,-3.1011,-3.0791,-3.0772,-3.0479,-3.0332,-3.0406,-3.0772,-3.0809,-3.0351,-3.0039,-3.0167,-3.0827,-3.0882,-3.1066,-3.1451,-3.1488,-3.1524,-3.1579,-3.1909,-3.2111,-3.2129,-3.2386,-3.2551,-3.2606,-3.2643,-3.2698,-3.2716,-3.279,-3.2918,-3.323,-3.3321,-3.3569,-3.3946,-3.3966,-3.4738,-3.7058,-3.6831,-3.7159,-3.9256,-3.9213,-3.8597,-3.8929,-3.8951,-3.8729,-3.8531,-3.8465,-3.8465,-3.8381,-3.8312,-3.8092,-3.8246,-3.7206,-3.6344,-3.6276,-3.5139,-3.4283,-3.4433,-3.3626,-3.2863,-2.3781,-2.3794,-2.4035,-2.4142,-2.4168,-2.4409,-2.4516,-2.4476,-2.3995,-2.3915,-2.4142,-2.4142,-2.4348,-2.4796,-2.4796,-2.4796,-2.5016,-2.8049,-2.8638,-2.7373,-3.0293,-3.165,-3.1422,-3.1598,-3.228,-3.3149,-3.221,-3.1668,-3.1563,-3.0206,-2.9599,-2.979,-2.9417,-2.9218,-2.9202,-2.9155,-2.921,-2.9408,-2.8573,-2.7616,-2.6529,-2.6753,-2.7421,-2.8557,-3.0422,-3.1894,-3.2634,-3.2801,-3.2643,-3.1964,-3.1909,-3.1763,-3.1396,-3.1396,-3.1377,-3.1359,-3.1011,-3.0791,-3.0791,-3.0736,-3.0864,-3.1194,-3.1598,-3.1524,-3.0791,-3.0956,-3.1176,-3.1286,-3.1322,-3.1469,-3.1854,-3.1928,-3.2038,-3.2349,-3.2478,-3.2514,-3.2514,-3.2588,-3.2661,-3.2661,-3.2918,-3.3138,-3.3156,-3.3395,-3.3596,-3.3707,-3.367,-3.4139,-3.5237,-3.5578,-3.6217,-3.7647,-3.7934,-3.8465,-3.9866,-4.0127,-4.0344,-4.1527,-4.1527,-4.1055,-4.0062,-3.9932,-3.9932,-3.9932,-3.9125,-3.8861,-3.9605,-3.8729,-3.7934,-3.7734,-3.6614,-3.6005,-3.6864,-3.5375,-3.3785,-2.4235,-2.4249,-2.4382,-2.4436,-2.4462,-2.4756,-2.4877,-2.4877,-2.477,-2.4609,-2.4436,-2.4436,-2.4516,-2.4623,-2.4636,-2.4636,-2.471,-2.778,-2.8357,-2.7157,-3.0091,-3.0572,-2.929,-3.073,-3.1014,-3.0162,-3.1084,-3.1186,-3.0496,-2.9865,-2.9937,-3.0568,-2.9728,-2.9647,-3.0288,-2.8788,-2.7939,-2.7996,-2.8232,-2.7687,-2.6293,-2.7796,-2.8199,-2.736,-3.0392,-3.1957,-3.1711,-3.2476,-3.2716,-3.2349,-3.2331,-3.2239,-3.2056,-3.2038,-3.2038,-3.2038,-3.1873,-3.1763,-3.1763,-3.1763,-3.1854,-3.2019,-3.2203,-3.2184,-3.1799,-3.1928,-3.2038,-3.2038,-3.2038,-3.2111,-3.2313,-3.2331,-3.2404,-3.257,-3.279,-3.2936,-3.2955,-3.3156,-3.3248,-3.3266,-3.3413,-3.3541,-3.3541,-3.3707,-3.3817,-3.3817,-3.3817,-3.4627,-3.6702,-3.7085,-3.7601,-3.8927,-3.9256,-3.9866,-4.1077,-4.1335,-4.1678,-4.2275,-4.2275,-4.2061,-4.1399,-4.1357,-4.1357,-4.1335,-4.0732,-4.0668,-4.1293,-4.0214,-3.9408,-3.9146,-3.8067,-3.7601,-3.7734,-3.6951,-3.5753,-2.4636,-2.4636,-2.4636,-2.4676,-2.477,-2.505,-2.5184,-2.5197,-2.5411,-2.5251,-2.4877,-2.4836,-2.4836,-2.4836,-2.4836,-2.4972,-2.5626,-2.7788,-2.824,-2.751,-2.9601,-2.9384,-2.7583,-2.9961,-2.9961,-2.8094,-3.0105,-3.0539,-2.9399,-2.9357,-3.0162,-3.1365,-3.0523,-3.0392,-3.1178,-2.8454,-2.7188,-2.7537,-2.7655,-2.7331,-2.6688,-2.8535,-2.8617,-2.722,-3.0,-3.1436,-3.0685,-3.1976,-3.2698,-3.2606,-3.2606,-3.2606,-3.2606,-3.2606,-3.2606,-3.2606,-3.2606,-3.2606,-3.2606,-3.2606,-3.2606,-3.2606,-3.268,-3.2735,-3.2735,-3.2826,-3.279,-3.2643,-3.257,-3.2606,-3.2716,-3.2735,-3.2771,-3.2863,-3.3156,-3.334,-3.3376,-3.3633,-3.3817,-3.3817,-3.3817,-3.3798,-3.3835,-3.389,-3.4018,-3.411,-3.4092,-3.5168,-3.73,-3.8109,-3.8979,-4.0104,-4.0715,-4.1256,-4.2308,-4.2573,-4.2642,-4.2596,-4.2642,-4.2688,-4.2624,-4.2642,-4.2619,-4.2624,-4.2601,-4.2559,-4.2491,-4.1823,-4.1174,-4.1022,-4.0035,-3.8908,-3.8528,-3.8796,-3.7738,-2.4562,-2.4636,-2.4663,-2.4796,-2.5064,-2.5358,-2.5478,-2.5478,-2.5504,-2.5491,-2.5438,-2.5424,-2.5424,-2.5438,-2.5411,-2.6143,-2.7473,-2.7803,-2.7863,-2.7788,-2.8043,-2.7953,-2.7848,-2.9579,-3.0187,-2.9712,-3.014,-2.9563,-2.8222,-2.8222,-2.9045,-3.0457,-3.1676,-3.1569,-3.0361,-2.8399,-2.8042,-2.9404,-2.6471,-2.5597,-2.6823,-2.7084,-2.7776,-2.8893,-2.925,-2.9954,-3.0856,-3.2319,-3.2991,-3.2643,-3.2625,-3.2606,-3.2625,-3.2606,-3.2606,-3.2625,-3.2606,-3.2606,-3.2606,-3.2606,-3.2625,-3.2625,-3.2973,-3.3175,-3.3175,-3.3486,-3.3376,-3.2826,-3.2625,-3.2808,-3.3101,-3.3175,-3.3285,-3.356,-3.367,-3.3762,-3.3743,-3.378,-3.3817,-3.3817,-3.389,-3.3817,-3.3945,-3.4165,-3.4477,-3.4752,-3.477,-3.5463,-3.7302,-3.8458,-3.9778,-4.1149,-4.2191,-4.2727,-4.3074,-4.3395,-4.3487,-4.3579,-4.3625,-4.3556,-4.351,-4.3533,-4.3648,-4.3395,-4.3556,-4.3533,-4.3556,-4.3451,-4.3317,-4.2852,-4.1994,-4.0967,-4.004,-4.0451,-3.977,-2.4997,-2.5157,-2.5157,-2.5224,-2.5371,-2.5651,-2.5772,-2.5785,-2.5959,-2.6026,-2.6026,-2.6026,-2.5838,-2.5518,-2.5518,-2.5886,-2.6558,-2.7377,-2.7301,-2.671,-2.7377,-2.7815,-2.7981,-2.8492,-2.8792,-2.8867,-2.8792,-2.8597,-2.8382,-2.9154,-3.0435,-3.1762,-3.1581,-3.0875,-3.0267,-2.9548,-2.91,-2.8729,-2.8237,-2.7718,-2.7232,-2.7042,-2.7215,-2.7867,-2.8716,-2.9867,-3.1162,-3.1913,-3.2554,-3.3185,-3.3303,-3.3321,-3.3321,-3.3321,-3.3321,-3.3321,-3.3321,-3.3321,-3.3321,-3.3321,-3.3321,-3.3321,-3.3468,-3.3578,-3.3578,-3.3725,-3.3651,-3.3395,-3.3321,-3.3395,-3.3541,-3.356,-3.3651,-3.378,-3.3817,-3.3835,-3.3817,-3.4037,-3.4165,-3.4183,-3.4385,-3.4532,-3.455,-3.4678,-3.4844,-3.5009,-3.5027,-3.6048,-3.8067,-3.9089,-4.0371,-4.2393,-4.3547,-4.3765,-4.3625,-4.3648,-4.3808,-4.3831,-4.3808,-4.3808,-4.3854,-4.3808,-4.3808,-4.3831,-4.3877,-4.3877,-4.3762,-4.3808,-4.3808,-4.3722,-4.3611,-4.2727,-4.2171,-4.2505,-4.1727,-2.5317,-2.5518,-2.5598,-2.5625,-2.5665,-2.5959,-2.6079,-2.6092,-2.6293,-2.64,-2.64,-2.64,-2.6159,-2.5785,-2.5758,-2.5976,-2.6501,-2.7115,-2.7115,-2.6501,-2.7191,-2.7497,-2.7559,-2.794,-2.7926,-2.7788,-2.8473,-2.8957,-2.932,-3.0251,-3.1464,-3.2334,-3.128,-3.0777,-3.1151,-3.0473,-2.9738,-2.9438,-2.9361,-2.8447,-2.7554,-2.732,-2.7334,-2.7608,-2.8573,-2.9932,-3.1437,-3.1877,-3.2648,-3.3747,-3.3817,-3.3817,-3.3817,-3.3817,-3.3817,-3.3817,-3.3817,-3.3817,-3.3817,-3.3817,-3.3817,-3.3817,-3.389,-3.3982,-3.4,-3.4073,-3.4147,-3.4147,-3.4147,-3.4092,-3.3835,-3.3908,-3.3963,-3.3982,-3.4055,-3.4147,-3.4183,-3.4422,-3.4568,-3.4605,-3.4788,-3.5082,-3.5227,-3.5534,-3.5949,-3.608,-3.6512,-3.7171,-3.9318,-4.0174,-4.1298,-4.3264,-4.4231,-4.4566,-4.4153,-4.4245,-4.4199,-4.4245,-4.4313,-4.4336,-4.4222,-4.4245,-4.4245,-4.452,-4.4313,-4.4267,-4.4428,-4.4336,-4.4222,-4.4222,-4.4222,-4.4155,-4.4026,-4.4201,-4.3845,-2.5504,-2.5571,-2.5825,-2.5932,-2.6037,-2.6239,-2.636,-2.6346,-2.6386,-2.64,-2.64,-2.64,-2.6373,-2.6319,-2.6293,-2.7185,-2.8253,-2.7158,-2.7222,-2.8146,-2.7158,-2.6491,-2.6583,-2.8047,-2.8033,-2.7116,-2.9406,-3.0822,-3.1022,-3.1115,-3.1268,-3.1344,-3.1204,-3.1999,-3.2617,-3.0296,-3.0004,-3.1645,-2.8323,-2.6496,-2.7589,-2.7786,-2.8207,-2.8985,-2.9147,-2.9981,-3.1472,-3.2893,-3.3696,-3.3835,-3.3872,-3.3853,-3.3853,-3.3853,-3.3872,-3.3853,-3.3853,-3.3853,-3.3872,-3.389,-3.3872,-3.389,-3.4202,-3.4367,-3.4403,-3.4678,-3.4844,-3.4935,-3.4862,-3.4605,-3.4055,-3.422,-3.4367,-3.4403,-3.4715,-3.4899,-3.4935,-3.4935,-3.499,-3.5009,-3.5082,-3.5356,-3.5632,-3.6865,-3.774,-3.8314,-3.9481,-4.0442,-4.0734,-4.1946,-4.2783,-4.3407,-4.4345,-4.514,-4.4727,-4.4773,-4.5139,-4.5071,-4.4956,-4.5163,-4.5323,-4.5369,-4.53,-4.5254,-4.5071,-4.5139,-4.53,-4.53,-4.5208,-4.5162,-4.5116,-4.5071,-4.4887,-4.5231,-4.4914,-2.5905,-2.6079,-2.6186,-2.6226,-2.6253,-2.6346,-2.64,-2.64,-2.64,-2.64,-2.64,-2.64,-2.64,-2.64,-2.64,-2.6702,-2.724,-2.6623,-2.6781,-2.724,-2.6702,-2.7004,-2.7933,-2.7619,-2.7698,-2.8168,-2.9231,-3.03,-3.1069,-3.03,-2.9774,-3.0006,-3.0839,-3.1146,-3.09,-3.1494,-3.1506,-3.0345,-2.8487,-2.7354,-2.6724,-2.671,-2.769,-2.9786,-2.9959,-3.0689,-3.2227,-3.282,-3.3554,-3.4516,-3.4587,-3.4587,-3.4587,-3.4587,-3.4587,-3.4587,-3.4587,-3.4587,-3.4587,-3.4587,-3.4587,-3.4605,-3.4715,-3.4807,-3.4825,-3.4935,-3.5027,-3.5045,-3.5027,-3.4844,-3.4715,-3.4733,-3.4807,-3.4825,-3.4935,-3.5064,-3.5082,-3.5247,-3.5412,-3.5449,-3.5614,-3.6201,-3.7042,-3.7919,-3.8701,-3.9757,-4.0443,-4.1247,-4.2095,-4.2818,-4.3445,-4.4366,-4.5006,-4.5369,-4.5163,-4.5277,-4.5415,-4.5415,-4.5392,-4.5369,-4.5415,-4.5415,-4.5346,-4.5346,-4.5415,-4.5438,-4.5392,-4.5708,-4.5686,-4.5438,-4.5438,-4.5642,-4.5438,-4.5438,-4.5438,-2.6213,-2.6373,-2.64,-2.64,-2.64,-2.64,-2.64,-2.64,-2.64,-2.644,-2.6507,-2.6533,-2.6573,-2.664,-2.6573,-2.6533,-2.652,-2.644,-2.64,-2.64,-2.64,-2.7004,-2.7776,-2.6925,-2.7319,-2.8778,-2.9464,-3.0083,-3.0392,-2.9928,-2.9696,-2.9774,-3.0839,-3.1069,-3.0777,-3.1759,-3.1008,-2.9168,-2.8403,-2.7351,-2.6262,-2.6703,-2.7831,-2.9669,-3.09,-3.2124,-3.3401,-3.3474,-3.3909,-3.4811,-3.5027,-3.5027,-3.5027,-3.5027,-3.5027,-3.5027,-3.5027,-3.5027,-3.5027,-3.5027,-3.5027,-3.5045,-3.5155,-3.521,-3.5156,-3.5339,-3.5412,-3.5412,-3.5412,-3.5412,-3.5412,-3.5412,-3.5357,-3.5284,-3.5339,-3.5412,-3.5412,-3.565,-3.5797,-3.5834,-3.5999,-3.6664,-3.7585,-3.8151,-3.9149,-4.0586,-4.1155,-4.2165,-4.3445,-4.3883,-4.409,-4.5142,-4.5301,-4.5438,-4.5369,-4.5392,-4.5438,-4.5438,-4.5438,-4.5438,-4.5461,-4.5438,-4.5461,-4.5461,-4.5461,-4.5438,-4.5642,-4.6025,-4.598,-4.5665,-4.5754,-4.6092,-4.5754,-4.5438,-4.5461,-2.6386,-2.64,-2.64,-2.64,-2.64,-2.6426,-2.6413,-2.6426,-2.644,-2.6613,-2.6814,-2.6827,-2.6961,-2.7121,-2.6921,-2.6827,-2.6787,-2.6746,-2.6598,-2.64,-2.6544,-2.6544,-2.6623,-2.6465,-2.7319,-2.8934,-3.0392,-3.0392,-2.9386,-3.03,-3.0839,-3.1069,-3.1146,-3.1606,-3.3297,-3.0469,-2.909,-2.8466,-2.7319,-2.6531,-2.6544,-2.767,-2.8642,-2.9404,-3.1847,-3.3821,-3.492,-3.4956,-3.4993,-3.5047,-3.51,-3.5064,-3.5137,-3.5137,-3.5082,-3.5137,-3.5082,-3.5064,-3.5082,-3.5119,-3.5174,-3.5192,-3.543,-3.5614,-3.5669,-3.5907,-3.6091,-3.6072,-3.6091,-3.6127,-3.6109,-3.6091,-3.5962,-3.5724,-3.5889,-3.6054,-3.6109,-3.6164,-3.6182,-3.6164,-3.6201,-3.6201,-3.6645,-3.7859,-3.9438,-4.0871,-4.2236,-4.3514,-4.4709,-4.5006,-4.5278,-4.537,-4.5438,-4.5438,-4.5438,-4.5438,-4.5461,-4.5461,-4.5438,-4.5438,-4.5484,-4.5507,-4.5895,-4.6009,-4.6784,-4.6784,-4.7035,-4.7373,-4.7143,-4.6917,-4.6843,-4.6596,-4.617,-4.5829,-4.553,-2.64,-2.64,-2.64,-2.64,-2.6426,-2.66,-2.6694,-2.6707,-2.6894,-2.7041,-2.7121,-2.7134,-2.7188,-2.7241,-2.7161,-2.7134,-2.7284,-2.8211,-2.796,-2.6849,-2.7555,-2.7476,-2.6544,-2.6386,-2.724,-2.87,-2.9386,-3.0006,-3.03,-3.0006,-2.9619,-2.9774,-3.0762,-3.03,-2.9153,-2.8778,-2.8388,-2.724,-2.6702,-2.6386,-2.6386,-2.6925,-2.8232,-3.0392,-3.1606,-3.3162,-3.5631,-3.5834,-3.5834,-3.5815,-3.5834,-3.5834,-3.5834,-3.5834,-3.5852,-3.5852,-3.5852,-3.5834,-3.5834,-3.5834,-3.5815,-3.5852,-3.5962,-3.6017,-3.6017,-3.6127,-3.6201,-3.6201,-3.6201,-3.6201,-3.6201,-3.6201,-3.6146,-3.6036,-3.6127,-3.6201,-3.6201,-3.6201,-3.6201,-3.6201,-3.6201,-3.6627,-3.7712,-3.9004,-4.03,-4.1954,-4.3445,-4.4709,-4.521,-4.5438,-4.5438,-4.5438,-4.5438,-4.5507,-4.5484,-4.5622,-4.5806,-4.5783,-4.5645,-4.5714,-4.5714,-4.5783,-4.6172,-4.6857,-4.7658,-4.8228,-4.8479,-4.8816,-4.8743,-4.8232,-4.8008,-4.7416,-4.6612,-4.6196,-4.6036,-2.64,-2.64,-2.6507,-2.6547,-2.6587,-2.6867,-2.6987,-2.7014,-2.7188,-2.7321,-2.7415,-2.7428,-2.7495,-2.7631,-2.7482,-2.7825,-2.8453,-2.9477,-2.9042,-2.7904,-2.8525,-2.8139,-2.6716,-2.7083,-2.7776,-2.8856,-2.9541,-3.0006,-3.0392,-3.0623,-3.0469,-3.016,-3.0839,-3.0454,-2.831,-2.8544,-2.831,-2.7476,-2.7398,-2.7004,-2.6702,-2.7004,-2.831,-3.0222,-3.1529,-3.3222,-3.5214,-3.5829,-3.6201,-3.6201,-3.6201,-3.6201,-3.6201,-3.6182,-3.6201,-3.6201,-3.6201,-3.6182,-3.6201,-3.6164,-3.6201,-3.6201,-3.6201,-3.6201,-3.6201,-3.6201,-3.6201,-3.6201,-3.6201,-3.6201,-3.6201,-3.6201,-3.6274,-3.6421,-3.6292,-3.6219,-3.6201,-3.6201,-3.6201,-3.6201,-3.6201,-3.6719,-3.7639,-3.837,-4.0013,-4.1813,-4.3075,-4.4503,-4.4869,-4.5438,-4.5461,-4.553,-4.5599,-4.5668,-4.5668,-4.5852,-4.6104,-4.6081,-4.6012,-4.6058,-4.6104,-4.6334,-4.6588,-4.7693,-4.8632,-4.9174,-4.9493,-5.0797,-5.1129,-5.0302,-4.9201,-4.846,-4.7767,-4.6843,-4.6472,-2.64,-2.6426,-2.6694,-2.68,-2.6841,-2.7148,-2.7295,-2.7295,-2.7348,-2.7509,-2.7682,-2.7722,-2.7856,-2.81,-2.7816,-2.8538,-3.003,-2.9908,-2.9829,-2.9683,-2.9798,-2.8914,-2.7341,-2.8482,-2.9345,-2.9613,-3.0624,-3.067,-3.033,-3.2173,-3.2994,-3.1606,-3.1606,-3.1376,-3.0685,-2.9696,-2.909,-2.87,-2.87,-2.8011,-2.6847,-2.8011,-2.9168,-2.9619,-3.2157,-3.3827,-3.4521,-3.5587,-3.6201,-3.6201,-3.6201,-3.6201,-3.6201,-3.6201,-3.6201,-3.6201,-3.6201,-3.6201,-3.6201,-3.6201,-3.6201,-3.6201,-3.6201,-3.6201,-3.6201,-3.6201,-3.6201,-3.6201,-3.6201,-3.6201,-3.6201,-3.6274,-3.6457,-3.6751,-3.6604,-3.6421,-3.6311,-3.6329,-3.6421,-3.6366,-3.6292,-3.6256,-3.659,-3.6701,-3.8297,-4.0157,-4.1389,-4.2958,-4.4707,-4.5553,-4.553,-4.5737,-4.6012,-4.6081,-4.6173,-4.6265,-4.6518,-4.6724,-4.6609,-4.6564,-4.6726,-4.6957,-4.7539,-4.8562,-4.9523,-5.0044,-5.0929,-5.22,-5.2425,-5.1337,-5.045,-4.9704,-4.8789,-4.7773,-4.6978,-2.64,-2.6426,-2.6707,-2.6827,-2.6894,-2.7362,-2.7589,-2.7615,-2.7816,-2.8006,-2.81,-2.81,-2.814,-2.8207,-2.8154,-2.9021,-3.0364,-3.0457,-3.0378,-3.0432,-3.1638,-3.0831,-2.9632,-3.0673,-3.1433,-3.1543,-3.1714,-3.2085,-3.2934,-3.3542,-3.3634,-3.3146,-3.2994,-3.2446,-3.1376,-3.0916,-3.0006,-2.909,-2.8934,-2.8856,-2.8466,-2.87,-3.016,-3.2462,-3.3373,-3.4446,-3.5363,-3.5978,-3.6201,-3.6201,-3.6201,-3.6201,-3.6201,-3.6201,-3.6201,-3.6201,-3.6201,-3.6201,-3.6201,-3.6201,-3.6201,-3.6201,-3.6201,-3.6201,-3.6201,-3.6201,-3.6201,-3.6201,-3.6201,-3.6219,-3.6256,-3.6512,-3.6842,-3.7173,-3.7154,-3.7081,-3.7062,-3.7118,-3.7099,-3.7081,-3.6842,-3.6696,-3.6904,-3.7462,-3.8667,-4.0525,-4.199,-4.3202,-4.5185,-4.5921,-4.5944,-4.6334,-4.6632,-4.6655,-4.6701,-4.677,-4.6954,-4.7321,-4.7298,-4.7138,-4.742,-4.7795,-4.8615,-4.9698,-5.0575,-5.1215,-5.2412,-5.3654,-5.3013,-5.2083,-5.1382,-5.0482,-4.9555,-4.8614,-4.7742,-2.6453,-2.6587,-2.6881,-2.7081,-2.7241,-2.7682,-2.7883,-2.7909,-2.814,-2.8234,-2.8234,-2.8234,-2.8234,-2.8234,-2.8221,-2.9635,-3.152,-3.0372,-3.0422,-3.1838,-3.2673,-3.2648,-3.2221,-3.2602,-3.2839,-3.3533,-3.3257,-3.372,-3.4505,-3.49,-3.4708,-3.4067,-3.3912,-3.3297,-3.2522,-3.2293,-3.1928,-3.1162,-3.0931,-3.07,-3.0006,-3.0608,-3.1759,-3.3676,-3.4371,-3.5363,-3.6126,-3.6201,-3.6201,-3.6201,-3.6201,-3.6201,-3.6201,-3.6201,-3.6201,-3.6201,-3.6201,-3.6201,-3.6201,-3.6201,-3.6201,-3.6201,-3.6201,-3.6201,-3.6201,-3.6201,-3.6201,-3.6201,-3.6201,-3.6292,-3.6549,-3.6989,-3.7393,-3.7649,-3.7833,-3.7778,-3.7484,-3.7393,-3.7411,-3.7374,-3.7246,-3.7385,-3.7896,-3.868,-4.0184,-4.1905,-4.3185,-4.4542,-4.6008,-4.6286,-4.6541,-4.6862,-4.716,-4.7183,-4.7298,-4.739,-4.7459,-4.7803,-4.7826,-4.7689,-4.7857,-4.8332,-4.8944,-4.9914,-5.1254,-5.2347,-5.3035,-5.3538,-5.307,-5.2285,-5.1767,-5.0998,-4.9914,-4.8939,-4.818,-2.656,-2.6854,-2.7134,-2.7428,-2.7696,-2.8003,-2.8194,-2.8221,-2.8221,-2.8234,-2.8234,-2.8234,-2.8234,-2.8234,-2.8642,-3.0205,-3.2741,-3.0122,-3.1022,-3.2448,-3.3725,-3.4193,-3.5049,-3.3796,-3.4192,-3.5182,-3.5236,-3.5184,-3.5659,-3.6453,-3.6008,-3.5105,-3.4446,-3.4197,-3.407,-3.407,-3.3995,-3.3449,-3.3222,-3.269,-3.1912,-3.2598,-3.3524,-3.4296,-3.5288,-3.5903,-3.6126,-3.6201,-3.6201,-3.6201,-3.6201,-3.6201,-3.6201,-3.6201,-3.6201,-3.6201,-3.6201,-3.6201,-3.6201,-3.6201,-3.6201,-3.6201,-3.6201,-3.6201,-3.6201,-3.6201,-3.6201,-3.6201,-3.6237,-3.6549,-3.7007,-3.7613,-3.7924,-3.8089,-3.8401,-3.8158,-3.7778,-3.7558,-3.7558,-3.7521,-3.7616,-3.8538,-3.943,-4.0275,-4.1164,-4.3098,-4.4211,-4.5128,-4.6229,-4.6883,-4.7069,-4.7252,-4.7505,-4.7712,-4.7872,-4.8033,-4.8125,-4.8263,-4.8217,-4.8148,-4.8125,-4.8508,-4.8961,-4.97,-5.0553,-5.1443,-5.2208,-5.2485,-5.2416,-5.2208,-5.1443,-5.0741,-4.9961,-4.9031,-4.8171,-2.656,-2.6841,-2.7148,-2.7428,-2.7722,-2.81,-2.8234,-2.8234,-2.8234,-2.8234,-2.8234,-2.8234,-2.8234,-2.8221,-2.9467,-3.0788,-3.1437,-3.0622,-3.152,-3.3233,-3.4944,-3.6281,-3.7126,-3.5943,-3.6234,-3.7054,-3.6018,-3.6053,-3.7078,-3.7099,-3.6983,-3.633,-3.5977,-3.5987,-3.5659,-3.5456,-3.4989,-3.407,-3.3827,-3.3751,-3.3449,-3.3676,-3.4521,-3.5438,-3.5978,-3.6126,-3.6201,-3.6201,-3.6201,-3.6201,-3.6201,-3.6201,-3.6201,-3.6201,-3.6201,-3.6201,-3.6201,-3.6201,-3.6201,-3.6201,-3.6201,-3.6201,-3.6201,-3.6201,-3.6201,-3.6201,-3.6201,-3.6274,-3.6512,-3.6952,-3.7576,-3.7869,-3.8163,-3.842,-3.8548,-3.8505,-3.842,-3.8365,-3.831,-3.8411,-3.9045,-3.9931,-4.0369,-4.1298,-4.2511,-4.4156,-4.5058,-4.56,-4.6446,-4.7388,-4.7574,-4.7712,-4.7849,-4.8033,-4.8102,-4.824,-4.8308,-4.8377,-4.8377,-4.8377,-4.8377,-4.8377,-4.874,-4.915,-4.9652,-5.0482,-5.1303,-5.1513,-5.1513,-5.1303,-5.1022,-5.034,-4.958,-4.8812,-4.8377,-2.664,-2.7041,-2.7201,-2.7509,-2.7896,-2.8154,-2.8234,-2.8234,-2.8234,-2.8234,-2.8234,-2.8234,-2.8234,-2.8389,-2.9955,-3.0788,-3.1037,-3.1685,-3.2494,-3.3724,-3.5187,-3.6912,-3.8225,-3.7809,-3.7809,-3.8365,-3.7532,-3.7582,-3.7964,-3.7906,-3.7594,-3.7338,-3.6968,-3.6582,-3.6476,-3.6311,-3.5754,-3.5214,-3.4896,-3.4914,-3.4896,-3.4971,-3.5139,-3.6052,-3.6201,-3.6201,-3.6201,-3.6201,-3.6201,-3.6201,-3.6201,-3.6201,-3.6201,-3.6201,-3.6201,-3.6201,-3.6201,-3.6201,-3.6201,-3.6201,-3.6201,-3.6201,-3.6201,-3.6201,-3.6201,-3.6201,-3.6329,-3.6476,-3.6751,-3.7154,-3.7906,-3.8255,-3.8438,-3.8548,-3.864,-3.864,-3.864,-3.864,-3.864,-3.8682,-3.903,-3.9872,-4.0721,-4.2188,-4.3552,-4.5165,-4.6563,-4.711,-4.7227,-4.801,-4.8056,-4.8171,-4.8263,-4.8331,-4.8331,-4.8354,-4.8354,-4.8377,-4.8377,-4.8377,-4.8377,-4.8377,-4.845,-4.8812,-4.915,-4.958,-5.0269,-5.0411,-5.0553,-5.0482,-5.0198,-4.9652,-4.915,-4.8595,-4.8377,-2.6774,-2.735,-2.7308,-2.7642,-2.8181,-2.8221,-2.8234,-2.8234,-2.8234,-2.8234,-2.8305,-2.8389,-2.8894,-2.9132,-3.1022,-3.1602,-3.2015,-3.2494,-3.3397,-3.4294,-3.5931,-3.7312,-3.8322,-3.8481,-3.8402,-3.856,-3.8347,-3.8524,-3.8414,-3.8291,-3.8034,-3.7888,-3.7393,-3.7007,-3.6712,-3.6512,-3.6218,-3.5921,-3.5903,-3.5978,-3.5978,-3.5978,-3.6052,-3.6126,-3.6201,-3.6201,-3.6201,-3.6201,-3.6201,-3.6201,-3.6201,-3.6201,-3.6201,-3.6201,-3.6201,-3.6201,-3.6201,-3.6201,-3.6201,-3.6201,-3.6201,-3.6201,-3.6201,-3.6256,-3.6292,-3.6384,-3.6567,-3.6824,-3.7099,-3.7411,-3.8034,-3.8383,-3.8585,-3.864,-3.864,-3.864,-3.864,-3.864,-3.864,-3.8719,-3.9867,-4.1112,-4.2112,-4.3455,-4.4785,-4.6085,-4.7457,-4.8377,-4.8377,-4.8377,-4.8354,-4.8354,-4.8377,-4.8377,-4.8377,-4.8377,-4.8377,-4.8377,-4.8377,-4.8377,-4.8377,-4.8377,-4.8377,-4.8377,-4.874,-4.915,-4.9293,-4.9293,-4.9437,-4.958,-4.9437,-4.9029,-4.8667,-4.845,-4.8377,-2.6961,-2.7281,-2.7522,-2.7829,-2.8194,-2.8234,-2.8234,-2.8234,-2.8234,-2.8234,-2.8389,-2.9621,-3.0205,-3.1022,-3.3789,-3.5025,-3.4538,-3.4034,-3.4132,-3.543,-3.7072,-3.8322,-3.8481,-3.864,-3.864,-3.864,-3.864,-3.864,-3.864,-3.8487,-3.8346,-3.8053,-3.7851,-3.7503,-3.7044,-3.6732,-3.6512,-3.6311,-3.6237,-3.6201,-3.6201,-3.6201,-3.6201,-3.6201,-3.6201,-3.6201,-3.6201,-3.6201,-3.6201,-3.6201,-3.6201,-3.6201,-3.6201,-3.6201,-3.6201,-3.6201,-3.6201,-3.6201,-3.6201,-3.6237,-3.6219,-3.6201,-3.6274,-3.6439,-3.6622,-3.6751,-3.6934,-3.7283,-3.7631,-3.7998,-3.8396,-3.8524,-3.8542,-3.864,-3.864,-3.864,-3.864,-3.864,-3.864,-3.8719,-4.0608,-4.2136,-4.2443,-4.3511,-4.517,-4.6233,-4.7457,-4.8232,-4.8377,-4.8377,-4.8377,-4.8377,-4.8377,-4.8377,-4.8377,-4.8377,-4.8377,-4.8377,-4.8377,-4.8377,-4.8377,-4.8377,-4.8377,-4.8377,-4.8377,-4.8595,-4.8595,-4.8523,-4.8595,-4.8933,-4.8667,-4.8377,-4.8377,-4.8377,-4.8377,-2.7001,-2.7363,-2.7575,-2.7869,-2.8194,-2.8234,-2.8234,-2.8234,-2.8234,-2.8234,-2.8726,-2.9955,-3.0788,-3.1685,-3.4457,-3.5994,-3.5591,-3.4197,-3.4441,-3.6075,-3.7729,-3.864,-3.864,-3.864,-3.864,-3.864,-3.864,-3.864,-3.864,-3.856,-3.8511,-3.8346,-3.8144,-3.7796,-3.7411,-3.7026,-3.6712,-3.6531,-3.6347,-3.6201,-3.6201,-3.6201,-3.6201,-3.6201,-3.6201,-3.6201,-3.6201,-3.6201,-3.6201,-3.6201,-3.6201,-3.6201,-3.6219,-3.6219,-3.6219,-3.6237,-3.6219,-3.6219,-3.6274,-3.6366,-3.6549,-3.6567,-3.6696,-3.6897,-3.7062,-3.7173,-3.7338,-3.7704,-3.8089,-3.842,-3.8524,-3.864,-3.864,-3.864,-3.864,-3.864,-3.864,-3.864,-3.8719,-3.8798,-3.9707,-4.0608,-4.0919,-4.2519,-4.4945,-4.6477,-4.7479,-4.8013,-4.8305,-4.8377,-4.8377,-4.8377,-4.8377,-4.8377,-4.8377,-4.8377,-4.8377,-4.8377,-4.8377,-4.8377,-4.8377,-4.8377,-4.8377,-4.8377,-4.8377,-4.8377,-4.8377,-4.845,-4.8377,-4.8377,-4.8377,-4.8377,-4.8377,-4.8377,-4.8377,-2.7054,-2.7295,-2.7642,-2.7923,-2.8207,-2.8234,-2.8234,-2.8234,-2.8234,-2.8234,-2.8473,-3.0372,-3.1437,-3.218,-3.4294,-3.6155,-3.6253,-3.4782,-3.5106,-3.6654,-3.7906,-3.864,-3.864,-3.864,-3.864,-3.864,-3.864,-3.864,-3.864,-3.864,-3.864,-3.853,-3.8255,-3.8071,-3.7851,-3.7429,-3.7041,-3.6767,-3.6549,-3.6329,-3.6219,-3.6201,-3.6201,-3.6201,-3.6201,-3.6201,-3.6201,-3.6201,-3.6201,-3.6237,-3.6292,-3.6347,-3.6366,-3.6421,-3.6457,-3.6439,-3.6384,-3.6366,-3.6549,-3.6732,-3.6952,-3.6952,-3.7228,-3.7411,-3.7594,-3.7668,-3.7833,-3.8126,-3.8383,-3.8603,-3.856,-3.864,-3.864,-3.864,-3.864,-3.864,-3.8798,-3.8956,-3.9411,-3.9411,-3.9333,-3.9864,-4.0783,-4.2749,-4.5394,-4.5766,-4.6773,-4.7772,-4.8086,-4.8377,-4.8377,-4.8377,-4.8377,-4.8377,-4.8377,-4.8377,-4.8377,-4.8377,-4.8377,-4.8377,-4.8377,-4.8377,-4.8377,-4.8377,-4.8377,-4.8377,-4.8377,-4.8377,-4.8377,-4.8377,-4.8377,-4.8377,-4.8377,-4.8377,-4.8377,-2.7241,-2.7308,-2.7856,-2.8207,-2.8221,-2.8234,-2.8234,-2.8234,-2.8234,-2.8234,-2.8389,-3.1437,-3.2823,-3.3626,-3.5025,-3.6815,-3.7232,-3.6414,-3.6333,-3.7809,-3.8402,-3.864,-3.864,-3.864,-3.864,-3.864,-3.864,-3.864,-3.864,-3.864,-3.864,-3.8603,-3.8548,-3.8401,-3.8089,-3.7833,-3.7704,-3.7356,-3.6971,-3.6604,-3.6329,-3.6274,-3.6292,-3.6274,-3.6274,-3.6311,-3.6366,-3.6366,-3.6329,-3.6347,-3.6604,-3.6751,-3.6824,-3.7118,-3.7246,-3.7173,-3.7026,-3.6897,-3.7154,-3.7283,-3.7356,-3.7374,-3.7484,-3.7631,-3.7888,-3.8218,-3.8401,-3.8451,-3.856,-3.864,-3.864,-3.864,-3.864,-3.864,-3.864,-3.8719,-3.8877,-3.9114,-3.9569,-4.1016,-4.1152,-4.1152,-4.1539,-4.3739,-4.5788,-4.5841,-4.6159,-4.7163,-4.7918,-4.8232,-4.8377,-4.8377,-4.8377,-4.8377,-4.8377,-4.8377,-4.8377,-4.8377,-4.8377,-4.8377,-4.8377,-4.8377,-4.8377,-4.8377,-4.8377,-4.8377,-4.8377,-4.8377,-4.8377,-4.8377,-4.8377,-4.8377,-4.8377,-4.8377,-4.8377,-2.735,-2.7321,-2.7896,-2.8234,-2.8234,-2.8234,-2.8234,-2.8234,-2.8234,-2.8234,-2.8642,-3.0773,-3.2905,-3.4701,-3.5753,-3.6912,-3.7906,-3.6815,-3.6992,-3.8304,-3.864,-3.864,-3.864,-3.864,-3.864,-3.864,-3.864,-3.864,-3.864,-3.864,-3.864,-3.864,-3.864,-3.8566,-3.831,-3.8126,-3.7943,-3.7686,-3.7393,-3.7099,-3.6934,-3.6879,-3.6879,-3.6879,-3.6861,-3.6861,-3.6861,-3.6897,-3.6897,-3.6934,-3.7118,-3.7173,-3.7191,-3.7338,-3.7484,-3.7741,-3.7613,-3.7484,-3.7448,-3.7649,-3.7741,-3.7833,-3.7943,-3.8218,-3.8383,-3.8511,-3.864,-3.856,-3.864,-3.864,-3.864,-3.864,-3.864,-3.864,-3.864,-3.9175,-3.9333,-3.9254,-3.9864,-4.1539,-4.3034,-4.2978,-4.3055,-4.4645,-4.6011,-4.5915,-4.6455,-4.753,-4.8086,-4.8305,-4.8377,-4.8377,-4.8377,-4.8377,-4.8377,-4.8377,-4.8377,-4.8377,-4.8377,-4.8377,-4.8377,-4.8377,-4.8377,-4.8377,-4.8377,-4.8377,-4.8377,-4.8377,-4.8377,-4.8377,-4.8377,-4.8377,-4.8377,-4.8377,-4.8377,-2.735,-2.7321,-2.7896,-2.8234,-2.8234,-2.8234,-2.8234,-2.8234,-2.8234,-2.8234,-2.8796,-3.0607,-3.3479,-3.5833,-3.6333,-3.6912,-3.8402,-3.6815,-3.7232,-3.8066,-3.864,-3.864,-3.864,-3.864,-3.864,-3.864,-3.864,-3.864,-3.864,-3.864,-3.864,-3.864,-3.864,-3.8621,-3.8487,-3.8365,-3.8144,-3.7943,-3.7704,-3.7503,-3.7393,-3.7374,-3.7374,-3.7316,-3.7352,-3.7429,-3.7352,-3.7393,-3.7393,-3.7374,-3.7503,-3.7576,-3.7594,-3.7759,-3.7924,-3.8126,-3.8126,-3.8034,-3.7961,-3.8034,-3.8144,-3.8273,-3.8383,-3.8548,-3.8585,-3.864,-3.864,-3.864,-3.864,-3.864,-3.864,-3.864,-3.864,-3.864,-3.864,-3.949,-4.0118,-3.9883,-4.0471,-4.2366,-4.3794,-4.4795,-4.5095,-4.5937,-4.6381,-4.6159,-4.6847,-4.7845,-4.8232,-4.8377,-4.8377,-4.8377,-4.8377,-4.8377,-4.8377,-4.8377,-4.8377,-4.8377,-4.8377,-4.8377,-4.8377,-4.8377,-4.8377,-4.8377,-4.8377,-4.8377,-4.8377,-4.8377,-4.8377,-4.8377,-4.8377,-4.8377,-4.8377,-4.8377,-4.8377,-2.735,-2.7308,-2.798,-2.8234,-2.8234,-2.8234,-2.8234,-2.8234,-2.8234,-2.8305,-2.888,-3.167,-3.4863,-3.7072,-3.6815,-3.7072,-3.8402,-3.6735,-3.7312,-3.8145,-3.864,-3.864,-3.864,-3.864,-3.864,-3.864,-3.864,-3.864,-3.864,-3.864,-3.864,-3.864,-3.864,-3.864,-3.8621,-3.853,-3.8346,-3.8163,-3.7998,-3.7814,-3.7649,-3.7539,-3.7539,-3.7503,-3.7466,-3.7429,-3.7448,-3.7462,-3.7576,-3.7594,-3.7833,-3.7961,-3.8034,-3.8218,-3.8401,-3.8456,-3.8493,-3.8438,-3.842,-3.842,-3.8548,-3.8603,-3.8621,-3.864,-3.864,-3.864,-3.864,-3.864,-3.864,-3.864,-3.864,-3.864,-3.864,-3.864,-3.8719,-3.9175,-3.9883,-4.0256,-4.1094,-4.311,-4.4323,-4.5095,-4.6477,-4.7163,-4.709,-4.692,-4.6773,-4.7772,-4.8232,-4.8377,-4.8377,-4.8377,-4.8377,-4.8377,-4.8377,-4.8377,-4.8377,-4.8377,-4.8377,-4.8377,-4.8377,-4.8377,-4.8377,-4.8377,-4.8377,-4.8377,-4.8377,-4.8377,-4.8377,-4.8377,-4.8377,-4.8377,-4.8377,-4.8377,-4.8377,-2.7375,-2.7575,-2.806,-2.8234,-2.8234,-2.8234,-2.8234,-2.8234,-2.8221,-2.8894,-2.9955,-3.233,-3.4132,-3.5447,-3.7312,-3.7232,-3.7232,-3.7649,-3.7986,-3.8304,-3.864,-3.864,-3.864,-3.864,-3.864,-3.864,-3.864,-3.864,-3.864,-3.864,-3.864,-3.864,-3.864,-3.864,-3.864,-3.864,-3.853,-3.8456,-3.8383,-3.8291,-3.8236,-3.8181,-3.8103,-3.8181,-3.8181,-3.8181,-3.8199,-3.8103,-3.8181,-3.8199,-3.831,-3.8346,-3.8365,-3.8566,-3.8621,-3.864,-3.864,-3.864,-3.864,-3.864,-3.864,-3.864,-3.864,-3.864,-3.864,-3.864,-3.864,-3.864,-3.864,-3.864,-3.864,-3.864,-3.864,-3.864,-3.8798,-3.9114,-3.9569,-4.0021,-4.1539,-4.3566,-4.4398,-4.5095,-4.6625,-4.8232,-4.7918,-4.7626,-4.7552,-4.7626,-4.8086,-4.8377,-4.8377,-4.8377,-4.8377,-4.8377,-4.8377,-4.8377,-4.8377,-4.8377,-4.8377,-4.8377,-4.8377,-4.8377,-4.8377,-4.8377,-4.8377,-4.8377,-4.8377,-4.8377,-4.8377,-4.8377,-4.8377,-4.8377,-4.8377,-4.8377,-4.8377,-2.7388,-2.7602,-2.7976,-2.8234,-2.8234,-2.8234,-2.8234,-2.8234,-2.8234,-2.9551,-3.1602,-3.2905,-3.3724,-3.4782,-3.6333,-3.7152,-3.6574,-3.7072,-3.7986,-3.8402,-3.864,-3.864,-3.864,-3.864,-3.864,-3.864,-3.864,-3.864,-3.864,-3.864,-3.864,-3.864,-3.864,-3.864,-3.864,-3.864,-3.864,-3.864,-3.864,-3.864,-3.8524,-3.8524,-3.8524,-3.8505,-3.8566,-3.8548,-3.8548,-3.8511,-3.8548,-3.8548,-3.8603,-3.8621,-3.864,-3.864,-3.864,-3.864,-3.864,-3.864,-3.864,-3.864,-3.864,-3.864,-3.864,-3.864,-3.864,-3.864,-3.864,-3.864,-3.864,-3.864,-3.864,-3.864,-3.864,-3.864,-3.864,-3.8877,-3.9411,-4.0021,-4.2059,-4.4021,-4.4699,-4.5543,-4.6847,-4.8377,-4.8305,-4.8013,-4.8013,-4.7991,-4.8159,-4.8377,-4.8377,-4.8377,-4.8377,-4.8377,-4.8377,-4.8377,-4.8377,-4.8377,-4.8377,-4.8377,-4.8377,-4.8377,-4.8377,-4.8377,-4.8377,-4.8377,-4.8377,-4.8377,-4.8377,-4.8377,-4.8377,-4.8377,-4.8377,-4.8377,-4.8377,-2.7268,-2.743,-2.798,-2.8221,-2.8221,-2.8234,-2.8234,-2.8234,-2.8221,-3.0038,-3.2823,-3.3397,-3.4213,-3.543,-3.6333,-3.6333,-3.5914,-3.6253,-3.7232,-3.8383,-3.864,-3.864,-3.864,-3.864,-3.864,-3.864,-3.864,-3.864,-3.864,-3.864,-3.864,-3.864,-3.864,-3.864,-3.864,-3.864,-3.864,-3.864,-3.864,-3.864,-3.864,-3.864,-3.864,-3.864,-3.864,-3.864,-3.864,-3.864,-3.864,-3.864,-3.864,-3.864,-3.864,-3.864,-3.864,-3.864,-3.864,-3.864,-3.864,-3.864,-3.864,-3.864,-3.864,-3.864,-3.864,-3.864,-3.864,-3.864,-3.864,-3.864,-3.864,-3.864,-3.864,-3.864,-3.864,-3.8719,-3.9254,-3.9647,-4.1384,-4.311,-4.487,-4.6307,-4.7457,-4.8377,-4.8377,-4.8305,-4.8377,-4.8377,-4.8377,-4.8377,-4.8377,-4.8377,-4.8377,-4.8377,-4.8377,-4.8377,-4.8377,-4.8377,-4.8377,-4.8377,-4.8377,-4.8377,-4.8377,-4.8377,-4.8377,-4.8377,-4.8377,-4.8377,-4.8377,-4.8377,-4.8377,-4.8377,-4.8377,-4.8377,-4.8377,-2.7201,-2.7562,-2.7762,-2.8047,-2.8207,-2.8234,-2.8234,-2.8234,-2.8389,-3.0205,-3.2905,-3.3397,-3.356,-3.4701,-3.6414,-3.6511,-3.4863,-3.725,-3.8402,-3.8481,-3.864,-3.864,-3.864,-3.864,-3.864,-3.864,-3.864,-3.864,-3.864,-3.864,-3.864,-3.864,-3.864,-3.864,-3.864,-3.864,-3.864,-3.864,-3.864,-3.864,-3.864,-3.864,-3.864,-3.864,-3.864,-3.864,-3.864,-3.864,-3.864,-3.864,-3.864,-3.864,-3.864,-3.864,-3.864,-3.864,-3.864,-3.864,-3.864,-3.864,-3.864,-3.864,-3.864,-3.864,-3.864,-3.864,-3.864,-3.864,-3.864,-3.864,-3.864,-3.864,-3.864,-3.864,-3.864,-3.864,-3.8877,-3.9035,-4.0021,-4.1616,-4.3283,-4.5937,-4.7626,-4.8305,-4.8377,-4.8377,-4.8377,-4.8377,-4.8377,-4.8377,-4.8377,-4.8377,-4.8377,-4.8377,-4.8377,-4.8377,-4.8377,-4.8377,-4.8377,-4.8377,-4.8377,-4.8377,-4.8377,-4.8377,-4.8377,-4.8377,-4.8377,-4.8377,-4.8377,-4.8377,-4.8377,-4.8377,-4.8377,-4.8377,-4.8377,-2.7108,-2.7535,-2.7655,-2.7869,-2.8207,-2.8234,-2.8234,-2.8234,-2.8305,-3.0122,-3.2741,-3.2823,-3.3003,-3.4311,-3.6092,-3.6609,-3.4148,-3.7152,-3.8798,-3.8877,-3.8877,-3.8877,-3.8877,-3.8798,-3.8798,-3.864,-3.864,-3.864,-3.864,-3.864,-3.864,-3.864,-3.864,-3.864,-3.864,-3.864,-3.864,-3.864,-3.864,-3.864,-3.864,-3.864,-3.864,-3.864,-3.864,-3.864,-3.864,-3.864,-3.864,-3.864,-3.864,-3.864,-3.864,-3.864,-3.864,-3.864,-3.864,-3.864,-3.864,-3.864,-3.864,-3.864,-3.864,-3.864,-3.864,-3.864,-3.864,-3.864,-3.864,-3.864,-3.864,-3.864,-3.864,-3.864,-3.864,-3.864,-3.8719,-3.8956,-3.9647,-4.1171,-4.3055,-4.5565,-4.7626,-4.8013,-4.8377,-4.8377,-4.8377,-4.8377,-4.8377,-4.8377,-4.8377,-4.8377,-4.8377,-4.8377,-4.8377,-4.8377,-4.8377,-4.8377,-4.8377,-4.8377,-4.8377,-4.8377,-4.8377,-4.8377,-4.8377,-4.8377,-4.8377,-4.8377,-4.8377,-4.8377,-4.8377,-4.8377,-4.8377,-4.8377,-4.8377,-2.6987,-2.7295,-2.7562,-2.7856,-2.8194,-2.8234,-2.8234,-2.8234,-2.8234,-3.0205,-3.3315,-3.1685,-3.2113,-3.4148,-3.5931,-3.5689,-3.5042,-3.7729,-3.8859,-3.9272,-3.9193,-3.9193,-3.9193,-3.9193,-3.8956,-3.8719,-3.864,-3.864,-3.864,-3.8877,-3.8877,-3.8719,-3.8798,-3.8798,-3.8719,-3.864,-3.864,-3.864,-3.864,-3.864,-3.864,-3.864,-3.864,-3.864,-3.864,-3.864,-3.864,-3.864,-3.864,-3.864,-3.8658,-3.8737,-3.864,-3.864,-3.864,-3.864,-3.864,-3.8798,-3.8719,-3.8719,-3.864,-3.864,-3.864,-3.864,-3.864,-3.864,-3.864,-3.864,-3.864,-3.864,-3.864,-3.864,-3.864,-3.864,-3.864,-3.8719,-3.8877,-3.9333,-4.0197,-4.1636,-4.3663,-4.5862,-4.7699,-4.8377,-4.8377,-4.8377,-4.8377,-4.8377,-4.8377,-4.8377,-4.8377,-4.8377,-4.8377,-4.8377,-4.8377,-4.8377,-4.8377,-4.8377,-4.8377,-4.8377,-4.8377,-4.8377,-4.8377,-4.8377,-4.8377,-4.8377,-4.8377,-4.8377,-4.8377,-4.8377,-4.8377,-4.8377,-4.8377,-4.8377,-4.8377,-2.68,-2.7255,-2.7362,-2.7765,-2.8194,-2.8234,-2.8234,-2.8234,-2.8221,-3.0205,-3.3315,-3.152,-3.2113,-3.4164,-3.5833,-3.5366,-3.6029,-3.725,-3.878,-3.9351,-3.943,-3.9351,-3.9351,-3.9333,-3.9035,-3.8798,-3.8719,-3.8877,-3.9114,-3.9272,-3.943,-3.9509,-3.9193,-3.9114,-3.8956,-3.8798,-3.8719,-3.864,-3.864,-3.864,-3.864,-3.864,-3.864,-3.864,-3.864,-3.864,-3.864,-3.864,-3.8719,-3.9035,-3.9114,-3.9193,-3.9509,-3.9272,-3.9114,-3.9114,-3.9272,-3.943,-3.9193,-3.9114,-3.9035,-3.8798,-3.864,-3.864,-3.864,-3.864,-3.864,-3.864,-3.864,-3.864,-3.864,-3.864,-3.864,-3.864,-3.864,-3.864,-3.8798,-3.9035,-3.9883,-4.1307,-4.3339,-4.5639,-4.7552,-4.8377,-4.8377,-4.8377,-4.8377,-4.8377,-4.8377,-4.8377,-4.8377,-4.8377,-4.8377,-4.8377,-4.8377,-4.8377,-4.8377,-4.8377,-4.8377,-4.8377,-4.8377,-4.8377,-4.8377,-4.8377,-4.8377,-4.8377,-4.8377,-4.8377,-4.8377,-4.8377,-4.8377,-4.8377,-4.8377,-4.8377,-4.8377,-2.6734,-2.731,-2.735,-2.7685,-2.8167,-2.8234,-2.8234,-2.8305,-2.9034,-3.0925,-3.2592,-3.1587,-3.2015,-3.3592,-3.5025,-3.5413,-3.5123,-3.8109,-3.9883,-3.9883,-3.9726,-3.9805,-3.9805,-3.9726,-3.9569,-3.9272,-3.9114,-3.9351,-3.9588,-3.9745,-3.9823,-3.9823,-3.9588,-3.9588,-3.943,-3.9351,-3.9193,-3.9035,-3.8877,-3.864,-3.864,-3.864,-3.864,-3.864,-3.864,-3.8719,-3.8877,-3.8877,-3.9114,-3.943,-3.9509,-3.9588,-3.9823,-3.9666,-3.9509,-3.9588,-3.9666,-3.9745,-3.9588,-3.9509,-3.9351,-3.9193,-3.9035,-3.9114,-3.8956,-3.8877,-3.8719,-3.864,-3.864,-3.864,-3.864,-3.864,-3.864,-3.864,-3.864,-3.864,-3.864,-3.864,-3.9629,-4.0841,-4.2826,-4.517,-4.6773,-4.7772,-4.8377,-4.8377,-4.8377,-4.8377,-4.8377,-4.8377,-4.8377,-4.8377,-4.8377,-4.8377,-4.8377,-4.8377,-4.8377,-4.8377,-4.8377,-4.8377,-4.8377,-4.8377,-4.8377,-4.8377,-4.8377,-4.8377,-4.8377,-4.8377,-4.8377,-4.8377,-4.8377,-4.8377,-4.8377,-4.8377,-4.8377,-2.6734,-2.7268,-2.7321,-2.7752,-2.8181,-2.8221,-2.8234,-2.8642,-3.0676,-3.1835,-3.2031,-3.167,-3.2165,-3.3658,-3.4684,-3.5494,-3.6396,-3.8901,-4.0275,-4.0509,-4.0353,-4.0275,-4.0353,-4.0431,-4.004,-3.9902,-3.9823,-3.9745,-3.9902,-4.0137,-4.0216,-3.9981,-3.9981,-3.9981,-3.9902,-3.9745,-3.9666,-3.9588,-3.9193,-3.8877,-3.8877,-3.8798,-3.8719,-3.8798,-3.8877,-3.8956,-3.9193,-3.943,-3.9509,-3.9823,-3.9981,-3.9981,-3.9981,-4.0059,-4.0059,-4.0059,-4.0137,-4.0059,-3.9981,-3.9981,-3.9902,-3.9823,-3.9902,-3.9745,-3.943,-3.9114,-3.8877,-3.8798,-3.8798,-3.864,-3.864,-3.864,-3.864,-3.864,-3.864,-3.864,-3.864,-3.8798,-3.955,-4.0783,-4.1982,-4.4344,-4.6551,-4.7457,-4.7918,-4.8159,-4.8377,-4.8377,-4.8377,-4.8377,-4.8377,-4.8377,-4.8377,-4.8377,-4.8377,-4.8377,-4.8377,-4.8377,-4.8377,-4.8377,-4.8377,-4.8377,-4.8377,-4.8377,-4.8377,-4.8377,-4.8377,-4.8377,-4.8377,-4.8377,-4.8377,-4.8377,-4.8377,-4.8377,-4.8377,-2.6734,-2.7295,-2.7832,-2.8281,-2.8558,-2.8318,-2.8558,-2.9467,-3.2546,-3.2956,-3.1835,-3.2,-3.2905,-3.4376,-3.4847,-3.5736,-3.7596,-3.9295,-4.0256,-4.0509,-4.0588,-4.0588,-4.0509,-4.0588,-4.0275,-3.9981,-3.9902,-4.0137,-4.0372,-4.0607,-4.086,-4.0782,-4.0607,-4.0372,-4.0372,-4.0216,-3.9981,-4.0059,-3.9823,-3.9588,-3.9588,-3.9588,-3.9588,-3.9588,-3.9588,-3.9588,-3.9745,-3.9745,-3.9981,-4.0275,-4.0353,-4.0353,-4.0353,-4.0685,-4.0685,-4.0509,-4.0607,-4.0607,-4.0451,-4.0372,-4.0294,-4.0059,-3.9981,-3.9902,-3.9745,-3.9351,-3.9114,-3.9035,-3.8877,-3.8719,-3.864,-3.864,-3.864,-3.864,-3.864,-3.864,-3.864,-3.9096,-3.9647,-4.0627,-4.1539,-4.3435,-4.5714,-4.6847,-4.731,-4.7772,-4.8232,-4.8377,-4.8377,-4.8377,-4.8377,-4.8377,-4.8377,-4.8377,-4.8377,-4.8377,-4.8377,-4.8377,-4.8377,-4.8377,-4.8377,-4.8377,-4.8377,-4.8377,-4.8377,-4.8377,-4.8377,-4.8377,-4.8377,-4.8377,-4.8377,-4.8377,-4.8377,-4.8377,-4.8377,-2.6934,-2.7662,-2.8397,-2.8726,-2.8824,-2.8726,-2.9481,-3.1037,-3.3692,-3.3855,-3.233,-3.2987,-3.3969,-3.4782,-3.5025,-3.6557,-3.8329,-4.0021,-4.0685,-4.0841,-4.0763,-4.0841,-4.0841,-4.0763,-4.0763,-4.0529,-4.047,-4.0704,-4.0841,-4.0997,-4.1172,-4.1172,-4.0919,-4.0763,-4.0763,-4.0529,-4.047,-4.0529,-4.047,-4.047,-4.0391,-4.0137,-3.9902,-3.9902,-3.9902,-3.9981,-4.0137,-4.0216,-4.0451,-4.0685,-4.0841,-4.0841,-4.0841,-4.0997,-4.0997,-4.0919,-4.1016,-4.1094,-4.0841,-4.0782,-4.0704,-4.047,-4.0451,-4.0529,-4.0529,-4.0137,-3.9588,-3.943,-3.9193,-3.8956,-3.8719,-3.864,-3.864,-3.864,-3.864,-3.864,-3.864,-3.8798,-3.9726,-4.0802,-4.1771,-4.2902,-4.4945,-4.6233,-4.6847,-4.7991,-4.8377,-4.8377,-4.8377,-4.8377,-4.8377,-4.8377,-4.8377,-4.8377,-4.8377,-4.8377,-4.8377,-4.8377,-4.8377,-4.8377,-4.8377,-4.8377,-4.8377,-4.8377,-4.8377,-4.8377,-4.8377,-4.8377,-4.8377,-4.8377,-4.8377,-4.8377,-4.8377,-4.8377,-4.8377,-2.7338,-2.8126,-2.9077,-2.9314,-2.9076,-2.9314,-3.0455,-3.2345,-3.4359,-3.4278,-3.3069,-3.4522,-3.4538,-3.4457,-3.5187,-3.7037,-3.8803,-4.0431,-4.1094,-4.1172,-4.1172,-4.1074,-4.1074,-4.1172,-4.1094,-4.1094,-4.1016,-4.1094,-4.1094,-4.1172,-4.1172,-4.1172,-4.1172,-4.1172,-4.1172,-4.1172,-4.1094,-4.1016,-4.1016,-4.1094,-4.086,-4.0451,-4.0294,-4.0137,-4.0059,-4.0294,-4.0509,-4.0666,-4.0841,-4.1016,-4.1094,-4.1094,-4.1094,-4.1172,-4.1172,-4.1172,-4.123,-4.1269,-4.1133,-4.1191,-4.1152,-4.1113,-4.1191,-4.1191,-4.1055,-4.0723,-4.0175,-3.9842,-3.9528,-3.9212,-3.8975,-3.8719,-3.8719,-3.864,-3.864,-3.864,-3.864,-3.864,-3.9647,-4.0724,-4.1481,-4.2366,-4.4042,-4.5319,-4.6529,-4.7772,-4.8377,-4.8377,-4.8377,-4.8377,-4.8377,-4.8377,-4.8377,-4.8377,-4.84,-4.84,-4.84,-4.8377,-4.8377,-4.8377,-4.8377,-4.8377,-4.8377,-4.8377,-4.8377,-4.8377,-4.8377,-4.8377,-4.8377,-4.8377,-4.8377,-4.8377,-4.8377,-4.8377,-4.8377,-2.796,-2.8895,-2.9341,-2.9663,-2.983,-2.9649,-3.0705,-3.2659,-3.4522,-3.4278,-3.3789,-3.4847,-3.5672,-3.5608,-3.7277,-3.8882,-4.0099,-4.1094,-4.1172,-4.1172,-4.1172,-4.1172,-4.1172,-4.1172,-4.1172,-4.1172,-4.1172,-4.1172,-4.1172,-4.1172,-4.1172,-4.1172,-4.1172,-4.1172,-4.1172,-4.1172,-4.1172,-4.1172,-4.1172,-4.1172,-4.1172,-4.1016,-4.1016,-4.0938,-4.0938,-4.1016,-4.1094,-4.1094,-4.1094,-4.1172,-4.1211,-4.123,-4.1269,-4.1308,-4.1348,-4.1445,-4.1562,-4.1523,-4.1504,-4.1601,-4.1582,-4.1387,-4.1367,-4.1348,-4.1269,-4.125,-4.078,-4.0526,-4.0192,-3.9742,-3.9407,-3.9212,-3.9114,-3.8719,-3.864,-3.864,-3.864,-3.864,-3.9035,-3.949,-3.9786,-4.1462,-4.3566,-4.4795,-4.5937,-4.7163,-4.8377,-4.84,-4.84,-4.84,-4.8446,-4.8469,-4.8515,-4.84,-4.84,-4.84,-4.84,-4.84,-4.8377,-4.8377,-4.8377,-4.8377,-4.8377,-4.8377,-4.8377,-4.8377,-4.8377,-4.8377,-4.8377,-4.8377,-4.8377,-4.8377,-4.8377,-4.8377,-4.8377]},{"header":{"parameterUnit":"m.s-1","parameterCategory":1,"la1":31.0,"la2":29.5877,"lo1":-88.7671,"lo2":-86.6584,"dx":0.0162,"dy":0.0185,"nx":115,"ny":88,"refTime":"2022-11-21T18:00:00:Z","depth":0,"parameterNumber":3,"parameterNumberName":"V-component_of_WINDS"},"data":[0.0,0.0,0.0,0.0,0.0,0.0,0.0,0.0,0.0,0.0,0.0,0.0,0.0,0.0,0.0,0.0,0.0,0.0,0.0,0.0,0.0,0.0,0.0,0.0,0.0,0.0,0.0,0.0,0.0,0.0,0.0,0.0,0.0,0.0,0.0,0.0,0.0,0.0,0.0,0.0,0.0,0.0,0.0,0.0,0.0,0.0,0.0,0.0,0.0,0.0,0.0,0.0,0.0,0.0,0.0,0.0,0.0,0.0,0.0,0.0,0.0,0.0,0.0,0.0,0.0,0.0,0.0,0.0,0.0,0.0,0.0,0.0,0.0,0.0,0.0,0.0,0.0,0.0,0.0,0.0,0.0,0.0,0.0,0.0,0.0,0.0,0.0,0.0,0.0,0.0,0.0,0.0,0.0,0.0,0.0,0.0,0.0,0.0,0.0,0.0,0.0,0.0,0.0,0.0,0.0,0.0,0.0,0.0,0.0,0.0,0.0,0.0,0.0,0.0,0.0,0.0,0.0,0.0,0.0,0.0,0.0,0.0,0.0,0.0,0.0,0.0,0.0,0.0,0.0,0.0,0.0,0.0,0.0,0.0,0.0,0.0,0.0,0.0,0.0,0.0,0.0,0.0,0.0,0.0,0.0,0.0,0.0,0.0,0.0,0.0,0.0,0.0,0.0,0.0,0.0,0.0,0.0,0.0,0.0,0.0,0.0,0.0,0.0,0.0,0.0,0.0,0.0,0.0,0.0,0.0,0.0,0.0,0.0,0.0,0.0,0.0,0.0,0.0,0.0,0.0,0.0,0.0,0.0,0.0,0.0,0.0,0.0,0.0,0.0,0.0,0.0,0.0,0.0,0.0,0.0,0.0,0.0,0.0,0.0,0.0,0.0,0.0,0.0,0.0,0.0,0.0,0.0,0.0,0.0,0.0,0.0,0.0,0.0,0.0,0.0,0.0,0.0,0.0,0.0,0.0,0.0,0.0,0.0,0.0,0.0,0.0,0.0,0.0,0.0,0.0,0.0,0.0,0.0,0.0,0.0,0.0,0.0,0.0,0.0,0.0,0.0,0.0,0.0,0.0,0.0,0.0,0.0,0.0,0.0,0.0,0.0,0.0,0.0,0.0,0.0,0.0,0.0,0.0,0.0,0.0,0.0,0.0,0.0,0.0,0.0,0.0,0.0,0.0,0.0,0.0,0.0,0.0,0.0,0.0,0.0,0.0,0.0,0.0,0.0,0.0,0.0,0.0,0.0,0.0,0.0,0.0,0.0,0.0,0.0,0.0,0.0,0.0,0.0,0.0,0.0,0.0,0.0,0.0,0.0,0.0,0.0,0.0,0.0,0.0,0.0,0.0,0.0,0.0,0.0,0.0,0.0,0.0,0.0,0.0,0.0,0.0,0.0,0.0,0.0,0.0,0.0,0.0,0.0,0.0,0.0,0.0,0.0,0.0,0.0,0.0,0.0,0.0,0.0,0.0,0.0,0.0,0.0,0.0,0.0,0.0,0.0,0.0,0.0,0.0,0.0,0.0,0.0,0.0,0.0,0.0,0.0,0.0,0.0,0.0,0.0,0.0,0.0,0.0,0.0,0.0,0.0,0.0,0.0,0.0,0.0,0.0,0.0,0.0,0.0,0.0,0.0,0.0,0.0,0.0,0.0,0.0,0.0,0.0,0.0,0.0,0.0,0.0,0.0,0.0,0.0,0.0,0.0,0.0,0.0,0.0,0.0,0.0,0.0,0.0,0.0,0.0,0.0,0.0,0.0,0.0,0.0,0.0,0.0,0.0,0.0,0.0,0.0,0.0,0.0,0.0,0.0,0.0,0.0,0.0,0.0,0.0,0.0,0.0,0.0,0.0,0.0,0.0,0.0,0.0,0.0,0.0,0.0,0.0,0.0,0.0,0.0,0.0,0.0,0.0,0.0,0.0,0.0,0.0,0.0,0.0,0.0,0.0,0.0,0.0,0.0,0.0,0.0,0.0,0.0,0.0,0.0,0.0,0.0,0.0,0.0,0.0,0.0,0.0,0.0,0.0,0.0,0.0,0.0,0.0,0.0,0.0,0.0,0.0,0.0,0.0,0.0,0.0,0.0,0.0,0.0,0.0,0.0,0.0,0.0,0.0,0.0,0.0,0.0,0.0,0.0,0.0,0.0,0.0,0.0,0.0,0.0,0.0,0.0,0.0,0.0,0.0,0.0,0.0,0.0,0.0,0.0,0.0,0.0,0.0,0.0,0.0,0.0,0.0,0.0,0.0,0.0,0.0,0.0,0.0,0.0,0.0,0.0,0.0,0.0,0.0,0.0,0.0,0.0,0.0,0.0,0.0,0.0,0.0,0.0,0.0,0.0,0.0,0.0,0.0,0.0,0.0,0.0,0.0,0.0,0.0,0.0,0.0,0.0,0.0,0.0,0.0,0.0,0.0,0.0,0.0,0.0,0.0,0.0,0.0,0.0,0.0,0.0,0.0,0.0,0.0,0.0,0.0,0.0,0.0,0.0,0.0,0.0,0.0,0.0,0.0,0.0,0.0,0.0,0.0,0.0,0.0,0.0,0.0,0.0,0.0,0.0,0.0,0.0,0.0,0.0,0.0,0.0,0.0,0.0,0.0,0.0,0.0,0.0,0.0,0.0,0.0,0.0,0.0,0.0,0.0,0.0,0.0,0.0,0.0,0.0,0.0,0.0,0.0,0.0,0.0,0.0,0.0,0.0,0.0,0.0,0.0,0.0,0.0,0.0,0.0,0.0,0.0,0.0,0.0,0.0,0.0,0.0,0.0,0.0,0.0,0.0,0.0,0.0,0.0,0.0,0.0,0.0,0.0,0.0,0.0,0.0,0.0,0.0,0.0,0.0,0.0,0.0,0.0,0.0,0.0,0.0,0.0,0.0,0.0,0.0,0.0,0.0,0.0,0.0,0.0,0.0,0.0,0.0,0.0,0.0,0.0,0.0,0.0,0.0,0.0,0.0,0.0,0.0,0.0,0.0,0.0,0.0,0.0,0.0,0.0,0.0,0.0,0.0,0.0,0.0,0.0,0.0,0.0,0.0,0.0,0.0,0.0,0.0,0.0,0.0,0.0,0.0,0.0,0.0,0.0,0.0,0.0,0.0,0.0,0.0,0.0,0.0,0.0,0.0,0.0,0.0,0.0,0.0,0.0,0.0,0.0,0.0,0.0,0.0,0.0,0.0,0.0,0.0,0.0,0.0,0.0,0.0,0.0,0.0,0.0,0.0,0.0,0.0,0.0,0.0,0.0,0.0,0.0,0.0,0.0,0.0,0.0,0.0,0.0,0.0,0.0,0.0,0.0,0.0,0.0,0.0,0.0,0.0,0.0,0.0,0.0,0.0,0.0,0.0,0.0,0.0,0.0,0.0,0.0,0.0,0.0,0.0,0.0,0.0,0.0,0.0,0.0,0.0,0.0,0.0,0.0,0.0,0.0,0.0,0.0,0.0,0.0,0.0,0.0,0.0,0.0,0.0,0.0,0.0,0.0,0.0,0.0,0.0,0.0,0.0,0.0,0.0,0.0,0.0,0.0,0.0,0.0,0.0,0.0,0.0,0.0,0.0,0.0,0.0,0.0,0.0,0.0,0.0,0.0,0.0,0.0,0.0,0.0,0.0,0.0,0.0,0.0,0.0,0.0,0.0,0.0,0.0,0.0,0.0,0.0,0.0,0.0,0.0,0.0,0.0,0.0,0.0,0.0,0.0,0.0,0.0,0.0,0.0,0.0,0.0,0.0,0.0,0.0,0.0,0.0,0.0,0.0,0.0,0.0,0.0,0.0,0.0,0.0,0.0,0.0,0.0,0.0,0.0,0.0,0.0,0.0,0.0,0.0,0.0,0.0,0.0,0.0,0.0,0.0,0.0,0.0,0.0,0.0,0.0,0.0,0.0,0.0,0.0,0.0,0.0,0.0,0.0,0.0,0.0,0.0,0.0,0.0,0.0,0.0,0.0,0.0,0.0,0.0,0.0,0.0,0.0,0.0,0.0,0.0,0.0,0.0,0.0,0.0,0.0,0.0,0.0,0.0,0.0,0.0,0.0,0.0,0.0,0.0,0.0,0.0,0.0,0.0,0.0,0.0,0.0,0.0,0.0,0.0,0.0,0.0,0.0,0.0,0.0,0.0,0.0,0.0,0.0,0.0,0.0,0.0,0.0,0.0,0.0,0.0,0.0,0.0,0.0,0.0,0.0,0.0,0.0,0.0,0.0,0.0,0.0,0.0,0.0,0.0,0.0,0.0,0.0,0.0,2.7332,0.0,0.0,0.0,2.7332,0.0,0.0,0.0,0.0,0.0,0.0,0.0,0.0,0.0,0.0,0.0,0.0,0.0,0.0,0.0,0.0,0.0,0.0,0.0,0.0,0.0,0.0,0.0,0.0,0.0,0.0,0.0,0.0,0.0,0.0,0.0,0.0,0.0,0.0,0.0,0.0,0.0,0.0,0.0,0.0,0.0,0.0,0.0,0.0,0.0,0.0,0.0,0.0,0.0,0.0,0.0,0.0,0.0,0.0,0.0,0.0,0.0,0.0,0.0,0.0,0.0,0.0,0.0,0.0,0.0,0.0,0.0,0.0,0.0,0.0,0.0,0.0,0.0,0.0,0.0,0.0,0.0,0.0,0.0,0.0,0.0,0.0,0.0,0.0,0.0,0.0,0.0,0.0,0.0,0.0,0.0,0.0,0.0,0.0,0.0,0.0,0.0,0.0,0.0,0.0,0.0,0.0,0.0,0.0,0.0,0.0,0.0,0.0,0.0,0.0,2.7332,2.7332,2.7332,2.7332,2.7332,0.0,0.0,0.0,0.0,0.0,0.0,0.0,0.0,0.0,0.0,0.0,0.0,0.0,0.0,0.0,0.0,0.0,0.0,0.0,0.0,0.0,0.0,0.0,0.0,0.0,0.0,0.0,0.0,0.0,0.0,0.0,0.0,0.0,0.0,0.0,0.0,0.0,0.0,0.0,0.0,0.0,0.0,0.0,0.0,0.0,0.0,0.0,0.0,0.0,0.0,0.0,0.0,0.0,0.0,0.0,0.0,0.0,0.0,0.0,0.0,0.0,0.0,0.0,0.0,0.0,0.0,0.0,0.0,0.0,0.0,0.0,0.0,0.0,0.0,0.0,0.0,0.0,0.0,0.0,0.0,0.0,0.0,0.0,0.0,0.0,0.0,0.0,0.0,0.0,0.0,0.0,0.0,0.0,0.0,0.0,0.0,0.0,0.0,0.0,0.0,0.0,0.0,0.0,0.0,0.0,0.0,0.0,0.0,0.0,0.0,0.0,0.0,2.7332,2.7332,2.7332,0.0,0.0,0.0,0.0,0.0,0.0,0.0,0.0,0.0,0.0,0.0,0.0,0.0,0.0,0.0,0.0,0.0,0.0,0.0,0.0,0.0,0.0,0.0,0.0,0.0,0.0,0.0,0.0,0.0,0.0,0.0,0.0,0.0,0.0,0.0,0.0,0.0,0.0,0.0,0.0,0.0,0.0,0.0,0.0,0.0,0.0,0.0,0.0,0.0,0.0,0.0,0.0,0.0,0.0,0.0,0.0,0.0,0.0,0.0,0.0,0.0,0.0,0.0,0.0,0.0,0.0,0.0,0.0,0.0,0.0,0.0,0.0,0.0,0.0,0.0,0.0,0.0,0.0,0.0,0.0,0.0,0.0,0.0,0.0,0.0,0.0,0.0,0.0,0.0,0.0,0.0,0.0,0.0,0.0,0.0,0.0,0.0,0.0,0.0,0.0,0.0,0.0,0.0,0.0,0.0,0.0,0.0,0.0,0.0,0.0,2.7332,2.7332,2.7332,0.0,2.7366,0.0,0.0,0.0,0.0,0.0,0.0,0.0,0.0,0.0,0.0,0.0,0.0,0.0,0.0,0.0,0.0,0.0,0.0,0.0,0.0,0.0,0.0,0.0,0.0,0.0,0.0,0.0,0.0,0.0,0.0,0.0,0.0,0.0,0.0,0.0,0.0,0.0,0.0,0.0,0.0,0.0,0.0,0.0,0.0,0.0,0.0,0.0,0.0,0.0,0.0,0.0,0.0,0.0,0.0,0.0,0.0,0.0,0.0,0.0,0.0,0.0,0.0,0.0,0.0,0.0,0.0,0.0,0.0,0.0,0.0,0.0,0.0,0.0,0.0,0.0,0.0,0.0,0.0,0.0,0.0,0.0,0.0,0.0,0.0,0.0,0.0,0.0,0.0,0.0,0.0,0.0,0.0,0.0,0.0,0.0,0.0,0.0,0.0,0.0,0.0,0.0,0.0,0.0,0.0,0.0,0.0,0.0,0.0,0.0,0.0,2.773,2.7332,2.7332,2.7505,0.0,0.0,0.0,0.0,0.0,0.0,0.0,0.0,0.0,0.0,0.0,0.0,0.0,0.0,0.0,0.0,0.0,0.0,0.0,0.0,0.0,0.0,0.0,0.0,0.0,0.0,0.0,0.0,0.0,0.0,0.0,0.0,0.0,0.0,0.0,0.0,0.0,0.0,0.0,0.0,0.0,0.0,0.0,0.0,0.0,0.0,0.0,0.0,0.0,0.0,0.0,0.0,0.0,0.0,0.0,0.0,0.0,0.0,0.0,0.0,0.0,0.0,0.0,0.0,0.0,0.0,0.0,0.0,0.0,0.0,0.0,0.0,0.0,0.0,0.0,0.0,0.0,0.0,0.0,0.0,0.0,0.0,0.0,0.0,0.0,0.0,0.0,0.0,0.0,0.0,0.0,0.0,0.0,0.0,0.0,0.0,0.0,0.0,0.0,0.0,0.0,0.0,0.0,0.0,0.0,0.0,0.0,0.0,0.0,0.0,2.842,2.8454,2.7937,2.8109,2.8282,2.842,0.0,0.0,0.0,0.0,0.0,0.0,0.0,0.0,0.0,0.0,0.0,0.0,0.0,0.0,0.0,0.0,0.0,0.0,0.0,0.0,0.0,0.0,0.0,0.0,0.0,0.0,0.0,0.0,0.0,0.0,0.0,0.0,0.0,0.0,0.0,0.0,0.0,0.0,0.0,0.0,0.0,0.0,0.0,0.0,0.0,0.0,0.0,0.0,0.0,0.0,0.0,0.0,0.0,0.0,0.0,0.0,0.0,0.0,0.0,0.0,0.0,0.0,0.0,0.0,0.0,0.0,0.0,0.0,0.0,0.0,0.0,0.0,0.0,0.0,0.0,0.0,0.0,0.0,0.0,0.0,0.0,0.0,0.0,0.0,0.0,0.0,0.0,0.0,0.0,0.0,0.0,0.0,0.0,0.0,0.0,0.0,0.0,0.0,0.0,0.0,0.0,0.0,0.0,0.0,0.0,0.0,0.0,0.0,2.9351,2.942,2.9437,2.942,3.0144,2.9868,0.0,0.0,0.0,0.0,0.0,0.0,0.0,0.0,0.0,0.0,0.0,0.0,0.0,0.0,0.0,0.0,0.0,0.0,0.0,0.0,0.0,0.0,0.0,0.0,0.0,0.0,0.0,0.0,0.0,0.0,0.0,0.0,0.0,0.0,0.0,0.0,0.0,0.0,0.0,0.0,0.0,0.0,0.0,0.0,0.0,0.0,0.0,0.0,0.0,0.0,0.0,0.0,0.0,0.0,0.0,0.0,0.0,0.0,0.0,0.0,0.0,0.0,0.0,0.0,0.0,0.0,0.0,0.0,0.0,0.0,0.0,0.0,0.0,0.0,0.0,0.0,0.0,0.0,0.0,0.0,0.0,0.0,0.0,0.0,0.0,0.0,0.0,0.0,0.0,0.0,0.0,0.0,0.0,0.0,0.0,0.0,0.0,0.0,0.0,0.0,0.0,0.0,0.0,0.0,0.0,0.0,0.0,0.0,0.0,2.9455,2.9523,2.9972,3.0903,3.0317,2.9661,0.0,0.0,0.0,0.0,0.0,0.0,0.0,0.0,0.0,0.0,0.0,0.0,0.0,0.0,0.0,0.0,0.0,0.0,0.0,0.0,0.0,0.0,0.0,0.0,0.0,0.0,0.0,0.0,0.0,0.0,0.0,0.0,0.0,0.0,0.0,0.0,0.0,0.0,0.0,0.0,0.0,0.0,0.0,0.0,0.0,0.0,0.0,0.0,0.0,0.0,0.0,0.0,0.0,0.0,0.0,0.0,0.0,0.0,0.0,0.0,0.0,0.0,0.0,0.0,0.0,0.0,0.0,0.0,0.0,0.0,0.0,0.0,0.0,0.0,0.0,0.0,0.0,0.0,0.0,0.0,0.0,0.0,0.0,0.0,0.0,0.0,0.0,0.0,0.0,0.0,0.0,0.0,0.0,0.0,0.0,0.0,0.0,0.0,0.0,0.0,0.0,0.0,0.0,0.0,0.0,0.0,0.0,0.0,0.0,3.0558,3.1076,3.1627,3.2076,3.1145,3.0282,0.0,0.0,0.0,0.0,0.0,0.0,0.0,0.0,0.0,0.0,0.0,0.0,0.0,0.0,0.0,0.0,0.0,0.0,0.0,0.0,0.0,0.0,0.0,0.0,0.0,0.0,0.0,0.0,0.0,0.0,0.0,0.0,0.0,0.0,0.0,0.0,0.0,0.0,0.0,0.0,0.0,0.0,0.0,0.0,0.0,0.0,0.0,0.0,0.0,0.0,0.0,0.0,0.0,0.0,0.0,0.0,0.0,0.0,0.0,0.0,0.0,0.0,0.0,0.0,0.0,0.0,0.0,0.0,0.0,0.0,0.0,0.0,0.0,0.0,0.0,0.0,0.0,0.0,0.0,0.0,0.0,0.0,0.0,0.0,0.0,0.0,0.0,0.0,0.0,0.0,0.0,0.0,0.0,0.0,0.0,0.0,0.0,0.0,0.0,0.0,0.0,0.0,0.0,0.0,0.0,0.0,0.0,0.0,3.1455,3.2869,3.4283,3.4249,3.2972,3.2835,3.18,0.0,0.0,0.0,0.0,0.0,0.0,0.0,0.0,0.0,0.0,0.0,0.0,0.0,0.0,0.0,0.0,0.0,0.0,0.0,0.0,0.0,0.0,0.0,0.0,0.0,0.0,0.0,0.0,0.0,0.0,0.0,0.0,0.0,0.0,0.0,0.0,0.0,0.0,0.0,0.0,0.0,0.0,0.0,0.0,0.0,0.0,0.0,0.0,0.0,0.0,0.0,0.0,0.0,0.0,0.0,0.0,0.0,0.0,0.0,0.0,0.0,0.0,0.0,0.0,0.0,0.0,0.0,0.0,0.0,0.0,0.0,0.0,0.0,0.0,0.0,0.0,0.0,0.0,0.0,0.0,0.0,0.0,0.0,0.0,0.0,0.0,0.0,0.0,0.0,0.0,0.0,0.0,0.0,0.0,0.0,0.0,0.0,0.0,0.0,0.0,0.0,0.0,0.0,0.0,0.0,0.0,0.0,0.0,0.0,3.3731,3.418,3.4234,3.3731,3.3179,3.2317,0.0,0.0,0.0,0.0,0.0,0.0,0.0,0.0,0.0,0.0,0.0,0.0,0.0,0.0,0.0,0.0,0.0,0.0,0.0,0.0,0.0,0.0,0.0,0.0,0.0,0.0,0.0,0.0,0.0,0.0,0.0,0.0,0.0,0.0,0.0,0.0,0.0,0.0,0.0,0.0,0.0,0.0,0.0,0.0,0.0,0.0,0.0,0.0,0.0,0.0,0.0,0.0,0.0,0.0,0.0,0.0,0.0,0.0,0.0,0.0,0.0,0.0,0.0,0.0,0.0,0.0,0.0,0.0,0.0,0.0,0.0,0.0,0.0,0.0,0.0,0.0,0.0,0.0,0.0,0.0,0.0,0.0,0.0,0.0,0.0,0.0,0.0,0.0,0.0,0.0,0.0,0.0,0.0,0.0,0.0,0.0,0.0,0.0,0.0,0.0,0.0,0.0,0.0,0.0,0.0,0.0,0.0,0.0,0.0,3.5787,3.5787,3.5511,3.4938,3.418,3.3145,3.1834,0.0,0.0,0.0,0.0,0.0,0.0,0.0,0.0,0.0,0.0,0.0,0.0,0.0,0.0,0.0,0.0,0.0,0.0,0.0,0.0,0.0,0.0,0.0,0.0,0.0,0.0,0.0,0.0,0.0,0.0,0.0,0.0,0.0,0.0,0.0,0.0,0.0,0.0,0.0,0.0,0.0,0.0,0.0,0.0,0.0,0.0,0.0,0.0,0.0,0.0,0.0,0.0,0.0,0.0,0.0,0.0,0.0,0.0,0.0,0.0,0.0,0.0,0.0,0.0,0.0,0.0,0.0,0.0,0.0,0.0,0.0,0.0,0.0,0.0,0.0,0.0,0.0,0.0,0.0,0.0,0.0,0.0,0.0,0.0,0.0,0.0,0.0,0.0,0.0,0.0,0.0,0.0,0.0,0.0,0.0,0.0,0.0,0.0,0.0,0.0,0.0,0.0,0.0,0.0,0.0,0.0,0.0,0.0,3.8651,3.8698,3.7996,3.6456,3.5628,3.4214,0.0,0.0,0.0,0.0,0.0,0.0,0.0,0.0,0.0,0.0,0.0,0.0,0.0,0.0,0.0,0.0,0.0,0.0,0.0,0.0,0.0,0.0,0.0,0.0,0.0,0.0,0.0,0.0,0.0,0.0,0.0,0.0,0.0,0.0,0.0,0.0,0.0,0.0,0.0,0.0,0.0,0.0,0.0,0.0,0.0,0.0,0.0,0.0,0.0,0.0,0.0,0.0,0.0,0.0,0.0,0.0,0.0,0.0,0.0,0.0,0.0,0.0,0.0,0.0,0.0,0.0,0.0,0.0,0.0,0.0,0.0,0.0,0.0,0.0,0.0,0.0,0.0,0.0,0.0,0.0,0.0,0.0,0.0,0.0,0.0,0.0,0.0,0.0,0.0,0.0,0.0,0.0,0.0,0.0,0.0,0.0,0.0,0.0,0.0,0.0,0.0,0.0,0.0,0.0,0.0,0.0,0.0,0.0,0.0,3.9353,3.9997,3.9583,3.8008,3.618,3.518,0.0,0.0,0.0,0.0,0.0,0.0,0.0,0.0,0.0,0.0,0.0,0.0,0.0,0.0,0.0,0.0,0.0,0.0,0.0,0.0,0.0,0.0,0.0,0.0,0.0,0.0,0.0,0.0,0.0,0.0,0.0,0.0,0.0,0.0,0.0,0.0,0.0,0.0,0.0,0.0,0.0,0.0,0.0,0.0,0.0,0.0,0.0,0.0,0.0,0.0,0.0,0.0,0.0,0.0,0.0,0.0,0.0,0.0,0.0,0.0,0.0,0.0,0.0,0.0,0.0,0.0,0.0,0.0,0.0,0.0,0.0,0.0,0.0,0.0,0.0,0.0,0.0,0.0,0.0,0.0,0.0,0.0,0.0,0.0,0.0,0.0,0.0,0.0,0.0,0.0,0.0,0.0,0.0,0.0,0.0,0.0,0.0,0.0,0.0,0.0,0.0,0.0,0.0,0.0,0.0,0.0,0.0,0.0,3.9031,4.0181,4.0653,4.048,3.956,3.7663,3.6353,0.0,0.0,0.0,0.0,0.0,0.0,0.0,0.0,0.0,0.0,0.0,0.0,0.0,0.0,0.0,0.0,0.0,0.0,0.0,0.0,0.0,0.0,0.0,0.0,0.0,0.0,0.0,0.0,0.0,0.0,0.0,0.0,0.0,0.0,0.0,0.0,0.0,0.0,0.0,0.0,0.0,0.0,0.0,0.0,0.0,0.0,0.0,0.0,0.0,0.0,0.0,0.0,0.0,0.0,0.0,0.0,0.0,0.0,0.0,0.0,0.0,0.0,0.0,0.0,0.0,0.0,0.0,0.0,0.0,0.0,0.0,0.0,0.0,0.0,0.0,0.0,0.0,0.0,0.0,0.0,0.0,0.0,0.0,0.0,0.0,0.0,0.0,0.0,0.0,0.0,0.0,0.0,0.0,0.0,0.0,0.0,0.0,0.0,0.0,0.0,0.0,0.0,0.0,0.0,0.0,0.0,0.0,0.0,4.025,4.1136,4.1136,4.1101,4.0963,3.9445,3.7594,0.0,0.0,0.0,0.0,0.0,0.0,0.0,0.0,0.0,0.0,0.0,0.0,0.0,0.0,0.0,0.0,0.0,0.0,0.0,0.0,0.0,0.0,0.0,0.0,0.0,0.0,0.0,0.0,0.0,0.0,0.0,0.0,0.0,0.0,0.0,0.0,0.0,0.0,0.0,0.0,0.0,0.0,0.0,0.0,0.0,0.0,0.0,0.0,0.0,0.0,0.0,0.0,0.0,0.0,0.0,0.0,0.0,0.0,0.0,0.0,0.0,0.0,0.0,0.0,0.0,0.0,0.0,0.0,0.0,0.0,0.0,0.0,0.0,0.0,0.0,0.0,0.0,0.0,0.0,0.0,0.0,0.0,0.0,0.0,0.0,0.0,0.0,0.0,0.0,0.0,0.0,0.0,0.0,0.0,0.0,0.0,0.0,0.0,0.0,0.0,0.0,0.0,0.0,0.0,0.0,0.0,0.0,0.0,4.1343,4.2654,4.2689,4.2413,4.1792,3.9721,3.8077,0.0,0.0,0.0,0.0,0.0,0.0,0.0,0.0,0.0,0.0,0.0,0.0,0.0,0.0,0.0,0.0,0.0,0.0,0.0,0.0,0.0,0.0,0.0,0.0,0.0,0.0,0.0,0.0,0.0,0.0,0.0,0.0,0.0,0.0,0.0,0.0,0.0,0.0,0.0,0.0,0.0,0.0,0.0,0.0,0.0,0.0,0.0,0.0,2.8831,0.0,0.0,0.0,0.0,0.0,0.0,0.0,0.0,0.0,0.0,0.0,0.0,0.0,0.0,0.0,0.0,0.0,0.0,0.0,0.0,0.0,0.0,0.0,0.0,0.0,0.0,0.0,0.0,0.0,0.0,0.0,0.0,0.0,0.0,0.0,0.0,0.0,0.0,0.0,0.0,0.0,0.0,0.0,0.0,0.0,0.0,0.0,0.0,0.0,0.0,0.0,0.0,0.0,0.0,0.0,0.0,0.0,0.0,0.0,4.1999,4.3138,4.3207,4.3,4.2516,4.1009,3.9169,0.0,0.0,0.0,0.0,0.0,0.0,0.0,0.0,0.0,0.0,0.0,0.0,0.0,0.0,0.0,0.0,0.0,0.0,0.0,0.0,0.0,0.0,0.0,0.0,0.0,0.0,0.0,0.0,0.0,0.0,0.0,0.0,0.0,0.0,0.0,0.0,0.0,0.0,0.0,0.0,0.0,0.0,0.0,0.0,0.0,0.0,0.0,0.0,0.0,0.0,0.0,0.0,0.0,0.0,0.0,0.0,0.0,0.0,0.0,0.0,0.0,0.0,0.0,0.0,0.0,0.0,0.0,0.0,0.0,0.0,0.0,0.0,0.0,0.0,0.0,0.0,0.0,0.0,0.0,0.0,0.0,0.0,0.0,0.0,0.0,0.0,0.0,0.0,0.0,0.0,0.0,0.0,0.0,0.0,0.0,0.0,0.0,0.0,0.0,0.0,0.0,0.0,0.0,0.0,0.0,0.0,0.0,4.124,4.2413,4.3483,4.331,4.3241,4.3345,4.2585,4.048,3.6835,0.0,0.0,0.0,0.0,0.0,0.0,0.0,0.0,0.0,0.0,0.0,0.0,0.0,0.0,0.0,0.0,0.0,0.0,0.0,0.0,0.0,0.0,0.0,0.0,0.0,0.0,0.0,0.0,0.0,0.0,0.0,0.0,0.0,0.0,0.0,0.0,0.0,0.0,2.7937,2.9338,0.0,0.0,0.0,0.0,0.0,0.0,0.0,0.0,3.0838,0.0,0.0,0.0,0.0,0.0,0.0,0.0,0.0,0.0,0.0,0.0,0.0,0.0,0.0,0.0,0.0,0.0,0.0,0.0,0.0,0.0,0.0,0.0,0.0,0.0,0.0,0.0,0.0,0.0,0.0,0.0,0.0,0.0,0.0,0.0,0.0,0.0,0.0,0.0,0.0,0.0,0.0,0.0,0.0,0.0,0.0,0.0,0.0,0.0,0.0,0.0,0.0,0.0,0.0,0.0,0.0,4.1561,4.1274,4.2354,4.4914,4.3828,4.3483,4.4069,4.3414,4.1516,3.8387,0.0,0.0,0.0,0.0,0.0,0.0,0.0,0.0,0.0,0.0,0.0,0.0,0.0,0.0,0.0,0.0,0.0,0.0,0.0,0.0,0.0,0.0,0.0,0.0,0.0,0.0,0.0,0.0,0.0,0.0,0.0,0.0,0.0,0.0,0.0,0.0,0.0,0.0,0.0,3.1498,3.2245,0.0,0.0,0.0,0.0,0.0,0.0,0.0,0.0,3.2088,0.0,0.0,0.0,0.0,0.0,0.0,0.0,0.0,0.0,0.0,0.0,0.0,0.0,0.0,0.0,0.0,0.0,0.0,0.0,0.0,0.0,0.0,0.0,0.0,0.0,0.0,0.0,0.0,0.0,0.0,0.0,0.0,0.0,0.0,0.0,0.0,0.0,0.0,0.0,0.0,0.0,0.0,0.0,0.0,0.0,0.0,0.0,0.0,0.0,0.0,0.0,0.0,0.0,0.0,0.0,4.1378,4.2595,4.394,4.5328,4.4699,4.4527,4.4837,4.4173,4.2344,0.0,0.0,0.0,0.0,0.0,0.0,0.0,0.0,0.0,0.0,0.0,0.0,0.0,0.0,0.0,0.0,0.0,0.0,0.0,0.0,0.0,0.0,0.0,0.0,0.0,0.0,0.0,0.0,0.0,0.0,0.0,0.0,0.0,0.0,0.0,0.0,0.0,0.0,0.0,0.0,3.2916,3.401,3.4782,0.0,0.0,0.0,0.0,0.0,0.0,3.4137,3.329,0.0,0.0,0.0,0.0,0.0,0.0,0.0,0.0,0.0,0.0,0.0,0.0,0.0,0.0,0.0,0.0,0.0,0.0,0.0,0.0,0.0,0.0,0.0,0.0,0.0,0.0,0.0,0.0,0.0,0.0,0.0,0.0,0.0,0.0,0.0,0.0,0.0,0.0,0.0,0.0,0.0,0.0,0.0,0.0,0.0,0.0,0.0,0.0,0.0,0.0,0.0,0.0,0.0,0.0,0.0,4.0963,4.3489,4.5019,4.5363,4.5121,4.5087,4.5363,4.4699,4.293,0.0,0.0,0.0,0.0,0.0,0.0,0.0,0.0,0.0,0.0,0.0,0.0,0.0,0.0,0.0,0.0,0.0,0.0,0.0,0.0,0.0,0.0,0.0,0.0,0.0,0.0,0.0,0.0,0.0,0.0,0.0,0.0,0.0,0.0,0.0,0.0,0.0,0.0,0.0,0.0,0.0,3.6014,3.6361,3.7591,0.0,0.0,0.0,0.0,3.6995,3.5912,0.0,0.0,0.0,0.0,0.0,0.0,0.0,0.0,0.0,0.0,0.0,0.0,0.0,0.0,0.0,0.0,0.0,0.0,0.0,0.0,0.0,0.0,0.0,0.0,0.0,0.0,0.0,0.0,0.0,0.0,0.0,0.0,0.0,0.0,0.0,0.0,0.0,0.0,0.0,0.0,0.0,0.0,0.0,0.0,0.0,0.0,0.0,0.0,0.0,0.0,0.0,0.0,0.0,0.0,0.0,0.0,4.0884,4.2277,4.3788,4.5251,4.4113,4.4078,4.5328,4.4699,4.3172,0.0,0.0,0.0,0.0,0.0,0.0,0.0,0.0,0.0,0.0,0.0,0.0,0.0,0.0,0.0,0.0,0.0,0.0,0.0,0.0,0.0,0.0,0.0,0.0,0.0,0.0,0.0,0.0,0.0,0.0,0.0,0.0,0.0,0.0,0.0,0.0,0.0,0.0,0.0,0.0,0.0,3.8356,3.8727,3.9547,4.0433,0.0,0.0,4.0208,4.0817,3.9894,0.0,0.0,0.0,0.0,0.0,0.0,0.0,0.0,0.0,0.0,0.0,0.0,0.0,0.0,0.0,0.0,0.0,0.0,0.0,0.0,0.0,0.0,0.0,0.0,0.0,0.0,0.0,0.0,0.0,0.0,0.0,0.0,0.0,0.0,0.0,0.0,0.0,0.0,0.0,0.0,0.0,0.0,0.0,0.0,0.0,0.0,0.0,0.0,0.0,0.0,0.0,0.0,0.0,0.0,0.0,4.0226,4.0308,4.2874,4.4618,4.5354,4.4803,4.4975,4.6052,4.5354,4.3664,0.0,0.0,0.0,0.0,0.0,0.0,0.0,0.0,0.0,0.0,0.0,0.0,0.0,0.0,0.0,0.0,0.0,0.0,0.0,0.0,0.0,0.0,0.0,0.0,0.0,0.0,0.0,0.0,0.0,0.0,0.0,0.0,0.0,0.0,0.0,0.0,0.0,0.0,0.0,0.0,0.0,0.0,4.0665,4.1476,0.0,0.0,0.0,4.2137,4.1632,0.0,0.0,0.0,0.0,0.0,0.0,0.0,0.0,0.0,0.0,0.0,0.0,0.0,0.0,0.0,0.0,0.0,0.0,0.0,0.0,0.0,0.0,0.0,0.0,0.0,0.0,0.0,0.0,0.0,0.0,0.0,0.0,0.0,0.0,0.0,0.0,0.0,0.0,0.0,0.0,0.0,0.0,0.0,0.0,0.0,0.0,0.0,0.0,0.0,0.0,0.0,0.0,0.0,0.0,0.0,0.0,0.0,4.0101,4.3687,4.5554,4.5397,4.5604,4.5983,4.6562,4.5983,0.0,0.0,0.0,0.0,0.0,0.0,0.0,0.0,0.0,0.0,0.0,0.0,0.0,0.0,0.0,0.0,0.0,0.0,0.0,0.0,0.0,0.0,0.0,0.0,0.0,0.0,0.0,2.7144,0.0,0.0,0.0,0.0,0.0,0.0,0.0,0.0,0.0,0.0,0.0,0.0,0.0,0.0,4.0767,4.2137,4.3202,4.3677,0.0,0.0,4.3886,4.2554,4.2555,4.2129,0.0,0.0,0.0,0.0,0.0,0.0,0.0,0.0,0.0,0.0,0.0,0.0,0.0,0.0,0.0,0.0,0.0,0.0,0.0,0.0,0.0,0.0,0.0,0.0,0.0,0.0,0.0,0.0,0.0,0.0,0.0,0.0,0.0,0.0,0.0,0.0,0.0,0.0,0.0,0.0,0.0,0.0,0.0,0.0,0.0,0.0,0.0,0.0,0.0,0.0,0.0,0.0,0.0,0.0,4.1311,4.0953,4.4324,4.5905,4.5458,4.6121,4.6562,4.6603,4.6535,4.5079,0.0,0.0,0.0,0.0,0.0,0.0,0.0,0.0,0.0,0.0,0.0,0.0,0.0,0.0,0.0,0.0,0.0,0.0,0.0,0.0,0.0,0.0,0.0,0.0,0.0,0.0,0.0,0.0,0.0,0.0,0.0,0.0,0.0,0.0,0.0,0.0,0.0,0.0,0.0,0.0,0.0,4.2171,4.3,4.4724,4.573,0.0,4.5594,4.5674,4.4798,4.4657,4.3963,4.184,0.0,0.0,0.0,0.0,0.0,0.0,0.0,0.0,0.0,0.0,0.0,0.0,0.0,0.0,0.0,0.0,0.0,0.0,0.0,0.0,0.0,0.0,0.0,0.0,0.0,0.0,0.0,0.0,0.0,0.0,0.0,0.0,0.0,0.0,0.0,0.0,0.0,0.0,0.0,0.0,0.0,0.0,0.0,0.0,0.0,0.0,0.0,0.0,0.0,0.0,0.0,0.0,0.0,4.1071,4.0929,4.4558,4.6118,4.5492,4.6638,4.7052,4.6631,4.6603,4.5596,0.0,0.0,0.0,0.0,0.0,0.0,0.0,0.0,0.0,0.0,0.0,0.0,0.0,0.0,0.0,0.0,0.0,0.0,0.0,0.0,0.0,0.0,0.0,0.0,0.0,0.0,0.0,0.0,2.9834,2.9799,3.08,0.0,0.0,0.0,0.0,0.0,0.0,0.0,0.0,0.0,0.0,4.3172,4.4389,4.5615,0.0,0.0,4.6307,4.6447,4.6621,4.6239,4.5499,4.419,4.4175,0.0,0.0,0.0,0.0,0.0,0.0,0.0,0.0,0.0,0.0,0.0,0.0,0.0,0.0,0.0,0.0,0.0,0.0,0.0,0.0,0.0,0.0,0.0,0.0,0.0,0.0,0.0,0.0,0.0,0.0,0.0,0.0,0.0,0.0,0.0,0.0,0.0,0.0,0.0,0.0,0.0,0.0,0.0,0.0,0.0,0.0,0.0,0.0,0.0,0.0,0.0,0.0,4.1613,4.124,4.4923,4.6584,4.6086,4.7362,4.7907,4.7631,4.7389,4.6527,0.0,0.0,0.0,0.0,0.0,0.0,0.0,0.0,0.0,0.0,0.0,0.0,0.0,0.0,0.0,0.0,0.0,0.0,0.0,0.0,0.0,0.0,0.0,0.0,0.0,0.0,0.0,0.0,3.1765,3.1903,3.2421,0.0,0.0,0.0,0.0,0.0,0.0,0.0,0.0,0.0,0.0,4.4458,4.6155,4.7113,4.7631,4.7631,4.7631,4.7803,4.8293,4.7562,4.6788,4.6368,0.0,0.0,0.0,0.0,0.0,0.0,0.0,0.0,0.0,0.0,0.0,0.0,0.0,0.0,0.0,0.0,0.0,0.0,0.0,0.0,0.0,0.0,0.0,0.0,0.0,0.0,0.0,3.3321,0.0,0.0,3.2335,0.0,0.0,0.0,0.0,0.0,0.0,0.0,0.0,0.0,0.0,0.0,0.0,0.0,0.0,0.0,0.0,0.0,0.0,0.0,0.0,0.0,0.0,4.3231,4.2068,4.5556,4.7439,4.7631,4.8396,4.912,4.9769,4.9183,4.8051,4.6562,0.0,0.0,0.0,0.0,0.0,0.0,0.0,0.0,0.0,0.0,0.0,0.0,0.0,0.0,0.0,0.0,0.0,0.0,0.0,0.0,0.0,0.0,0.0,0.0,0.0,0.0,3.1834,3.3164,3.4027,0.0,0.0,0.0,0.0,0.0,0.0,0.0,0.0,0.0,4.3966,4.4906,4.619,4.8396,4.9396,4.9907,4.9907,4.9907,4.9942,4.9976,4.87,4.783,0.0,0.0,0.0,0.0,0.0,0.0,0.0,0.0,0.0,0.0,0.0,0.0,0.0,0.0,0.0,0.0,0.0,0.0,0.0,0.0,0.0,0.0,0.0,0.0,0.0,0.0,0.0,3.7542,3.7231,0.0,0.0,0.0,0.0,0.0,0.0,0.0,0.0,0.0,0.0,0.0,4.3552,4.4561,0.0,0.0,0.0,0.0,0.0,0.0,0.0,0.0,0.0,0.0,0.0,0.0,4.4212,4.4389,4.7476,4.8654,4.7769,4.9878,5.0223,4.8499,4.9217,4.8637,4.6665,0.0,0.0,0.0,0.0,0.0,0.0,0.0,0.0,0.0,0.0,0.0,0.0,0.0,0.0,0.0,0.0,0.0,0.0,0.0,0.0,0.0,0.0,0.0,0.0,0.0,3.3248,0.0,0.0,0.0,0.0,0.0,0.0,0.0,0.0,0.0,0.0,4.1585,4.3828,4.5596,4.6906,4.8293,5.005,5.0981,5.1464,0.0,0.0,0.0,0.0,0.0,0.0,0.0,0.0,0.0,0.0,0.0,0.0,0.0,4.5609,4.5133,4.314,4.246,4.2559,4.3633,0.0,0.0,0.0,0.0,0.0,0.0,0.0,0.0,0.0,0.0,0.0,0.0,0.0,0.0,4.0709,4.0806,3.9645,0.0,0.0,0.0,0.0,0.0,0.0,0.0,0.0,4.4872,4.5596,4.5906,4.6906,4.6975,4.6278,4.5728,4.4524,0.0,0.0,0.0,0.0,0.0,0.0,0.0,0.0,4.591,4.632,4.9111,5.0178,4.939,5.1188,5.1395,4.9769,5.0149,4.9562,4.7838,4.6044,4.4621,0.0,0.0,0.0,0.0,0.0,0.0,0.0,0.0,0.0,0.0,0.0,0.0,0.0,0.0,0.0,0.0,0.0,0.0,0.0,0.0,0.0,0.0,0.0,3.6063,0.0,0.0,0.0,0.0,0.0,0.0,0.0,0.0,0.0,4.224,4.4069,4.6148,4.7941,4.8982,5.0326,5.236,0.0,0.0,0.0,0.0,0.0,0.0,0.0,5.239,5.2632,5.2459,5.1873,5.0602,4.9775,4.912,4.8665,0.0,0.0,4.6,4.5235,4.5321,4.6385,4.6762,4.701,4.7265,4.7972,4.8676,0.0,0.0,0.0,0.0,4.3774,0.0,0.0,0.0,4.2568,4.3059,0.0,4.2951,0.0,0.0,0.0,0.0,4.2378,4.4501,0.0,0.0,4.7431,4.8155,4.881,4.8879,4.9292,5.004,4.9707,4.9261,4.8528,4.3699,4.1516,0.0,0.0,0.0,0.0,0.0,4.8277,4.7962,5.0488,5.1952,5.2114,5.2222,5.2632,5.3253,5.1873,5.0735,5.0011,4.7872,4.5975,4.4483,4.1516,0.0,0.0,0.0,0.0,0.0,0.0,0.0,0.0,0.0,0.0,0.0,0.0,0.0,0.0,0.0,0.0,0.0,0.0,0.0,0.0,3.8237,0.0,0.0,0.0,0.0,0.0,0.0,0.0,0.0,0.0,4.6906,4.4932,4.6527,4.8672,5.0873,0.0,0.0,0.0,0.0,5.515,5.6564,5.6184,5.5943,5.6633,5.5529,5.4805,5.5462,0.0,0.0,5.3563,5.2804,5.2218,5.2257,5.2183,5.1746,5.0087,4.9427,4.961,5.0962,5.1108,5.1447,5.2203,5.2609,5.3151,5.012,0.0,0.0,0.0,0.0,4.8612,4.8533,4.8457,4.7916,4.7919,4.8221,4.7002,0.0,0.0,0.0,0.0,0.0,0.0,4.8803,4.9079,4.9775,5.0223,5.043,5.0976,5.139,5.1563,5.098,5.057,5.0355,4.839,4.688,4.59,0.0,0.0,0.0,0.0,5.0452,5.0837,5.2219,5.268,5.2252,5.3256,5.3701,5.3425,5.1908,5.1011,5.0804,4.9085,4.7707,4.6734,4.432,0.0,0.0,0.0,0.0,0.0,0.0,0.0,0.0,0.0,0.0,0.0,0.0,0.0,0.0,0.0,0.0,0.0,0.0,0.0,3.8927,3.979,4.086,0.0,0.0,0.0,0.0,0.0,0.0,0.0,0.0,0.0,4.9838,5.0528,5.139,0.0,0.0,5.5046,5.6978,5.7047,5.7081,5.7529,5.7391,0.0,5.684,5.6426,5.6219,5.6426,5.5805,5.5187,5.5012,5.4356,5.3808,5.3873,5.3839,5.3832,5.3848,5.2758,5.2142,5.2506,5.3054,5.3881,5.4677,5.5358,5.5919,5.4407,5.2987,5.2153,5.1801,5.1781,5.1553,5.1615,5.1864,5.1117,5.1096,5.1513,5.0196,4.9578,4.9452,4.9538,0.0,0.0,0.0,5.1587,5.139,5.2114,5.2287,5.208,5.2494,5.3011,5.3494,5.2735,5.2528,5.2873,5.2927,5.2131,5.0565,0.0,5.046,5.0779,5.1787,5.2387,5.2573,5.371,5.3877,5.3149,5.4046,5.4287,5.3839,5.2666,5.2011,5.2011,5.0533,4.9361,4.8631,4.67,4.5243,0.0,0.0,0.0,0.0,0.0,0.0,0.0,0.0,0.0,0.0,0.0,3.2938,3.3559,0.0,0.0,0.0,4.0388,4.1457,4.2354,4.3388,0.0,0.0,0.0,0.0,0.0,0.0,0.0,5.0183,5.0838,5.1671,5.3325,5.4049,5.4529,5.4736,5.5529,5.6633,5.815,0.0,5.8012,5.8288,5.8357,5.8185,5.7736,5.7667,5.7702,5.7667,5.7288,5.6978,5.6943,5.6564,5.6322,5.6288,5.6288,5.6426,5.6874,5.6059,5.5131,5.4639,5.5193,5.5982,5.65,5.7087,5.769,5.8203,5.7946,5.5023,5.3739,5.3549,5.3067,5.3308,5.3927,5.2873,5.314,5.4184,5.2837,5.2492,5.2967,5.3074,0.0,5.2585,5.3964,5.4261,5.3701,5.4419,5.4385,5.3701,5.3701,5.4391,5.5667,5.4809,5.4878,5.5697,5.6835,5.6779,5.5464,5.286,5.1584,5.1805,5.3568,5.4271,5.3863,5.5211,5.5522,5.4859,5.4824,5.4793,5.4762,5.4105,5.3694,5.346,5.2149,5.1011,5.0183,4.8741,4.701,4.5001,0.0,0.0,0.0,0.0,0.0,0.0,0.0,0.0,0.0,0.0,0.0,0.0,0.0,0.0,0.0,4.5113,0.0,4.6803,4.8051,0.0,0.0,0.0,4.9085,4.9292,5.0528,5.1356,5.1498,0.0,0.0,5.5669,5.7012,5.7702,5.7047,5.6978,5.746,5.8806,5.8461,5.8254,5.8875,5.8978,5.9012,5.8875,5.8875,5.8875,5.8875,5.9012,5.8875,5.8875,5.8875,5.8944,5.8806,5.8978,5.8944,5.8978,5.8737,5.8599,5.7149,5.7422,5.786,5.7952,5.8361,5.8936,6.0066,5.9913,5.9048,5.7997,5.6859,5.6708,5.6795,5.6909,5.6208,5.6317,5.6999,5.6205,5.5919,5.6082,5.5814,5.5631,5.5609,5.6495,5.654,5.6042,5.6624,5.6593,5.6012,5.5977,5.6184,5.646,5.628,5.628,5.6527,5.7285,5.7526,5.7307,5.7469,5.7284,5.6769,5.6927,5.7193,5.7541,5.7891,5.7961,5.7723,5.7688,5.7453,5.6943,5.6768,5.5893,5.4319,5.3908,5.308,5.1735,5.0804,5.0045,4.9493,4.7286,0.0,0.0,0.0,0.0,0.0,0.0,0.0,0.0,0.0,4.0032,3.9825,0.0,4.3655,0.0,4.7734,4.8941,4.8327,4.9183,0.0,0.0,5.0981,5.1494,5.3736,5.3322,5.3529,5.5253,5.5391,5.5874,5.7185,5.7667,5.8047,5.8426,5.8461,5.8599,5.8978,5.8875,5.8806,5.8978,5.9013,5.9012,5.9013,5.9012,5.9047,5.9012,5.9012,5.9012,5.9012,5.9012,5.9012,5.9012,5.9012,5.9012,5.9047,5.9012,5.8944,5.8598,5.8992,5.9443,5.9475,5.9866,6.0344,6.1653,6.1581,6.1508,6.097,6.0089,5.9391,5.9281,5.9527,5.8951,5.89,5.9176,5.8218,5.7667,5.7457,5.7846,5.7876,5.7715,5.8737,5.8832,5.8266,5.8644,5.8448,5.7771,5.746,5.746,5.7771,5.746,5.7633,5.8322,5.8913,5.9297,5.9426,6.067,6.1127,6.072,6.0097,5.964,5.9304,5.9304,5.889,5.7902,5.8137,5.7958,5.7314,5.7318,5.6744,5.5563,5.5184,5.4598,5.3739,5.3015,5.2459,5.2149,5.0873,4.9804,0.0,0.0,0.0,0.0,0.0,0.0,0.0,0.0,0.0,0.0,0.0,4.6941,4.8493,5.039,5.1459,5.1326,5.2356,5.3356,5.4149,5.3908,5.4287,5.5977,5.5426,5.5529,5.7116,5.6909,5.7081,5.8219,5.8392,5.8668,5.9426,5.9564,5.9426,5.9116,5.9288,5.953,5.953,5.9456,5.9448,5.9448,5.9803,6.0047,6.0047,6.0013,6.0047,6.0047,6.0013,6.0047,6.0047,6.0047,6.0013,6.0047,6.0013,6.0013,6.0047,6.0323,6.0282,5.9722,5.9841,6.009,6.2805,6.2805,6.2915,6.2952,6.2853,6.1557,6.13,6.1716,6.1121,6.0955,6.1018,5.9888,5.9131,5.8774,5.9857,6.009,5.9686,6.0829,6.0979,6.032,6.0391,6.0082,5.9288,5.8633,5.8668,5.9254,5.8668,5.9012,6.0324,6.0972,6.139,6.164,6.2817,6.3555,6.3705,6.2951,6.1837,6.036,6.0146,5.9218,5.7503,5.8039,5.811,5.7513,5.7486,5.7422,5.7219,5.6564,5.6115,5.5908,5.5288,5.4563,5.3736,5.4287,5.3977,0.0,5.1666,0.0,0.0,0.0,0.0,0.0,0.0,0.0,0.0,4.8361,5.0223,5.1563,5.2977,5.4115,5.4736,5.6012,5.684,5.6943,5.6943,5.6978,5.7047,5.7081,5.7322,5.7978,5.815,5.8461,5.9047,5.9219,5.9599,6.022,6.0323,6.0116,5.9564,5.9944,6.0323,6.0323,6.0232,6.0143,6.0028,6.0574,6.0935,6.0897,6.072,6.1038,6.0971,6.1041,6.1076,6.1041,6.1079,6.1184,6.1182,6.1147,6.1254,6.1185,6.1221,6.0876,5.9771,5.9495,5.9493,6.2904,6.2879,6.3576,6.3833,6.387,6.4237,6.3686,6.2535,6.1921,6.2069,6.2676,6.298,6.3387,6.3838,6.3554,6.3365,6.3257,6.301,6.2517,6.1862,6.1872,6.1535,6.084,6.0737,6.0737,6.084,6.0703,6.0806,6.1082,6.1775,6.2394,6.3062,6.3857,6.4491,6.4999,0.0,0.0,0.0,6.1373,6.0776,6.0963,6.1623,6.1716,6.1122,6.1222,0.0,5.9599,5.9426,5.8737,5.7564,5.7322,0.0,0.0,0.0,0.0,0.0,0.0,0.0,0.0,0.0,0.0,0.0,5.2114,5.2114,5.1085,5.3011,5.446,5.477,5.5598,5.6219,5.6357,5.6598,5.7047,5.7598,5.7702,5.7943,5.8495,5.8599,5.8668,5.8771,5.9357,5.9806,5.9944,6.0496,6.0909,6.1047,6.1082,6.1047,6.0909,6.1013,6.1082,6.1081,6.1002,6.0784,6.0088,6.0156,6.0144,5.9432,5.9197,5.951,6.019,6.0303,6.0306,6.0306,6.0823,6.1073,6.0418,6.0786,6.1357,6.1323,6.1323,6.122,6.0944,6.0875,6.091,6.4067,6.409,6.4494,6.4714,0.0,6.5118,6.4824,6.4028,6.3706,6.3782,6.421,6.4548,6.4741,6.4803,6.4456,6.4315,6.4259,6.3667,6.3371,6.3303,6.2679,6.2405,6.237,6.1639,6.1501,6.1779,6.1466,6.153,6.1911,6.2577,6.3098,6.3554,6.4539,6.5176,6.5484,6.5207,6.4504,6.3438,6.2546,6.1878,6.1557,6.1521,6.1521,6.1492,6.0949,0.0,0.0,0.0,0.0,0.0,0.0,0.0,0.0,5.7288,5.6943,5.6219,5.546,5.4874,5.4494,5.4115,5.408,5.446,5.5529,5.5701,5.4563,5.5184,5.591,5.6667,5.7116,5.7495,5.784,5.7874,5.8047,5.8426,5.8806,5.9185,5.9564,5.9944,6.0116,6.0151,6.0496,6.0737,6.0737,6.1047,6.1461,6.1806,6.1875,6.2013,6.2324,6.2117,6.1762,6.1253,6.1544,6.1316,6.0151,6.0231,6.0351,5.9901,5.9819,5.9982,6.0351,6.0431,6.0431,6.047,6.0824,6.0902,6.0668,6.1168,6.177,6.1844,6.2137,6.2427,6.2393,6.1841,6.1323,6.5338,6.5338,6.5485,6.5521,6.5521,6.5668,6.5705,6.5705,6.5411,0.0,0.0,6.5521,6.5294,6.4919,6.4883,6.4919,6.4871,6.4187,6.4182,6.4724,6.3449,6.3136,6.3619,6.244,6.2092,6.2503,6.2092,6.2228,6.2886,6.3552,6.3901,6.4041,6.5072,6.5625,6.5554,6.4979,6.4408,6.3886,6.3488,6.2769,6.169,6.1196,6.1131,6.1521,6.0543,6.0147,6.0406,5.9907,5.9495,5.9219,5.9219,5.915,5.9012,5.9012,5.9012,5.8978,5.8323,5.7909,5.7874,5.7322,5.7047,5.7185,5.7874,5.7943,5.7081,5.6495,5.6736,5.7978,5.8081,5.8426,5.915,5.9219,5.9288,5.9392,6.0013,6.0392,6.0427,6.0909,6.122,6.1323,6.1392,6.1496,6.153,6.1668,6.191,6.2496,6.2668,6.2802,6.3176,6.2721,6.2029,6.122,6.1448,6.1387,6.0161,6.0096,6.0586,6.0233,6.0266,6.0501,6.0628,6.067,6.067,6.0538,6.072,6.0812,6.0762,6.1313,6.2009,6.2048,6.2745,6.3305,6.309,6.2417,6.1806,6.5338,6.5375,6.6035,6.6329,6.6402,6.7063,6.7357,6.7247,6.5925,6.5705,6.6329,6.6329,6.6669,6.7212,6.7212,6.7212,6.7131,6.5879,6.5667,6.6289,6.4964,6.4357,6.4425,6.4252,6.3868,6.351,6.3904,6.4217,6.4356,6.4961,6.5326,6.5368,6.5494,6.5625,6.559,6.5482,6.5415,6.5283,6.3988,6.3513,6.3849,6.439,6.4405,6.3953,6.378,6.3276,6.2192,6.2016,6.1392,6.0116,6.0013,5.9737,5.9047,5.9047,5.9012,5.8978,5.8323,5.7909,5.7909,5.7805,5.8047,5.8668,5.9426,5.9288,5.7909,5.8219,5.8633,5.884,5.8909,5.9185,5.9909,6.0047,6.0254,6.084,6.1082,6.1151,6.1151,6.1289,6.1427,6.1427,6.191,6.2324,6.2358,6.2806,6.3186,6.3393,6.3324,6.3205,6.26,6.2407,6.1947,6.1135,6.1003,6.067,5.9805,5.9631,5.9531,5.876,5.876,5.9043,5.9674,5.9762,5.9762,5.9762,6.0247,6.0417,5.9979,6.0501,6.1003,6.1127,6.185,6.2206,6.1656,6.2208,6.3041,6.6586,6.6623,6.699,6.7136,6.721,6.8017,6.8348,6.8348,6.8054,6.7614,6.7136,6.7136,6.7357,6.765,6.7687,6.7687,6.766,6.6247,6.6002,6.6589,6.5273,6.5006,6.5593,6.4974,6.4839,6.524,6.4806,6.5017,6.5774,6.6106,6.6073,6.5741,6.5611,6.5433,6.5138,6.5815,6.6222,6.6156,6.4736,6.4249,6.4874,6.4117,6.3898,6.4262,6.3361,6.2718,6.2405,6.2055,6.153,6.084,6.0806,6.0634,6.0289,6.0254,6.0254,6.0254,5.9944,5.9737,5.9737,5.9737,5.9909,6.022,6.0565,6.053,5.9806,6.0047,6.0254,6.0254,6.0254,6.0392,6.0771,6.0806,6.0944,6.1254,6.1668,6.1944,6.1979,6.2358,6.253,6.2565,6.2841,6.3082,6.3082,6.3393,6.36,6.36,6.36,6.3117,6.1843,6.1568,6.1209,6.0374,6.0161,5.9805,5.9075,5.8895,5.8701,5.8321,5.8321,5.8427,5.885,5.8927,5.8927,5.8895,5.9266,5.9311,5.8972,5.9619,6.0108,6.0279,6.092,6.1209,6.1127,6.1649,6.2397,6.7687,6.7687,6.7687,6.7797,6.8054,6.8825,6.9192,6.9229,6.9816,6.9376,6.8348,6.8238,6.8238,6.8238,6.8238,6.8147,6.7862,6.6879,6.6731,6.7035,6.6096,6.6193,6.7005,6.5934,6.5934,6.6793,6.5868,6.6055,6.7211,6.7314,6.6957,6.6316,6.602,6.5736,6.5367,6.6428,6.6872,6.6686,6.5749,6.5376,6.5641,6.4091,6.3712,6.4321,6.3073,6.2369,6.2568,6.1918,6.1496,6.1323,6.1323,6.1323,6.1323,6.1323,6.1323,6.1323,6.1323,6.1323,6.1323,6.1323,6.1323,6.1323,6.1461,6.1565,6.1565,6.1737,6.1668,6.1392,6.1254,6.1323,6.153,6.1565,6.1634,6.1806,6.2358,6.2703,6.2772,6.3255,6.36,6.36,6.36,6.3565,6.3634,6.3738,6.3979,6.4152,6.4117,6.3444,6.2078,6.1584,6.1037,6.0304,5.9798,5.9332,5.8634,5.8732,5.8827,5.8763,5.8827,5.889,5.8936,5.8827,5.8795,5.8936,5.8905,5.8983,5.8888,5.9316,5.9769,5.9967,6.0631,6.1221,6.1508,6.1339,6.1583,6.7714,6.7687,6.776,6.8128,6.8862,6.9669,7.0,7.0,7.0073,7.0036,6.9889,6.9853,6.9853,6.9889,6.9816,6.9462,6.8862,6.8814,6.8748,6.8778,6.8759,6.8753,6.8711,6.8027,6.7802,6.7927,6.7695,6.7991,6.877,6.877,6.8426,6.781,6.7163,6.7127,6.7596,6.7724,6.7492,6.6825,6.7201,6.712,6.6598,6.6408,6.6037,6.547,6.5312,6.4604,6.3441,6.2752,6.2048,6.1392,6.1358,6.1323,6.1358,6.1323,6.1323,6.1358,6.1323,6.1323,6.1323,6.1323,6.1358,6.1358,6.2013,6.2393,6.2393,6.2979,6.2772,6.1737,6.1358,6.1703,6.2255,6.2393,6.2599,6.3117,6.3324,6.3496,6.3462,6.3531,6.36,6.36,6.3738,6.36,6.3841,6.4255,6.4841,6.5359,6.5393,6.4976,6.3802,6.3066,6.2288,6.1438,6.0394,5.9488,5.9286,5.9728,5.9854,5.9981,6.0044,5.9949,5.9886,5.9918,6.0076,5.9728,5.9949,5.9918,5.9949,6.0218,6.017,6.0215,6.0816,6.1747,6.2399,6.1993,6.1829,6.8678,6.9119,6.9119,6.9302,6.9706,7.0477,7.0807,7.0844,7.1321,7.1505,7.1505,7.1505,7.0991,7.011,7.011,6.9933,6.9639,6.9279,6.9309,6.9581,6.9279,6.9062,6.9037,6.8786,6.8661,6.8629,6.8661,6.9038,6.9591,6.9313,6.8761,6.8115,6.7725,6.7749,6.798,6.7955,6.7936,6.8094,6.7961,6.7752,6.7402,6.6931,6.6523,6.6253,6.5846,6.5161,6.4248,6.3834,6.3378,6.2741,6.2634,6.2668,6.2668,6.2668,6.2668,6.2668,6.2668,6.2668,6.2668,6.2668,6.2668,6.2668,6.2944,6.3151,6.3151,6.3427,6.3289,6.2806,6.2668,6.2806,6.3082,6.3117,6.3289,6.3531,6.36,6.3634,6.36,6.4014,6.4255,6.4289,6.4669,6.4945,6.4979,6.5221,6.5531,6.5842,6.5876,6.5368,6.3985,6.3321,6.2464,6.1252,6.063,6.0376,6.0044,6.0076,6.0297,6.0329,6.0297,6.0297,6.036,6.0297,6.0297,6.0329,6.0392,6.0392,6.0234,6.0297,6.0297,6.0456,6.044,6.102,6.1359,6.1128,6.1141,6.9559,7.011,7.033,7.0403,7.0513,7.1321,7.1651,7.1688,7.2239,7.2532,7.2532,7.2532,7.1872,7.0844,7.077,7.0649,7.0412,7.0178,7.0178,7.0412,7.0149,7.0029,6.9963,6.9812,6.9775,6.9872,6.9596,6.9692,7.0134,6.978,6.9241,6.8753,6.8638,6.8522,6.8354,6.8444,6.8597,6.8726,6.8546,6.8466,6.8199,6.7619,6.7023,6.6446,6.5909,6.5303,6.4635,6.4463,6.4076,6.3637,6.36,6.36,6.36,6.36,6.36,6.36,6.36,6.36,6.36,6.36,6.36,6.36,6.3738,6.391,6.3945,6.4083,6.422,6.422,6.422,6.4117,6.3634,6.3772,6.3876,6.391,6.4048,6.422,6.4289,6.4738,6.5014,6.5083,6.5428,6.5979,6.6079,6.5959,6.5867,6.6107,6.587,6.5366,6.4005,6.3518,6.284,6.1502,6.1582,6.134,6.0771,6.0897,6.0834,6.0897,6.0992,6.1024,6.0866,6.0897,6.0897,6.1277,6.0992,6.0929,6.115,6.1024,6.0866,6.0866,6.0866,6.0914,6.1296,6.0977,6.1186,7.0073,7.0257,7.0954,7.1248,7.1293,7.2092,7.2422,7.2386,7.2496,7.2532,7.2532,7.2532,7.2459,7.2312,7.2239,7.1991,7.1495,7.1918,7.1852,7.1453,7.1918,7.2291,7.2299,7.166,7.1623,7.1808,7.0775,7.0255,7.0295,7.0297,7.0229,7.0194,7.0086,6.9812,6.9353,6.9675,6.9418,6.8643,6.9446,6.9704,6.9153,6.8989,6.7889,6.607,6.5657,6.5409,6.4705,6.4038,6.3708,6.3634,6.3703,6.3669,6.3669,6.3669,6.3703,6.3669,6.3669,6.3669,6.3703,6.3738,6.3703,6.3738,6.4324,6.4634,6.4703,6.5221,6.5531,6.5704,6.5566,6.5083,6.4048,6.4358,6.4634,6.4703,6.529,6.5635,6.5704,6.5704,6.5807,6.5842,6.5979,6.632,6.6837,6.6165,6.603,6.6196,6.5871,6.5194,6.4873,6.4283,6.3728,6.3305,6.2747,6.213,6.1561,6.1624,6.1986,6.2035,6.1877,6.2161,6.2238,6.2302,6.2207,6.2144,6.2035,6.1986,6.2207,6.2207,6.2081,6.2017,6.1954,6.2035,6.1782,6.2112,6.2246,7.1174,7.1651,7.1945,7.2055,7.2129,7.2386,7.2532,7.2532,7.2532,7.2532,7.2532,7.2532,7.2532,7.2532,7.2532,7.238,7.2137,7.2409,7.2351,7.2137,7.238,7.2226,7.183,7.1951,7.1921,7.1738,7.1227,7.0737,7.0402,7.0737,7.1002,7.0904,7.0503,7.0368,7.0434,6.9913,6.9737,7.0207,7.0729,7.0798,7.0537,7.05,6.9407,6.7296,6.7091,6.6761,6.6075,6.5826,6.5499,6.5086,6.5048,6.5048,6.5048,6.5048,6.5048,6.5048,6.5048,6.5048,6.5048,6.5048,6.5048,6.5083,6.529,6.5462,6.5497,6.5704,6.5876,6.5911,6.5876,6.5531,6.529,6.5324,6.5462,6.5497,6.5704,6.5945,6.5979,6.629,6.66,6.6669,6.698,6.7197,6.6826,6.6513,6.6196,6.5841,6.5514,6.5057,6.4512,6.4081,6.3658,6.3068,6.2661,6.2302,6.2161,6.2175,6.2365,6.2365,6.2333,6.2302,6.2365,6.2365,6.227,6.227,6.2365,6.2396,6.2333,6.2053,6.2166,6.2396,6.2396,6.2247,6.2396,6.2396,6.2396,7.2018,7.2459,7.2532,7.2532,7.2532,7.2532,7.2532,7.2532,7.2532,7.2642,7.2826,7.2899,7.301,7.3193,7.301,7.2899,7.2863,7.2642,7.2532,7.2532,7.2532,7.2226,7.1891,7.2255,7.2108,7.1453,7.1131,7.0872,7.074,7.0937,7.1035,7.1002,7.0503,7.0402,7.0573,7.0094,7.0472,7.1295,7.1646,7.1719,7.1668,7.1421,7.0653,6.9265,6.8596,6.7729,6.6628,6.6591,6.6371,6.599,6.5876,6.5876,6.5876,6.5876,6.5876,6.5876,6.5876,6.5876,6.5876,6.5876,6.5876,6.5911,6.6117,6.6221,6.6294,6.6462,6.66,6.66,6.66,6.66,6.66,6.66,6.6497,6.6359,6.6462,6.66,6.66,6.7049,6.7325,6.7394,6.7704,6.7702,6.7284,6.692,6.6296,6.5426,6.5069,6.4466,6.3658,6.3404,6.326,6.2562,6.2495,6.2396,6.2302,6.2333,6.2396,6.2396,6.2396,6.2396,6.2428,6.2396,6.2428,6.2428,6.2428,6.2396,6.2247,6.1916,6.1997,6.2279,6.2116,6.1866,6.2116,6.2396,6.2428,7.2496,7.2532,7.2532,7.2532,7.2532,7.2606,7.2569,7.2606,7.2642,7.312,7.367,7.3707,7.4074,7.4515,7.3964,7.3707,7.3597,7.2988,7.2585,7.2532,7.2438,7.2438,7.2409,7.2467,7.2108,7.139,7.074,7.074,7.1163,7.0737,7.0503,7.0402,7.0368,7.0163,6.9419,7.0706,7.1327,7.1578,7.2108,7.2401,7.2438,7.1848,7.134,7.0987,6.9882,6.8208,6.6198,6.609,6.6159,6.6087,6.6014,6.5945,6.6083,6.6083,6.5979,6.6083,6.5979,6.5945,6.5979,6.6048,6.6152,6.6186,6.6635,6.698,6.7083,6.7532,6.7876,6.7842,6.7876,6.7945,6.7911,6.7876,6.7635,6.7187,6.7497,6.7807,6.7911,6.8014,6.8049,6.8014,6.8083,6.8083,6.7845,6.7086,6.6124,6.5248,6.442,6.3611,6.2825,6.2661,6.2464,6.2446,6.2396,6.2396,6.2396,6.2396,6.2428,6.2428,6.2396,6.2396,6.2459,6.2491,6.2449,6.2462,6.2226,6.2226,6.2135,6.1877,6.1856,6.1979,6.1741,6.1976,6.2538,6.2933,6.2667,7.2532,7.2532,7.2532,7.2532,7.2606,7.3083,7.334,7.3377,7.3891,7.4294,7.4515,7.4551,7.4698,7.4845,7.4625,7.4551,7.4455,7.3732,7.3076,7.2534,7.2018,7.2048,7.2438,7.2496,7.2137,7.1485,7.1163,7.0904,7.0737,7.0904,7.1067,7.1002,7.0537,7.0737,7.1259,7.1453,7.1609,7.2137,7.238,7.2496,7.2496,7.2255,7.1671,7.074,7.0163,6.9138,6.7545,6.7394,6.7394,6.7359,6.7394,6.7394,6.7394,6.7394,6.7428,6.7428,6.7428,6.7394,6.7394,6.7394,6.7359,6.7428,6.7635,6.7738,6.7738,6.7945,6.8083,6.8083,6.8083,6.8083,6.8083,6.8083,6.798,6.7773,6.7945,6.8083,6.8083,6.8083,6.8083,6.8083,6.8083,6.7811,6.7168,6.6381,6.5603,6.4604,6.3658,6.2825,6.2513,6.2396,6.2396,6.2396,6.2396,6.2491,6.2604,6.2793,6.2902,6.287,6.2825,6.2775,6.2775,6.287,6.2827,6.2464,6.225,6.2007,6.1911,6.1645,6.1553,6.2152,6.2424,6.2924,6.357,6.3584,6.3217,7.2532,7.2532,7.2826,7.2936,7.3046,7.3817,7.4147,7.4221,7.4698,7.5065,7.5322,7.5359,7.5542,7.5659,7.5506,7.5171,7.4853,7.4119,7.3493,7.293,7.2185,7.2127,7.2416,7.2197,7.1891,7.1422,7.1099,7.0904,7.074,7.064,7.0706,7.0839,7.0503,7.0671,7.164,7.1547,7.164,7.2048,7.2078,7.2226,7.238,7.2226,7.164,7.077,7.0197,6.9456,6.8555,6.828,6.8083,6.8083,6.8083,6.8083,6.8083,6.8049,6.8083,6.8083,6.8083,6.8049,6.8083,6.8014,6.8083,6.8083,6.8083,6.8083,6.8083,6.8083,6.8083,6.8083,6.8083,6.8083,6.8083,6.8083,6.8221,6.8497,6.8256,6.8118,6.8083,6.8083,6.8083,6.8083,6.8083,6.7805,6.7209,6.6795,6.5778,6.4695,6.3862,6.2971,6.2759,6.2396,6.2428,6.2523,6.2762,6.2857,6.2857,6.311,6.3457,6.3426,6.3331,6.3394,6.3457,6.3628,6.3684,6.2861,6.2386,6.1959,6.1805,6.0941,6.0663,6.1704,6.2833,6.3012,6.3246,6.3885,6.3817,7.2532,7.2606,7.334,7.3634,7.3744,7.4588,7.4992,7.4992,7.5139,7.5579,7.6056,7.6166,7.6533,7.6943,7.6423,7.5823,7.5034,7.4493,7.4062,7.37,7.3063,7.2704,7.2642,7.2076,7.1729,7.1492,7.0852,7.0747,7.1021,6.999,6.9564,7.0163,7.0163,7.0266,7.057,7.1035,7.1327,7.1485,7.1485,7.1799,7.2285,7.1799,7.1295,7.1067,6.9955,6.9163,6.8863,6.8362,6.8083,6.8083,6.8083,6.8083,6.8083,6.8083,6.8083,6.8083,6.8083,6.8083,6.8083,6.8083,6.8083,6.8083,6.8083,6.8083,6.8083,6.8083,6.8083,6.8083,6.8083,6.8083,6.8083,6.8221,6.8566,6.9118,6.8842,6.8497,6.829,6.8325,6.8497,6.8394,6.8256,6.8187,6.8097,6.7948,6.6837,6.569,6.4967,6.3988,6.3113,6.2699,6.2523,6.2807,6.3331,6.3426,6.3552,6.3678,6.4026,6.431,6.4152,6.4089,6.4019,6.4189,6.4392,6.3574,6.2679,6.2214,6.1644,6.0983,6.0842,6.1864,6.2439,6.2486,6.3154,6.4121,6.4512,7.2532,7.2606,7.3377,7.3707,7.3891,7.5175,7.5799,7.5873,7.6423,7.6686,7.6943,7.6943,7.7053,7.7237,7.709,7.6601,7.5868,7.562,7.5189,7.4619,7.3861,7.3524,7.3342,7.2701,7.229,7.2114,7.1441,7.1018,7.0628,6.9735,6.9344,6.9492,6.9564,6.9778,7.0266,7.047,7.0904,7.1327,7.139,7.1422,7.1578,7.1485,7.0839,6.9814,6.9383,6.89,6.8478,6.8201,6.8083,6.8083,6.8083,6.8083,6.8083,6.8083,6.8083,6.8083,6.8083,6.8083,6.8083,6.8083,6.8083,6.8083,6.8083,6.8083,6.8083,6.8083,6.8083,6.8083,6.8083,6.8118,6.8187,6.867,6.9291,6.9911,6.9877,6.9739,6.9704,6.9808,6.9773,6.9739,6.9291,6.9015,6.8682,6.7933,6.6804,6.5647,6.4813,6.42,6.3493,6.3204,6.3236,6.3773,6.4184,6.4216,6.4279,6.4374,6.4626,6.5132,6.51,6.4879,6.4673,6.4445,6.4661,6.4476,6.344,6.2824,6.2187,6.1586,6.1933,6.2208,6.2889,6.3464,6.429,6.5102,6.5261,7.2679,7.3046,7.3854,7.4404,7.4845,7.6056,7.6607,7.668,7.7053,7.731,7.731,7.731,7.731,7.731,7.7273,7.67,7.5861,7.637,7.6013,7.5007,7.4476,7.3762,7.3011,7.2585,7.2478,7.2116,7.1728,7.1295,7.0745,6.9809,6.9424,6.9654,6.9339,6.9419,6.9743,6.9849,7.006,7.0404,7.0505,7.0606,7.0904,7.0604,7.0094,6.9237,6.8938,6.8478,6.8123,6.8083,6.8083,6.8083,6.8083,6.8083,6.8083,6.8083,6.8083,6.8083,6.8083,6.8083,6.8083,6.8083,6.8083,6.8083,6.8083,6.8083,6.8083,6.8083,6.8083,6.8083,6.8083,6.8256,6.8739,6.9566,7.0325,7.0808,7.1153,7.105,7.0498,7.0325,7.036,7.0291,7.0049,6.9576,6.9255,6.8192,6.7043,6.5936,6.5245,6.4658,6.4057,6.4001,6.4058,6.45,6.4911,6.4942,6.51,6.5227,6.5322,6.5796,6.5827,6.5638,6.5418,6.502,6.5098,6.5049,6.4148,6.3361,6.2786,6.2409,6.2551,6.3006,6.3785,6.4401,6.5049,6.5687,6.586,7.2973,7.378,7.4551,7.5359,7.6093,7.6937,7.72,7.7273,7.7273,7.731,7.731,7.731,7.731,7.731,7.7118,7.6436,7.5299,7.6469,7.6065,7.5298,7.4649,7.3748,7.2261,7.2683,7.2498,7.1935,7.1648,7.1543,7.1132,7.0025,6.9728,6.9837,6.9468,6.9155,6.9087,6.9087,6.9124,6.9347,6.9456,6.9707,7.0024,6.9708,6.931,6.8975,6.8517,6.8241,6.8123,6.8083,6.8083,6.8083,6.8083,6.8083,6.8083,6.8083,6.8083,6.8083,6.8083,6.8083,6.8083,6.8083,6.8083,6.8083,6.8083,6.8083,6.8083,6.8083,6.8083,6.8083,6.8152,6.8739,6.9601,7.0739,7.1325,7.1636,7.2222,7.1953,7.105,7.0636,7.0636,7.0567,7.056,6.9883,6.9338,6.8715,6.8004,6.605,6.5546,6.5203,6.4811,6.4678,6.4784,6.5037,6.5385,6.5669,6.589,6.6112,6.6238,6.6428,6.6365,6.627,6.6238,6.6006,6.5866,6.5507,6.485,6.4097,6.3475,6.3246,6.3304,6.3475,6.4097,6.4654,6.5258,6.596,6.6301,7.2973,7.3744,7.4588,7.5359,7.6166,7.6943,7.731,7.731,7.731,7.731,7.731,7.731,7.731,7.7273,7.6765,7.6203,7.5895,7.627,7.5861,7.5083,7.4302,7.3571,7.2667,7.3085,7.3072,7.2528,7.2438,7.2115,7.1417,7.0701,6.9923,6.9604,6.948,6.8947,6.8501,6.8474,6.867,6.9087,6.9163,6.92,6.9347,6.9237,6.8863,6.844,6.8201,6.8123,6.8083,6.8083,6.8083,6.8083,6.8083,6.8083,6.8083,6.8083,6.8083,6.8083,6.8083,6.8083,6.8083,6.8083,6.8083,6.8083,6.8083,6.8083,6.8083,6.8083,6.8083,6.8221,6.867,6.9497,7.067,7.1222,7.1774,7.2257,7.2498,7.2609,7.2257,7.2153,7.205,7.1863,7.0986,7.0042,6.9745,6.8562,6.7539,6.6241,6.5867,6.5732,6.5568,6.5373,6.548,6.5669,6.5859,6.6112,6.6207,6.6396,6.6491,6.6586,6.6586,6.6586,6.6586,6.6586,6.6321,6.5969,6.5592,6.4906,6.4209,6.404,6.404,6.4209,6.4432,6.5016,6.5646,6.6268,6.6586,7.3193,7.4294,7.4735,7.5579,7.6644,7.709,7.731,7.731,7.731,7.731,7.731,7.731,7.731,7.7212,7.6534,7.6203,7.6102,7.5792,7.5406,7.4864,7.4187,7.3432,7.2846,7.3018,7.3018,7.2728,7.2678,7.2388,7.1967,7.1291,7.0705,7.0222,6.971,6.9164,6.8601,6.829,6.8319,6.8555,6.8673,6.8708,6.8673,6.8635,6.8593,6.8162,6.8083,6.8083,6.8083,6.8083,6.8083,6.8083,6.8083,6.8083,6.8083,6.8083,6.8083,6.8083,6.8083,6.8083,6.8083,6.8083,6.8083,6.8083,6.8083,6.8083,6.8083,6.8083,6.8325,6.8601,6.9118,6.9877,7.1291,7.1946,7.2291,7.2498,7.2671,7.2671,7.2671,7.2671,7.2671,7.2559,7.1884,7.1197,7.0354,6.8844,6.8035,6.7117,6.6345,6.6198,6.621,6.608,6.6143,6.6301,6.6428,6.6523,6.6523,6.6554,6.6554,6.6586,6.6586,6.6586,6.6586,6.6586,6.6533,6.6268,6.5969,6.5646,6.507,6.4961,6.485,6.4906,6.5125,6.5592,6.5969,6.6427,6.6586,7.356,7.4888,7.5028,7.5946,7.7163,7.7273,7.731,7.731,7.731,7.731,7.7243,7.7212,7.7024,7.6893,7.6065,7.5826,7.5653,7.5406,7.501,7.4604,7.3874,7.3229,7.2838,7.2755,7.2797,7.2713,7.2693,7.2644,7.2437,7.2015,7.1532,7.1256,7.0325,6.9601,6.9227,6.867,6.8295,6.8275,6.8241,6.8201,6.8201,6.8201,6.8162,6.8123,6.8083,6.8083,6.8083,6.8083,6.8083,6.8083,6.8083,6.8083,6.8083,6.8083,6.8083,6.8083,6.8083,6.8083,6.8083,6.8083,6.8083,6.8083,6.8083,6.8187,6.8256,6.8428,6.8773,6.9256,6.9773,7.036,7.1532,7.2188,7.2567,7.2671,7.2671,7.2671,7.2671,7.2671,7.2671,7.2628,7.1737,7.085,7.026,6.9207,6.8634,6.8004,6.7149,6.6586,6.6586,6.6586,6.6554,6.6554,6.6586,6.6586,6.6586,6.6586,6.6586,6.6586,6.6586,6.6586,6.6586,6.6586,6.6586,6.6586,6.6321,6.5969,6.5862,6.5862,6.5754,6.5646,6.5754,6.6108,6.6374,6.6533,6.6586,7.4074,7.4955,7.5616,7.646,7.72,7.731,7.731,7.731,7.731,7.731,7.7212,7.6664,7.6436,7.6065,7.4792,7.4264,7.4492,7.4681,7.4679,7.4072,7.3351,7.2838,7.2755,7.2671,7.2671,7.2671,7.2671,7.2671,7.2671,7.2575,7.2119,7.1567,7.1187,7.0532,6.967,6.9084,6.867,6.829,6.8152,6.8083,6.8083,6.8083,6.8083,6.8083,6.8083,6.8083,6.8083,6.8083,6.8083,6.8083,6.8083,6.8083,6.8083,6.8083,6.8083,6.8083,6.8083,6.8083,6.8083,6.8152,6.8118,6.8083,6.8221,6.8532,6.8877,6.9118,6.9463,7.0118,7.0774,7.1463,7.2402,7.2644,7.2678,7.2671,7.2671,7.2671,7.2671,7.2671,7.2671,7.2628,7.141,7.0473,7.0289,6.9633,6.8568,6.7903,6.7149,6.6691,6.6586,6.6586,6.6586,6.6586,6.6586,6.6586,6.6586,6.6586,6.6586,6.6586,6.6586,6.6586,6.6586,6.6586,6.6586,6.6586,6.6586,6.6427,6.6427,6.648,6.6427,6.613,6.6374,6.6586,6.6586,6.6586,6.6586,7.4184,7.4925,7.5763,7.657,7.72,7.731,7.731,7.731,7.731,7.731,7.7087,7.6534,7.6203,7.5792,7.4529,7.3799,7.3994,7.4606,7.4494,7.376,7.306,7.2671,7.2671,7.2671,7.2671,7.2671,7.2671,7.2671,7.2671,7.2713,7.2429,7.2119,7.1739,7.1084,7.036,6.9635,6.9227,6.8704,6.8359,6.8083,6.8083,6.8083,6.8083,6.8083,6.8083,6.8083,6.8083,6.8083,6.8083,6.8083,6.8083,6.8083,6.8118,6.8118,6.8118,6.8152,6.8118,6.8118,6.8221,6.8394,6.8739,6.8773,6.9015,6.9394,6.9704,6.9911,7.0222,7.0912,7.1636,7.2257,7.2644,7.2671,7.2671,7.2671,7.2671,7.2671,7.2671,7.2671,7.2628,7.2586,7.2004,7.141,7.1232,7.0243,6.8716,6.7783,6.7181,6.6849,6.6638,6.6586,6.6586,6.6586,6.6586,6.6586,6.6586,6.6586,6.6586,6.6586,6.6586,6.6586,6.6586,6.6586,6.6586,6.6586,6.6586,6.6586,6.6586,6.6533,6.6586,6.6586,6.6586,6.6586,6.6586,6.6586,6.6586,7.4331,7.4992,7.5946,7.6717,7.7237,7.731,7.731,7.731,7.731,7.731,7.7181,7.637,7.5895,7.5583,7.4604,7.3721,7.3716,7.4378,7.4226,7.3517,7.3012,7.2671,7.2671,7.2671,7.2671,7.2671,7.2671,7.2671,7.2671,7.2671,7.2671,7.2464,7.1946,7.1601,7.1187,7.0394,6.9848,6.9331,6.8739,6.8325,6.8118,6.8083,6.8083,6.8083,6.8083,6.8083,6.8083,6.8083,6.8083,6.8152,6.8256,6.8359,6.8394,6.8497,6.8566,6.8532,6.8428,6.8394,6.8739,6.9084,6.9497,6.9497,7.0015,7.036,7.0705,7.0843,7.1153,7.1705,7.2188,7.2602,7.2713,7.2671,7.2671,7.2671,7.2671,7.2671,7.2586,7.2501,7.221,7.221,7.2253,7.1917,7.1355,7.0103,6.842,6.8172,6.758,6.6974,6.6796,6.6586,6.6586,6.6586,6.6586,6.6586,6.6586,6.6586,6.6586,6.6586,6.6586,6.6586,6.6586,6.6586,6.6586,6.6586,6.6586,6.6586,6.6586,6.6586,6.6586,6.6586,6.6586,6.6586,6.6586,6.6586,6.6586,7.4845,7.5028,7.6533,7.7237,7.7273,7.731,7.731,7.731,7.731,7.731,7.7212,7.5895,7.5263,7.4865,7.4264,7.3437,7.327,7.3637,7.3677,7.3018,7.2797,7.2671,7.2671,7.2671,7.2671,7.2671,7.2671,7.2671,7.2671,7.2671,7.2671,7.2602,7.2498,7.2222,7.1636,7.1153,7.0912,7.0256,6.9532,6.8842,6.8325,6.8221,6.8256,6.8221,6.8221,6.829,6.8394,6.8394,6.8325,6.8359,6.8842,6.9118,6.9256,6.9808,7.0049,6.9911,6.9635,6.9394,6.9877,7.0118,7.0256,7.0291,7.0498,7.0774,7.1256,7.1877,7.2222,7.2506,7.2713,7.2671,7.2671,7.2671,7.2671,7.2671,7.2671,7.2628,7.2544,7.2416,7.2124,7.1221,7.1098,7.1098,7.0872,6.949,6.8204,6.8122,6.7953,6.7356,6.6869,6.6691,6.6586,6.6586,6.6586,6.6586,6.6586,6.6586,6.6586,6.6586,6.6586,6.6586,6.6586,6.6586,6.6586,6.6586,6.6586,6.6586,6.6586,6.6586,6.6586,6.6586,6.6586,6.6586,6.6586,6.6586,6.6586,7.4888,7.5065,7.6644,7.731,7.731,7.731,7.731,7.731,7.731,7.731,7.7118,7.6167,7.5227,7.4416,7.3917,7.3432,7.3012,7.3437,7.3392,7.2804,7.2671,7.2671,7.2671,7.2671,7.2671,7.2671,7.2671,7.2671,7.2671,7.2671,7.2671,7.2671,7.2671,7.2533,7.205,7.1705,7.136,7.0877,7.0325,6.9773,6.9463,6.936,6.936,6.936,6.9325,6.9325,6.9325,6.9394,6.9394,6.9463,6.9808,6.9911,6.9946,7.0222,7.0498,7.0981,7.0739,7.0498,7.0429,7.0808,7.0981,7.1153,7.136,7.1877,7.2188,7.2429,7.2671,7.2713,7.2671,7.2671,7.2671,7.2671,7.2671,7.2671,7.2671,7.2339,7.2253,7.2296,7.1917,7.0872,6.9883,6.9963,6.9916,6.8911,6.8054,6.8072,6.7751,6.7098,6.6796,6.6638,6.6586,6.6586,6.6586,6.6586,6.6586,6.6586,6.6586,6.6586,6.6586,6.6586,6.6586,6.6586,6.6586,6.6586,6.6586,6.6586,6.6586,6.6586,6.6586,6.6586,6.6586,6.6586,6.6586,6.6586,6.6586,7.4888,7.5065,7.6644,7.731,7.731,7.731,7.731,7.731,7.731,7.731,7.7019,7.6233,7.4974,7.3878,7.3677,7.3432,7.2797,7.3437,7.327,7.2929,7.2671,7.2671,7.2671,7.2671,7.2671,7.2671,7.2671,7.2671,7.2671,7.2671,7.2671,7.2671,7.2671,7.2636,7.2575,7.2153,7.1739,7.136,7.0912,7.0532,7.0325,7.0291,7.0291,7.0366,7.0435,7.0394,7.0435,7.0325,7.0325,7.0291,7.0532,7.067,7.0705,7.1015,7.1325,7.1705,7.1705,7.1532,7.1394,7.1532,7.1739,7.1981,7.2188,7.2498,7.2567,7.2671,7.2671,7.2671,7.2671,7.2671,7.2671,7.2671,7.2671,7.2671,7.2671,7.2167,7.182,7.1951,7.1532,7.0335,6.9409,6.8814,6.8618,6.8104,6.7802,6.7953,6.7529,6.6921,6.6691,6.6586,6.6586,6.6586,6.6586,6.6586,6.6586,6.6586,6.6586,6.6586,6.6586,6.6586,6.6586,6.6586,6.6586,6.6586,6.6586,6.6586,6.6586,6.6586,6.6586,6.6586,6.6586,6.6586,6.6586,6.6586,6.6586,7.4888,7.5028,7.6613,7.731,7.731,7.731,7.731,7.731,7.731,7.7243,7.6988,7.5756,7.434,7.3351,7.3437,7.3351,7.2797,7.3477,7.3229,7.2887,7.2671,7.2671,7.2671,7.2671,7.2671,7.2671,7.2671,7.2671,7.2671,7.2671,7.2671,7.2671,7.2671,7.2671,7.2636,7.2464,7.2119,7.1774,7.1463,7.1118,7.0808,7.0601,7.0601,7.0532,7.0463,7.0394,7.0429,7.0642,7.067,7.0705,7.1153,7.1394,7.1532,7.1877,7.2222,7.2326,7.2395,7.2291,7.2257,7.2257,7.2498,7.2602,7.2636,7.2671,7.2671,7.2671,7.2671,7.2671,7.2671,7.2671,7.2671,7.2671,7.2671,7.2671,7.2628,7.2339,7.1951,7.1698,7.1176,6.9836,6.9073,6.8618,6.7783,6.7356,6.7407,6.7478,6.758,6.6974,6.6691,6.6586,6.6586,6.6586,6.6586,6.6586,6.6586,6.6586,6.6586,6.6586,6.6586,6.6586,6.6586,6.6586,6.6586,6.6586,6.6586,6.6586,6.6586,6.6586,6.6586,6.6586,6.6586,6.6586,6.6586,6.6586,6.6586,7.5212,7.5763,7.6833,7.731,7.731,7.731,7.731,7.731,7.7273,7.7024,7.6534,7.5477,7.4679,7.4107,7.3229,7.327,7.327,7.3101,7.297,7.2804,7.2671,7.2671,7.2671,7.2671,7.2671,7.2671,7.2671,7.2671,7.2671,7.2671,7.2671,7.2671,7.2671,7.2671,7.2671,7.2671,7.2464,7.2326,7.2188,7.2015,7.1912,7.1808,7.185,7.1808,7.1808,7.1808,7.1843,7.185,7.1808,7.1843,7.205,7.2119,7.2153,7.2533,7.2636,7.2671,7.2671,7.2671,7.2671,7.2671,7.2671,7.2671,7.2671,7.2671,7.2671,7.2671,7.2671,7.2671,7.2671,7.2671,7.2671,7.2671,7.2671,7.2671,7.2586,7.2416,7.2124,7.183,7.0872,6.9552,6.9024,6.8618,6.7682,6.6691,6.6869,6.7078,6.713,6.7078,6.6796,6.6586,6.6586,6.6586,6.6586,6.6586,6.6586,6.6586,6.6586,6.6586,6.6586,6.6586,6.6586,6.6586,6.6586,6.6586,6.6586,6.6586,6.6586,6.6586,6.6586,6.6586,6.6586,6.6586,6.6586,6.6586,6.6586,7.5249,7.5836,7.6864,7.731,7.731,7.731,7.731,7.731,7.731,7.6733,7.5826,7.5227,7.4864,7.4378,7.3677,7.3311,7.3557,7.3351,7.297,7.2797,7.2671,7.2671,7.2671,7.2671,7.2671,7.2671,7.2671,7.2671,7.2671,7.2671,7.2671,7.2671,7.2671,7.2671,7.2671,7.2671,7.2671,7.2671,7.2671,7.2671,7.2644,7.2644,7.2644,7.2609,7.2533,7.2498,7.2498,7.2429,7.2498,7.2498,7.2602,7.2636,7.2671,7.2671,7.2671,7.2671,7.2671,7.2671,7.2671,7.2671,7.2671,7.2671,7.2671,7.2671,7.2671,7.2671,7.2671,7.2671,7.2671,7.2671,7.2671,7.2671,7.2671,7.2671,7.2671,7.2544,7.221,7.183,7.0519,6.9265,6.883,6.8321,6.7529,6.6586,6.6638,6.6849,6.6849,6.6817,6.6744,6.6586,6.6586,6.6586,6.6586,6.6586,6.6586,6.6586,6.6586,6.6586,6.6586,6.6586,6.6586,6.6586,6.6586,6.6586,6.6586,6.6586,6.6586,6.6586,6.6586,6.6586,6.6586,6.6586,6.6586,6.6586,6.6586,7.4918,7.5109,7.6613,7.7273,7.7273,7.731,7.731,7.731,7.7273,7.6501,7.5263,7.501,7.4642,7.4072,7.3677,7.3677,7.3838,7.3716,7.327,7.2762,7.2671,7.2671,7.2671,7.2671,7.2671,7.2671,7.2671,7.2671,7.2671,7.2671,7.2671,7.2671,7.2671,7.2671,7.2671,7.2671,7.2671,7.2671,7.2671,7.2671,7.2671,7.2671,7.2671,7.2671,7.2671,7.2671,7.2671,7.2671,7.2671,7.2671,7.2671,7.2671,7.2671,7.2671,7.2671,7.2671,7.2671,7.2671,7.2671,7.2671,7.2671,7.2671,7.2671,7.2671,7.2671,7.2671,7.2671,7.2671,7.2671,7.2671,7.2671,7.2671,7.2671,7.2671,7.2671,7.2628,7.2296,7.2081,7.0963,6.9836,6.8765,6.7852,6.7149,6.6586,6.6586,6.6638,6.6586,6.6586,6.6586,6.6586,6.6586,6.6586,6.6586,6.6586,6.6586,6.6586,6.6586,6.6586,6.6586,6.6586,6.6586,6.6586,6.6586,6.6586,6.6586,6.6586,6.6586,6.6586,6.6586,6.6586,6.6586,6.6586,6.6586,6.6586,6.6586,7.4735,7.5726,7.6276,7.6796,7.7237,7.731,7.731,7.731,7.7212,7.6436,7.5227,7.501,7.4937,7.4416,7.3637,7.3632,7.434,7.3305,7.2797,7.2755,7.2671,7.2671,7.2671,7.2671,7.2671,7.2671,7.2671,7.2671,7.2671,7.2671,7.2671,7.2671,7.2671,7.2671,7.2671,7.2671,7.2671,7.2671,7.2671,7.2671,7.2671,7.2671,7.2671,7.2671,7.2671,7.2671,7.2671,7.2671,7.2671,7.2671,7.2671,7.2671,7.2671,7.2671,7.2671,7.2671,7.2671,7.2671,7.2671,7.2671,7.2671,7.2671,7.2671,7.2671,7.2671,7.2671,7.2671,7.2671,7.2671,7.2671,7.2671,7.2671,7.2671,7.2671,7.2671,7.2671,7.2544,7.2459,7.183,7.0827,6.9775,6.8104,6.7078,6.6638,6.6586,6.6586,6.6586,6.6586,6.6586,6.6586,6.6586,6.6586,6.6586,6.6586,6.6586,6.6586,6.6586,6.6586,6.6586,6.6586,6.6586,6.6586,6.6586,6.6586,6.6586,6.6586,6.6586,6.6586,6.6586,6.6586,6.6586,6.6586,6.6586,6.6586,6.6586,7.4478,7.5652,7.5983,7.657,7.7237,7.731,7.731,7.731,7.7243,7.6469,7.5299,7.5263,7.5227,7.464,7.3795,7.3627,7.4715,7.3311,7.2586,7.2544,7.2544,7.2544,7.2544,7.2586,7.2586,7.2671,7.2671,7.2671,7.2671,7.2671,7.2671,7.2671,7.2671,7.2671,7.2671,7.2671,7.2671,7.2671,7.2671,7.2671,7.2671,7.2671,7.2671,7.2671,7.2671,7.2671,7.2671,7.2671,7.2671,7.2671,7.2671,7.2671,7.2671,7.2671,7.2671,7.2671,7.2671,7.2671,7.2671,7.2671,7.2671,7.2671,7.2671,7.2671,7.2671,7.2671,7.2671,7.2671,7.2671,7.2671,7.2671,7.2671,7.2671,7.2671,7.2671,7.2671,7.2628,7.2501,7.2081,7.1131,6.9916,6.8354,6.7078,6.6849,6.6586,6.6586,6.6586,6.6586,6.6586,6.6586,6.6586,6.6586,6.6586,6.6586,6.6586,6.6586,6.6586,6.6586,6.6586,6.6586,6.6586,6.6586,6.6586,6.6586,6.6586,6.6586,6.6586,6.6586,6.6586,6.6586,6.6586,6.6586,6.6586,6.6586,6.6586,7.4147,7.4992,7.5726,7.6533,7.72,7.731,7.731,7.731,7.731,7.6436,7.5047,7.5792,7.5654,7.4715,7.3874,7.3991,7.4299,7.306,7.2509,7.2331,7.2373,7.2373,7.2373,7.2373,7.2501,7.2628,7.2671,7.2671,7.2671,7.2544,7.2544,7.2628,7.2586,7.2586,7.2628,7.2671,7.2671,7.2671,7.2671,7.2671,7.2671,7.2671,7.2671,7.2671,7.2671,7.2671,7.2671,7.2671,7.2671,7.2671,7.2705,7.2663,7.2671,7.2671,7.2671,7.2671,7.2671,7.2586,7.2628,7.2628,7.2671,7.2671,7.2671,7.2671,7.2671,7.2671,7.2671,7.2671,7.2671,7.2671,7.2671,7.2671,7.2671,7.2671,7.2671,7.2628,7.2544,7.2253,7.1776,7.086,6.9537,6.8154,6.7026,6.6586,6.6586,6.6586,6.6586,6.6586,6.6586,6.6586,6.6586,6.6586,6.6586,6.6586,6.6586,6.6586,6.6586,6.6586,6.6586,6.6586,6.6586,6.6586,6.6586,6.6586,6.6586,6.6586,6.6586,6.6586,6.6586,6.6586,6.6586,6.6586,6.6586,6.6586,6.6586,7.3634,7.4882,7.5175,7.6026,7.72,7.731,7.731,7.731,7.7273,7.6436,7.5047,7.5861,7.5654,7.475,7.3878,7.4146,7.3869,7.3305,7.2552,7.2288,7.2245,7.2288,7.2288,7.2253,7.2459,7.2586,7.2628,7.2544,7.2416,7.2331,7.2245,7.2202,7.2373,7.2416,7.2501,7.2586,7.2628,7.2671,7.2671,7.2671,7.2671,7.2671,7.2671,7.2671,7.2671,7.2671,7.2671,7.2671,7.2628,7.2459,7.2416,7.2373,7.2202,7.2331,7.2416,7.2416,7.2331,7.2245,7.2373,7.2416,7.2459,7.2586,7.2671,7.2671,7.2671,7.2671,7.2671,7.2671,7.2671,7.2671,7.2671,7.2671,7.2671,7.2671,7.2671,7.2671,7.2586,7.2459,7.1951,7.1008,6.9694,6.8304,6.713,6.6586,6.6586,6.6586,6.6586,6.6586,6.6586,6.6586,6.6586,6.6586,6.6586,6.6586,6.6586,6.6586,6.6586,6.6586,6.6586,6.6586,6.6586,6.6586,6.6586,6.6586,6.6586,6.6586,6.6586,6.6586,6.6586,6.6586,6.6586,6.6586,6.6586,6.6586,6.6586,7.345,7.4778,7.4888,7.5806,7.7127,7.731,7.731,7.7243,7.6888,7.6063,7.5406,7.579,7.5653,7.5009,7.4264,7.4037,7.4261,7.2818,7.1951,7.1951,7.2038,7.1994,7.1994,7.2038,7.2124,7.2331,7.2416,7.2288,7.2159,7.2072,7.2029,7.2029,7.2159,7.2159,7.2245,7.2288,7.2373,7.2459,7.2544,7.2671,7.2671,7.2671,7.2671,7.2671,7.2671,7.2628,7.2544,7.2544,7.2416,7.2245,7.2202,7.2159,7.2029,7.2115,7.2202,7.2159,7.2115,7.2072,7.2159,7.2202,7.2288,7.2373,7.2459,7.2416,7.2501,7.2544,7.2628,7.2671,7.2671,7.2671,7.2671,7.2671,7.2671,7.2671,7.2671,7.2671,7.2671,7.2671,7.2047,7.1277,7.0056,6.8568,6.758,6.6974,6.6586,6.6586,6.6586,6.6586,6.6586,6.6586,6.6586,6.6586,6.6586,6.6586,6.6586,6.6586,6.6586,6.6586,6.6586,6.6586,6.6586,6.6586,6.6586,6.6586,6.6586,6.6586,6.6586,6.6586,6.6586,6.6586,6.6586,6.6586,6.6586,6.6586,6.6586,7.345,7.4918,7.5065,7.5989,7.7163,7.7273,7.731,7.7118,7.6164,7.5686,7.5689,7.5756,7.5547,7.4936,7.4381,7.3998,7.3602,7.2398,7.1732,7.16,7.1688,7.1732,7.1688,7.1644,7.1864,7.1985,7.2029,7.2072,7.1985,7.1854,7.181,7.1942,7.1942,7.1942,7.1985,7.2072,7.2115,7.2159,7.2373,7.2544,7.2544,7.2586,7.2628,7.2586,7.2544,7.2501,7.2373,7.2245,7.2202,7.2029,7.1942,7.1942,7.1942,7.1898,7.1898,7.1898,7.1854,7.1898,7.1942,7.1942,7.1985,7.2029,7.1985,7.2072,7.2245,7.2416,7.2544,7.2586,7.2586,7.2671,7.2671,7.2671,7.2671,7.2671,7.2671,7.2671,7.2671,7.2586,7.209,7.1355,7.0565,6.9105,6.7733,6.7149,6.6869,6.6744,6.6586,6.6586,6.6586,6.6586,6.6586,6.6586,6.6586,6.6586,6.6586,6.6586,6.6586,6.6586,6.6586,6.6586,6.6586,6.6586,6.6586,6.6586,6.6586,6.6586,6.6586,6.6586,6.6586,6.6586,6.6586,6.6586,6.6586,6.6586,6.6586,7.345,7.4992,7.6209,7.6918,7.715,7.7279,7.715,7.6765,7.5299,7.512,7.5686,7.5617,7.5227,7.4567,7.4305,7.3881,7.2996,7.2185,7.1698,7.16,7.1556,7.1556,7.16,7.1556,7.1732,7.1942,7.1985,7.1854,7.1722,7.159,7.1491,7.1535,7.159,7.1722,7.1722,7.181,7.1942,7.1898,7.2029,7.2159,7.2159,7.2159,7.2159,7.2159,7.2159,7.2159,7.2072,7.2072,7.1942,7.1732,7.1688,7.1688,7.1688,7.1546,7.1546,7.16,7.159,7.159,7.1678,7.1722,7.1766,7.1898,7.1942,7.1985,7.2072,7.2288,7.2416,7.2459,7.2544,7.2628,7.2671,7.2671,7.2671,7.2671,7.2671,7.2671,7.2671,7.2382,7.2081,7.1444,7.0872,6.968,6.8254,6.7529,6.7253,6.6974,6.6691,6.6586,6.6586,6.6586,6.6586,6.6586,6.6586,6.6586,6.6586,6.6586,6.6586,6.6586,6.6586,6.6586,6.6586,6.6586,6.6586,6.6586,6.6586,6.6586,6.6586,6.6586,6.6586,6.6586,6.6586,6.6586,6.6586,6.6586,6.6586,7.3751,7.4982,7.6459,7.7087,7.7092,7.7087,7.6801,7.6102,7.4793,7.4719,7.5477,7.5192,7.4753,7.4378,7.4264,7.3522,7.2658,7.183,7.1546,7.1457,7.1501,7.1457,7.1457,7.1501,7.1501,7.1634,7.1712,7.158,7.1457,7.1367,7.1312,7.1312,7.1412,7.1501,7.1501,7.1634,7.1712,7.1634,7.1712,7.1712,7.1756,7.1854,7.1985,7.1985,7.1985,7.1942,7.1854,7.181,7.1678,7.1546,7.1457,7.1457,7.1457,7.1367,7.1367,7.1412,7.1401,7.1356,7.1457,7.1535,7.158,7.1712,7.1678,7.1634,7.1634,7.1854,7.2159,7.2245,7.2373,7.2501,7.2628,7.2671,7.2671,7.2671,7.2671,7.2671,7.2671,7.2586,7.2038,7.1389,7.0736,7.001,6.8716,6.7903,6.7529,6.6817,6.6586,6.6586,6.6586,6.6586,6.6586,6.6586,6.6586,6.6586,6.6586,6.6586,6.6586,6.6586,6.6586,6.6586,6.6586,6.6586,6.6586,6.6586,6.6586,6.6586,6.6586,6.6586,6.6586,6.6586,6.6586,6.6586,6.6586,6.6586,6.6586,7.4102,7.4976,7.6245,7.6866,7.6998,7.6866,7.6336,7.5512,7.4531,7.4569,7.5155,7.4456,7.4492,7.4529,7.4187,7.3281,7.2406,7.1644,7.1356,7.1312,7.1312,7.1323,7.1323,7.1312,7.1356,7.1356,7.1401,7.1356,7.1356,7.1312,7.1312,7.1312,7.1312,7.1312,7.1312,7.1312,7.1356,7.1401,7.1401,7.1356,7.1491,7.1678,7.1766,7.1854,7.1898,7.1766,7.16,7.1512,7.1457,7.1401,7.1356,7.1356,7.1356,7.1312,7.1312,7.1312,7.1593,7.1481,7.1424,7.1526,7.1458,7.139,7.1345,7.1345,7.1469,7.1614,7.1922,7.2063,7.2236,7.2408,7.2536,7.2628,7.2628,7.2671,7.2671,7.2671,7.2671,7.2671,7.2081,7.1433,7.0951,7.0335,6.9298,6.847,6.7701,6.6974,6.6586,6.6586,6.6586,6.6586,6.6586,6.6586,6.6586,6.6586,6.6617,6.6617,6.6617,6.6586,6.6586,6.6586,6.6586,6.6586,6.6586,6.6586,6.6586,6.6586,6.6586,6.6586,6.6586,6.6586,6.6586,6.6586,6.6586,6.6586,6.6586,7.4287,7.552,7.6437,7.6773,7.6708,7.6737,7.6236,7.5335,7.4456,7.4569,7.4792,7.4305,7.3956,7.403,7.316,7.2364,7.1786,7.1356,7.1312,7.1312,7.1312,7.1312,7.1312,7.1312,7.1312,7.1312,7.1312,7.1312,7.1312,7.1312,7.1312,7.1312,7.1312,7.1312,7.1312,7.1312,7.1312,7.1312,7.1312,7.1312,7.1312,7.1401,7.1401,7.1446,7.1446,7.1401,7.1356,7.1356,7.1356,7.1312,7.1379,7.1413,7.1481,7.1548,7.1616,7.1785,7.1988,7.1921,7.1887,7.2056,7.2022,7.1684,7.165,7.1616,7.1661,7.1627,7.1896,7.1995,7.2137,7.2252,7.2391,7.2408,7.2416,7.2628,7.2671,7.2671,7.2671,7.2671,7.2459,7.2167,7.196,7.0917,6.9552,6.8814,6.8104,6.7356,6.6586,6.6617,6.6617,6.6617,6.6681,6.6712,6.6775,6.6617,6.6617,6.6617,6.6617,6.6617,6.6586,6.6586,6.6586,6.6586,6.6586,6.6586,6.6586,6.6586,6.6586,6.6586,6.6586,6.6586,6.6586,6.6586,6.6586,6.6586,6.6586]}]]